[[{"header":{"parameterUnit":"m.s-1","parameterCategory":1,"la1":31.0,"la2":29.5877,"lo1":-88.7671,"lo2":-86.6584,"dy":0.0162,"dx":0.0185,"nx":115,"ny":88,"refTime":"2023-04-09T00:00:00:Z","depth":0,"parameterNumber":2,"parameterNumberName":"U-component_of_WINDS"},"data":[0.0,0.0,0.0,0.0,0.0,0.0,0.0,0.0,0.0,0.0,0.0,0.0,0.0,0.0,0.0,0.0,0.0,0.0,0.0,0.0,0.0,0.0,0.0,0.0,0.0,0.0,0.0,0.0,0.0,0.0,0.0,0.0,0.0,0.0,0.0,0.0,0.0,0.0,0.0,0.0,0.0,0.0,0.0,0.0,0.0,0.0,0.0,0.0,0.0,0.0,0.0,0.0,0.0,0.0,0.0,0.0,0.0,0.0,0.0,0.0,0.0,0.0,0.0,0.0,0.0,0.0,0.0,0.0,0.0,0.0,0.0,0.0,0.0,0.0,0.0,0.0,0.0,0.0,0.0,0.0,0.0,0.0,0.0,0.0,0.0,0.0,0.0,0.0,0.0,0.0,0.0,0.0,0.0,0.0,0.0,0.0,0.0,0.0,0.0,0.0,0.0,0.0,0.0,0.0,0.0,0.0,0.0,0.0,0.0,0.0,0.0,0.0,0.0,0.0,0.0,0.0,0.0,0.0,0.0,0.0,0.0,0.0,0.0,0.0,0.0,0.0,0.0,0.0,0.0,0.0,0.0,0.0,0.0,0.0,0.0,0.0,0.0,0.0,0.0,0.0,0.0,0.0,0.0,0.0,0.0,0.0,0.0,0.0,0.0,0.0,0.0,0.0,0.0,0.0,0.0,0.0,0.0,0.0,0.0,0.0,0.0,0.0,0.0,0.0,0.0,0.0,0.0,0.0,0.0,0.0,0.0,0.0,0.0,0.0,0.0,0.0,0.0,0.0,0.0,0.0,0.0,0.0,0.0,0.0,0.0,0.0,0.0,0.0,0.0,0.0,0.0,0.0,0.0,0.0,0.0,0.0,0.0,0.0,0.0,0.0,0.0,0.0,0.0,0.0,0.0,0.0,0.0,0.0,0.0,0.0,0.0,0.0,0.0,0.0,0.0,0.0,0.0,0.0,0.0,0.0,0.0,0.0,0.0,0.0,0.0,0.0,0.0,0.0,0.0,0.0,0.0,0.0,0.0,0.0,0.0,0.0,0.0,0.0,0.0,0.0,0.0,0.0,0.0,0.0,0.0,0.0,0.0,0.0,0.0,0.0,0.0,0.0,0.0,0.0,0.0,0.0,0.0,0.0,0.0,0.0,0.0,0.0,0.0,0.0,0.0,0.0,0.0,0.0,0.0,0.0,0.0,0.0,0.0,0.0,0.0,0.0,0.0,0.0,0.0,0.0,0.0,0.0,0.0,0.0,0.0,0.0,0.0,0.0,0.0,0.0,0.0,0.0,0.0,0.0,0.0,0.0,0.0,0.0,0.0,0.0,0.0,0.0,0.0,0.0,0.0,0.0,0.0,0.0,0.0,0.0,0.0,0.0,0.0,0.0,0.0,0.0,0.0,0.0,0.0,0.0,0.0,0.0,0.0,0.0,0.0,0.0,0.0,0.0,0.0,0.0,0.0,0.0,0.0,0.0,0.0,0.0,0.0,0.0,0.0,0.0,0.0,0.0,0.0,0.0,0.0,0.0,0.0,0.0,0.0,0.0,0.0,0.0,0.0,0.0,0.0,0.0,0.0,0.0,0.0,0.0,0.0,0.0,0.0,0.0,0.0,0.0,0.0,0.0,0.0,0.0,0.0,0.0,0.0,0.0,0.0,0.0,0.0,0.0,0.0,0.0,0.0,0.0,0.0,0.0,0.0,0.0,0.0,0.0,0.0,0.0,0.0,0.0,0.0,0.0,0.0,0.0,0.0,0.0,0.0,0.0,0.0,0.0,0.0,0.0,0.0,0.0,0.0,0.0,0.0,0.0,0.0,0.0,0.0,0.0,0.0,0.0,0.0,0.0,0.0,0.0,0.0,0.0,0.0,0.0,0.0,0.0,0.0,0.0,0.0,0.0,0.0,0.0,0.0,0.0,0.0,0.0,0.0,0.0,0.0,0.0,0.0,0.0,0.0,0.0,0.0,0.0,0.0,0.0,0.0,0.0,0.0,0.0,0.0,0.0,0.0,0.0,0.0,0.0,0.0,0.0,0.0,0.0,0.0,0.0,0.0,0.0,0.0,0.0,0.0,0.0,0.0,0.0,0.0,0.0,0.0,0.0,0.0,0.0,0.0,0.0,0.0,0.0,0.0,0.0,0.0,0.0,0.0,0.0,0.0,0.0,0.0,0.0,0.0,0.0,0.0,0.0,0.0,0.0,0.0,0.0,0.0,0.0,0.0,0.0,0.0,0.0,0.0,0.0,0.0,0.0,0.0,0.0,0.0,0.0,0.0,0.0,0.0,0.0,0.0,0.0,0.0,0.0,0.0,0.0,0.0,0.0,0.0,0.0,0.0,0.0,0.0,0.0,0.0,0.0,0.0,0.0,0.0,0.0,0.0,0.0,0.0,0.0,0.0,0.0,0.0,0.0,0.0,0.0,0.0,0.0,0.0,0.0,0.0,0.0,0.0,0.0,0.0,0.0,0.0,0.0,0.0,0.0,0.0,0.0,0.0,0.0,0.0,0.0,0.0,0.0,0.0,0.0,0.0,0.0,0.0,0.0,0.0,0.0,0.0,0.0,0.0,0.0,0.0,0.0,0.0,0.0,0.0,0.0,0.0,0.0,0.0,0.0,0.0,0.0,0.0,0.0,0.0,0.0,0.0,0.0,0.0,0.0,0.0,0.0,0.0,0.0,0.0,0.0,0.0,0.0,0.0,0.0,0.0,0.0,0.0,0.0,0.0,0.0,0.0,0.0,0.0,0.0,0.0,0.0,0.0,0.0,0.0,0.0,0.0,0.0,0.0,0.0,0.0,0.0,0.0,0.0,0.0,0.0,0.0,0.0,0.0,0.0,0.0,0.0,0.0,0.0,0.0,0.0,0.0,0.0,0.0,0.0,0.0,0.0,0.0,0.0,0.0,0.0,0.0,0.0,0.0,0.0,0.0,0.0,0.0,0.0,0.0,0.0,0.0,0.0,0.0,0.0,0.0,0.0,0.0,0.0,0.0,0.0,0.0,0.0,0.0,0.0,0.0,0.0,0.0,0.0,0.0,0.0,0.0,0.0,0.0,0.0,0.0,0.0,0.0,0.0,0.0,0.0,0.0,0.0,0.0,0.0,0.0,0.0,0.0,0.0,0.0,0.0,0.0,0.0,0.0,0.0,0.0,0.0,0.0,0.0,0.0,0.0,0.0,0.0,0.0,0.0,0.0,0.0,0.0,0.0,0.0,0.0,0.0,0.0,0.0,0.0,0.0,0.0,0.0,0.0,0.0,0.0,0.0,0.0,0.0,0.0,0.0,0.0,0.0,0.0,0.0,0.0,0.0,0.0,0.0,0.0,0.0,0.0,0.0,0.0,0.0,0.0,0.0,0.0,0.0,0.0,0.0,0.0,0.0,0.0,0.0,0.0,0.0,0.0,0.0,0.0,0.0,0.0,0.0,0.0,0.0,0.0,0.0,0.0,0.0,0.0,0.0,0.0,0.0,0.0,0.0,0.0,0.0,0.0,0.0,0.0,0.0,0.0,0.0,0.0,0.0,0.0,0.0,0.0,0.0,0.0,0.0,0.0,0.0,0.0,0.0,0.0,0.0,0.0,0.0,0.0,0.0,0.0,0.0,0.0,0.0,0.0,0.0,0.0,0.0,0.0,0.0,0.0,0.0,0.0,0.0,0.0,0.0,0.0,0.0,0.0,0.0,0.0,0.0,0.0,0.0,0.0,0.0,0.0,0.0,0.0,0.0,0.0,0.0,0.0,0.0,0.0,0.0,0.0,0.0,0.0,0.0,0.0,0.0,0.0,0.0,0.0,0.0,0.0,0.0,0.0,0.0,0.0,0.0,0.0,0.0,0.0,0.0,0.0,0.0,0.0,0.0,0.0,0.0,0.0,0.0,0.0,0.0,0.0,0.0,0.0,0.0,0.0,0.0,0.0,0.0,0.0,0.0,0.0,0.0,0.0,0.0,0.0,0.0,0.0,0.0,0.0,0.0,0.0,0.0,0.0,0.0,0.0,0.0,0.0,0.0,0.0,0.0,0.0,0.0,0.0,0.0,0.0,0.0,0.0,0.0,0.0,0.0,0.0,0.0,0.0,0.0,0.0,0.0,0.0,0.0,0.0,0.0,0.0,0.0,0.0,0.0,0.0,0.0,0.0,0.0,0.0,0.0,0.0,0.0,0.0,0.0,0.0,0.0,0.0,0.0,0.0,0.0,0.0,0.0,0.0,0.0,0.0,0.0,0.0,0.0,0.0,0.0,0.0,0.0,0.0,0.0,0.0,0.0,0.0,2.0698,0.0,0.0,0.0,0.0,0.0,0.0,0.0,0.0,0.0,0.0,0.0,0.0,0.0,0.0,0.0,0.0,0.0,0.0,0.0,0.0,0.0,0.0,0.0,0.0,0.0,0.0,0.0,0.0,0.0,0.0,0.0,0.0,0.0,0.0,0.0,0.0,0.0,0.0,0.0,0.0,0.0,0.0,0.0,0.0,0.0,0.0,0.0,0.0,0.0,0.0,0.0,0.0,0.0,0.0,0.0,0.0,0.0,0.0,0.0,0.0,0.0,0.0,0.0,0.0,0.0,0.0,0.0,0.0,0.0,0.0,0.0,0.0,0.0,0.0,0.0,0.0,0.0,0.0,0.0,0.0,0.0,0.0,0.0,0.0,0.0,0.0,0.0,0.0,0.0,0.0,0.0,0.0,0.0,0.0,0.0,0.0,0.0,0.0,0.0,0.0,0.0,0.0,0.0,0.0,0.0,0.0,0.0,0.0,0.0,0.0,2.295,2.2606,2.1685,2.103,2.0698,0.0,0.0,0.0,0.0,0.0,0.0,0.0,0.0,0.0,0.0,0.0,0.0,0.0,0.0,0.0,0.0,0.0,0.0,0.0,0.0,0.0,0.0,0.0,0.0,0.0,0.0,0.0,0.0,0.0,0.0,0.0,0.0,0.0,0.0,0.0,0.0,0.0,0.0,0.0,0.0,0.0,0.0,0.0,0.0,0.0,0.0,0.0,0.0,0.0,0.0,0.0,0.0,0.0,0.0,0.0,0.0,0.0,0.0,0.0,0.0,0.0,0.0,0.0,0.0,0.0,0.0,0.0,0.0,0.0,0.0,0.0,0.0,0.0,0.0,0.0,0.0,0.0,0.0,0.0,0.0,0.0,0.0,0.0,0.0,0.0,0.0,0.0,0.0,0.0,0.0,0.0,0.0,0.0,0.0,0.0,0.0,0.0,0.0,0.0,0.0,0.0,0.0,0.0,0.0,0.0,0.0,0.0,0.0,0.0,0.0,0.0,0.0,2.1657,2.0944,2.043,0.0,0.0,0.0,0.0,0.0,0.0,0.0,0.0,0.0,0.0,0.0,0.0,0.0,0.0,0.0,0.0,0.0,0.0,0.0,0.0,0.0,0.0,0.0,0.0,0.0,0.0,0.0,0.0,0.0,0.0,0.0,0.0,0.0,0.0,0.0,0.0,0.0,0.0,0.0,0.0,0.0,0.0,0.0,0.0,0.0,0.0,0.0,0.0,0.0,0.0,0.0,0.0,0.0,0.0,0.0,0.0,0.0,0.0,0.0,0.0,0.0,0.0,0.0,0.0,0.0,0.0,0.0,0.0,0.0,0.0,0.0,0.0,0.0,0.0,0.0,0.0,0.0,0.0,0.0,0.0,0.0,0.0,0.0,0.0,0.0,0.0,0.0,0.0,0.0,0.0,0.0,0.0,0.0,0.0,0.0,0.0,0.0,0.0,0.0,0.0,0.0,0.0,0.0,0.0,0.0,0.0,0.0,0.0,0.0,0.0,2.2788,2.2176,2.1514,0.0,1.9623,0.0,0.0,0.0,0.0,0.0,0.0,0.0,0.0,0.0,0.0,0.0,0.0,0.0,0.0,0.0,0.0,0.0,0.0,0.0,0.0,0.0,0.0,0.0,0.0,0.0,0.0,0.0,0.0,0.0,0.0,0.0,0.0,0.0,0.0,0.0,0.0,0.0,0.0,0.0,0.0,0.0,0.0,0.0,0.0,0.0,0.0,0.0,0.0,0.0,0.0,0.0,0.0,0.0,0.0,0.0,0.0,0.0,0.0,0.0,0.0,0.0,0.0,0.0,0.0,0.0,0.0,0.0,0.0,0.0,0.0,0.0,0.0,0.0,0.0,0.0,0.0,0.0,0.0,0.0,0.0,0.0,0.0,0.0,0.0,0.0,0.0,0.0,0.0,0.0,0.0,0.0,0.0,0.0,0.0,0.0,0.0,0.0,0.0,0.0,0.0,0.0,0.0,0.0,0.0,0.0,0.0,0.0,0.0,0.0,0.0,2.2773,2.2117,2.1166,2.0335,0.0,0.0,0.0,0.0,0.0,0.0,0.0,0.0,0.0,0.0,0.0,0.0,0.0,0.0,0.0,0.0,0.0,0.0,0.0,0.0,0.0,0.0,0.0,0.0,0.0,0.0,0.0,0.0,0.0,0.0,0.0,0.0,0.0,0.0,0.0,0.0,0.0,0.0,0.0,0.0,0.0,0.0,0.0,0.0,0.0,0.0,0.0,0.0,0.0,0.0,0.0,0.0,0.0,0.0,0.0,0.0,0.0,0.0,0.0,0.0,0.0,0.0,0.0,0.0,0.0,0.0,0.0,0.0,0.0,0.0,0.0,0.0,0.0,0.0,0.0,0.0,0.0,0.0,0.0,0.0,0.0,0.0,0.0,0.0,0.0,0.0,0.0,0.0,0.0,0.0,0.0,0.0,0.0,0.0,0.0,0.0,0.0,0.0,0.0,0.0,0.0,0.0,0.0,0.0,0.0,0.0,0.0,0.0,0.0,0.0,2.295,2.2668,2.1974,2.0898,2.0158,1.9822,0.0,0.0,0.0,0.0,0.0,0.0,0.0,0.0,0.0,0.0,0.0,0.0,0.0,0.0,0.0,0.0,0.0,0.0,0.0,0.0,0.0,0.0,0.0,0.0,0.0,0.0,0.0,0.0,0.0,0.0,0.0,0.0,0.0,0.0,0.0,0.0,0.0,0.0,0.0,0.0,0.0,0.0,0.0,0.0,0.0,0.0,0.0,0.0,0.0,0.0,0.0,0.0,0.0,0.0,0.0,0.0,0.0,0.0,0.0,0.0,0.0,0.0,0.0,0.0,0.0,0.0,0.0,0.0,0.0,0.0,0.0,0.0,0.0,0.0,0.0,0.0,0.0,0.0,0.0,0.0,0.0,0.0,0.0,0.0,0.0,0.0,0.0,0.0,0.0,0.0,0.0,0.0,0.0,0.0,0.0,0.0,0.0,0.0,0.0,0.0,0.0,0.0,0.0,0.0,0.0,0.0,0.0,0.0,2.2591,2.2623,2.2336,2.1734,2.0796,2.014,0.0,0.0,0.0,0.0,0.0,0.0,0.0,0.0,0.0,0.0,0.0,0.0,0.0,0.0,0.0,0.0,0.0,0.0,0.0,0.0,0.0,0.0,0.0,0.0,0.0,0.0,0.0,0.0,0.0,0.0,0.0,0.0,0.0,0.0,0.0,0.0,0.0,0.0,0.0,0.0,0.0,0.0,0.0,0.0,0.0,0.0,0.0,0.0,0.0,0.0,0.0,0.0,0.0,0.0,0.0,0.0,0.0,0.0,0.0,0.0,0.0,0.0,0.0,0.0,0.0,0.0,0.0,0.0,0.0,0.0,0.0,0.0,0.0,0.0,0.0,0.0,0.0,0.0,0.0,0.0,0.0,0.0,0.0,0.0,0.0,0.0,0.0,0.0,0.0,0.0,0.0,0.0,0.0,0.0,0.0,0.0,0.0,0.0,0.0,0.0,0.0,0.0,0.0,0.0,0.0,0.0,0.0,0.0,0.0,2.2322,2.2348,2.212,2.1685,2.0785,2.0241,0.0,0.0,0.0,0.0,0.0,0.0,0.0,0.0,0.0,0.0,0.0,0.0,0.0,0.0,0.0,0.0,0.0,0.0,0.0,0.0,0.0,0.0,0.0,0.0,0.0,0.0,0.0,0.0,0.0,0.0,0.0,0.0,0.0,0.0,0.0,0.0,0.0,0.0,0.0,0.0,0.0,0.0,0.0,0.0,0.0,0.0,0.0,0.0,0.0,0.0,0.0,0.0,0.0,0.0,0.0,0.0,0.0,0.0,0.0,0.0,0.0,0.0,0.0,0.0,0.0,0.0,0.0,0.0,0.0,0.0,0.0,0.0,0.0,0.0,0.0,0.0,0.0,0.0,0.0,0.0,0.0,0.0,0.0,0.0,0.0,0.0,0.0,0.0,0.0,0.0,0.0,0.0,0.0,0.0,0.0,0.0,0.0,0.0,0.0,0.0,0.0,0.0,0.0,0.0,0.0,0.0,0.0,0.0,0.0,2.1996,0.0,2.2109,0.0,2.0914,2.0368,0.0,0.0,0.0,0.0,0.0,0.0,0.0,0.0,0.0,0.0,0.0,0.0,0.0,0.0,0.0,0.0,0.0,0.0,0.0,0.0,0.0,0.0,0.0,0.0,0.0,0.0,0.0,0.0,0.0,0.0,0.0,0.0,0.0,0.0,0.0,0.0,0.0,0.0,0.0,0.0,0.0,0.0,0.0,0.0,0.0,0.0,0.0,0.0,0.0,0.0,0.0,0.0,0.0,0.0,0.0,0.0,0.0,0.0,0.0,0.0,0.0,0.0,0.0,0.0,0.0,0.0,0.0,0.0,0.0,0.0,0.0,0.0,0.0,0.0,0.0,0.0,0.0,0.0,0.0,0.0,0.0,0.0,0.0,0.0,0.0,0.0,0.0,0.0,0.0,0.0,0.0,0.0,0.0,0.0,0.0,0.0,0.0,0.0,0.0,0.0,0.0,0.0,0.0,0.0,0.0,0.0,0.0,0.0,2.0411,2.1631,2.2241,2.2265,2.1705,2.1094,2.0475,0.0,0.0,0.0,0.0,0.0,0.0,0.0,0.0,0.0,0.0,0.0,0.0,0.0,0.0,0.0,0.0,0.0,0.0,0.0,0.0,0.0,0.0,0.0,0.0,0.0,0.0,0.0,0.0,0.0,0.0,0.0,0.0,0.0,0.0,0.0,0.0,0.0,0.0,0.0,0.0,0.0,0.0,0.0,0.0,0.0,0.0,0.0,0.0,0.0,0.0,0.0,0.0,0.0,0.0,0.0,0.0,0.0,0.0,0.0,0.0,0.0,0.0,0.0,0.0,0.0,0.0,0.0,0.0,0.0,0.0,0.0,0.0,0.0,0.0,0.0,0.0,0.0,0.0,0.0,0.0,0.0,0.0,0.0,0.0,0.0,0.0,0.0,0.0,0.0,0.0,0.0,0.0,0.0,0.0,0.0,0.0,0.0,0.0,0.0,0.0,0.0,0.0,0.0,0.0,0.0,0.0,0.0,0.0,0.0,2.0757,2.1493,2.1746,2.1345,2.0781,2.0366,0.0,0.0,0.0,0.0,0.0,0.0,0.0,0.0,0.0,0.0,0.0,0.0,0.0,0.0,0.0,0.0,0.0,0.0,0.0,0.0,0.0,0.0,0.0,0.0,0.0,0.0,0.0,0.0,0.0,0.0,0.0,0.0,0.0,0.0,0.0,0.0,0.0,0.0,0.0,0.0,0.0,0.0,0.0,0.0,0.0,0.0,0.0,0.0,0.0,0.0,0.0,0.0,0.0,0.0,0.0,0.0,0.0,0.0,0.0,0.0,0.0,0.0,0.0,0.0,0.0,0.0,0.0,0.0,0.0,0.0,0.0,0.0,0.0,0.0,0.0,0.0,0.0,0.0,0.0,0.0,0.0,0.0,0.0,0.0,0.0,0.0,0.0,0.0,0.0,0.0,0.0,0.0,0.0,0.0,0.0,0.0,0.0,0.0,0.0,0.0,0.0,0.0,0.0,0.0,0.0,0.0,0.0,0.0,0.0,2.0642,2.1524,2.179,2.136,2.0874,2.0463,2.0126,0.0,0.0,0.0,0.0,0.0,0.0,0.0,0.0,0.0,0.0,0.0,0.0,0.0,0.0,0.0,0.0,0.0,0.0,0.0,0.0,0.0,0.0,0.0,0.0,0.0,0.0,0.0,0.0,0.0,0.0,0.0,0.0,0.0,0.0,0.0,0.0,0.0,0.0,0.0,0.0,0.0,0.0,0.0,0.0,0.0,0.0,0.0,0.0,0.0,0.0,0.0,0.0,0.0,0.0,0.0,0.0,0.0,0.0,0.0,0.0,0.0,0.0,0.0,0.0,0.0,0.0,0.0,0.0,0.0,0.0,0.0,0.0,0.0,0.0,0.0,0.0,0.0,0.0,0.0,0.0,0.0,0.0,0.0,0.0,0.0,0.0,0.0,0.0,0.0,0.0,0.0,0.0,0.0,0.0,0.0,0.0,0.0,0.0,0.0,0.0,0.0,0.0,0.0,0.0,0.0,0.0,0.0,0.0,2.1203,2.2126,2.2304,2.1669,2.1323,2.0778,0.0,0.0,0.0,0.0,0.0,0.0,0.0,0.0,0.0,0.0,0.0,0.0,0.0,0.0,0.0,0.0,0.0,0.0,0.0,0.0,0.0,0.0,0.0,0.0,0.0,0.0,0.0,0.0,0.0,0.0,0.0,0.0,0.0,0.0,0.0,0.0,0.0,0.0,0.0,0.0,0.0,0.0,0.0,0.0,0.0,0.0,0.0,0.0,0.0,0.0,0.0,0.0,0.0,0.0,0.0,0.0,0.0,0.0,0.0,0.0,0.0,0.0,0.0,0.0,0.0,0.0,0.0,0.0,0.0,0.0,0.0,0.0,0.0,0.0,0.0,0.0,0.0,0.0,0.0,0.0,0.0,0.0,0.0,0.0,0.0,0.0,0.0,0.0,0.0,0.0,0.0,0.0,0.0,0.0,0.0,0.0,0.0,0.0,0.0,0.0,0.0,0.0,0.0,0.0,0.0,0.0,0.0,0.0,0.0,2.2398,2.2687,2.2538,2.1927,2.1397,2.1016,0.0,0.0,0.0,0.0,0.0,0.0,0.0,0.0,0.0,0.0,0.0,0.0,0.0,0.0,0.0,0.0,0.0,0.0,0.0,0.0,0.0,0.0,0.0,0.0,0.0,0.0,0.0,0.0,0.0,0.0,0.0,0.0,0.0,0.0,0.0,0.0,0.0,0.0,0.0,0.0,0.0,0.0,0.0,0.0,0.0,0.0,0.0,0.0,0.0,0.0,0.0,0.0,0.0,0.0,0.0,0.0,0.0,0.0,0.0,0.0,0.0,0.0,0.0,0.0,0.0,0.0,0.0,0.0,0.0,0.0,0.0,0.0,0.0,0.0,0.0,0.0,0.0,0.0,0.0,0.0,0.0,0.0,0.0,0.0,0.0,0.0,0.0,0.0,0.0,0.0,0.0,0.0,0.0,0.0,0.0,0.0,0.0,0.0,0.0,0.0,0.0,0.0,0.0,0.0,0.0,0.0,0.0,0.0,2.2058,2.288,2.3148,2.3121,2.2786,2.2031,2.1483,0.0,0.0,0.0,0.0,0.0,0.0,0.0,0.0,0.0,0.0,0.0,0.0,0.0,0.0,0.0,0.0,0.0,0.0,0.0,0.0,0.0,0.0,0.0,0.0,0.0,0.0,0.0,0.0,0.0,0.0,0.0,0.0,0.0,0.0,0.0,0.0,0.0,0.0,0.0,0.0,0.0,0.0,0.0,0.0,0.0,0.0,0.0,0.0,0.0,0.0,0.0,0.0,0.0,0.0,0.0,0.0,0.0,0.0,0.0,0.0,0.0,0.0,0.0,0.0,0.0,0.0,0.0,0.0,0.0,0.0,0.0,0.0,0.0,0.0,0.0,0.0,0.0,0.0,0.0,0.0,0.0,0.0,0.0,0.0,0.0,0.0,0.0,0.0,0.0,0.0,0.0,0.0,0.0,0.0,0.0,0.0,0.0,0.0,0.0,0.0,0.0,0.0,0.0,0.0,0.0,0.0,0.0,0.0,2.2605,2.3041,2.3576,2.387,2.387,2.2953,2.2084,0.0,0.0,0.0,0.0,0.0,0.0,0.0,0.0,0.0,0.0,0.0,0.0,0.0,0.0,0.0,0.0,0.0,0.0,0.0,0.0,0.0,0.0,0.0,0.0,0.0,0.0,0.0,0.0,0.0,0.0,0.0,0.0,0.0,0.0,0.0,0.0,0.0,0.0,0.0,0.0,0.0,0.0,0.0,0.0,0.0,0.0,0.0,0.0,0.0,0.0,0.0,0.0,0.0,0.0,0.0,0.0,0.0,0.0,0.0,0.0,0.0,0.0,0.0,0.0,0.0,0.0,0.0,0.0,0.0,0.0,0.0,0.0,0.0,0.0,0.0,0.0,0.0,0.0,0.0,0.0,0.0,0.0,0.0,0.0,0.0,0.0,0.0,0.0,0.0,0.0,0.0,0.0,0.0,0.0,0.0,0.0,0.0,0.0,0.0,0.0,0.0,0.0,0.0,0.0,0.0,0.0,0.0,0.0,2.2913,2.3888,2.4048,2.4222,2.4412,2.3354,2.2565,0.0,0.0,0.0,0.0,0.0,0.0,0.0,0.0,0.0,0.0,0.0,0.0,0.0,0.0,0.0,0.0,0.0,0.0,0.0,0.0,0.0,0.0,0.0,0.0,0.0,0.0,0.0,0.0,0.0,0.0,0.0,0.0,0.0,0.0,0.0,0.0,0.0,0.0,0.0,0.0,0.0,0.0,0.0,0.0,0.0,0.0,0.0,0.0,2.9272,0.0,0.0,0.0,0.0,0.0,0.0,0.0,0.0,0.0,0.0,0.0,0.0,0.0,0.0,0.0,0.0,0.0,0.0,0.0,0.0,0.0,0.0,0.0,0.0,0.0,0.0,0.0,0.0,0.0,0.0,0.0,0.0,0.0,0.0,0.0,0.0,0.0,0.0,0.0,0.0,0.0,0.0,0.0,0.0,0.0,0.0,0.0,0.0,0.0,0.0,0.0,0.0,0.0,0.0,0.0,0.0,0.0,0.0,0.0,2.314,2.4155,2.4342,2.4556,2.4783,2.3701,2.2873,0.0,0.0,0.0,0.0,0.0,0.0,0.0,0.0,0.0,0.0,0.0,0.0,0.0,0.0,0.0,0.0,0.0,0.0,0.0,0.0,0.0,0.0,0.0,0.0,0.0,0.0,0.0,0.0,0.0,0.0,0.0,0.0,0.0,0.0,0.0,0.0,0.0,0.0,0.0,0.0,0.0,0.0,0.0,0.0,0.0,0.0,0.0,0.0,0.0,0.0,0.0,0.0,0.0,0.0,0.0,0.0,0.0,0.0,0.0,0.0,0.0,0.0,0.0,0.0,0.0,0.0,0.0,0.0,0.0,0.0,0.0,0.0,0.0,0.0,0.0,0.0,0.0,0.0,0.0,0.0,0.0,0.0,0.0,0.0,0.0,0.0,0.0,0.0,0.0,0.0,0.0,0.0,0.0,0.0,0.0,0.0,0.0,0.0,0.0,0.0,0.0,0.0,0.0,0.0,0.0,0.0,0.0,2.2492,2.3367,2.4235,2.4466,2.4759,2.5117,2.4008,2.3113,2.2512,0.0,0.0,0.0,0.0,0.0,0.0,0.0,0.0,0.0,0.0,0.0,0.0,0.0,0.0,0.0,0.0,0.0,0.0,0.0,0.0,0.0,0.0,0.0,0.0,0.0,0.0,0.0,0.0,0.0,0.0,0.0,0.0,0.0,0.0,0.0,0.0,0.0,0.0,2.8663,2.8512,0.0,0.0,0.0,0.0,0.0,0.0,0.0,0.0,2.9509,0.0,0.0,0.0,0.0,0.0,0.0,0.0,0.0,0.0,0.0,0.0,0.0,0.0,0.0,0.0,0.0,0.0,0.0,0.0,0.0,0.0,0.0,0.0,0.0,0.0,0.0,0.0,0.0,0.0,0.0,0.0,0.0,0.0,0.0,0.0,0.0,0.0,0.0,0.0,0.0,0.0,0.0,0.0,0.0,0.0,0.0,0.0,0.0,0.0,0.0,0.0,0.0,0.0,0.0,0.0,0.0,2.1614,2.2672,2.3639,2.4492,2.4572,2.4853,2.5384,2.4315,2.3455,2.284,0.0,0.0,0.0,0.0,0.0,0.0,0.0,0.0,0.0,0.0,0.0,0.0,0.0,0.0,0.0,0.0,0.0,0.0,0.0,0.0,0.0,0.0,0.0,0.0,0.0,0.0,0.0,0.0,0.0,0.0,0.0,0.0,0.0,0.0,0.0,0.0,0.0,0.0,0.0,2.8068,2.799,0.0,0.0,0.0,0.0,0.0,0.0,0.0,0.0,2.9833,0.0,0.0,0.0,0.0,0.0,0.0,0.0,0.0,0.0,0.0,0.0,0.0,0.0,0.0,0.0,0.0,0.0,0.0,0.0,0.0,0.0,0.0,0.0,0.0,0.0,0.0,0.0,0.0,0.0,0.0,0.0,0.0,0.0,0.0,0.0,0.0,0.0,0.0,0.0,0.0,0.0,0.0,0.0,0.0,0.0,0.0,0.0,0.0,0.0,0.0,0.0,0.0,0.0,0.0,0.0,2.1823,2.2679,2.3594,2.4546,2.4599,2.4879,2.5464,2.4235,2.3327,0.0,0.0,0.0,0.0,0.0,0.0,0.0,0.0,0.0,0.0,0.0,0.0,0.0,0.0,0.0,0.0,0.0,0.0,0.0,0.0,0.0,0.0,0.0,0.0,0.0,0.0,0.0,0.0,0.0,0.0,0.0,0.0,0.0,0.0,0.0,0.0,0.0,0.0,0.0,0.0,2.8045,2.7672,2.7521,0.0,0.0,0.0,0.0,0.0,0.0,2.8975,2.9272,0.0,0.0,0.0,0.0,0.0,0.0,0.0,0.0,0.0,0.0,0.0,0.0,0.0,0.0,0.0,0.0,0.0,0.0,0.0,0.0,0.0,0.0,0.0,0.0,0.0,0.0,0.0,0.0,0.0,0.0,0.0,0.0,0.0,0.0,0.0,0.0,0.0,0.0,0.0,0.0,0.0,0.0,0.0,0.0,0.0,0.0,0.0,0.0,0.0,0.0,0.0,0.0,0.0,0.0,0.0,2.1977,2.2786,2.3621,2.4546,2.4719,2.4973,2.5384,2.4132,2.3273,0.0,0.0,0.0,0.0,0.0,0.0,0.0,0.0,0.0,0.0,0.0,0.0,0.0,0.0,0.0,0.0,0.0,0.0,0.0,0.0,0.0,0.0,0.0,0.0,0.0,0.0,0.0,0.0,0.0,0.0,0.0,0.0,0.0,0.0,0.0,0.0,0.0,0.0,0.0,0.0,0.0,2.7401,2.734,2.7581,0.0,0.0,0.0,0.0,2.8361,2.8349,0.0,0.0,0.0,0.0,0.0,0.0,0.0,0.0,0.0,0.0,0.0,0.0,0.0,0.0,0.0,0.0,0.0,0.0,0.0,0.0,0.0,0.0,0.0,0.0,0.0,0.0,0.0,0.0,0.0,0.0,0.0,0.0,0.0,0.0,0.0,0.0,0.0,0.0,0.0,0.0,0.0,0.0,0.0,0.0,0.0,0.0,0.0,0.0,0.0,0.0,0.0,0.0,0.0,0.0,0.0,0.0,2.2031,2.3354,2.4235,2.4599,2.5144,2.5317,2.513,2.4462,2.3581,0.0,0.0,0.0,0.0,0.0,0.0,0.0,0.0,0.0,0.0,0.0,0.0,0.0,0.0,0.0,0.0,0.0,0.0,0.0,0.0,0.0,0.0,0.0,0.0,0.0,0.0,0.0,0.0,0.0,0.0,0.0,0.0,0.0,0.0,0.0,0.0,0.0,0.0,0.0,0.0,0.0,2.6995,2.6722,2.6948,2.725,0.0,0.0,0.0,2.7672,2.7852,0.0,0.0,0.0,0.0,0.0,0.0,0.0,0.0,0.0,0.0,0.0,0.0,0.0,0.0,0.0,0.0,0.0,0.0,0.0,0.0,0.0,0.0,0.0,0.0,0.0,0.0,0.0,0.0,0.0,0.0,0.0,0.0,0.0,0.0,0.0,0.0,0.0,0.0,0.0,0.0,0.0,0.0,0.0,0.0,0.0,0.0,0.0,0.0,0.0,0.0,0.0,0.0,0.0,0.0,0.0,2.2024,2.2532,2.346,2.4262,2.4863,2.5291,2.5371,2.5115,2.4516,2.3728,0.0,0.0,0.0,0.0,0.0,0.0,0.0,0.0,0.0,0.0,0.0,0.0,0.0,0.0,0.0,0.0,0.0,0.0,0.0,0.0,0.0,0.0,0.0,0.0,0.0,0.0,0.0,0.0,0.0,0.0,0.0,0.0,0.0,0.0,0.0,0.0,0.0,0.0,0.0,0.0,0.0,0.0,2.7252,2.7131,0.0,0.0,0.0,2.7052,2.674,0.0,0.0,0.0,0.0,0.0,0.0,0.0,0.0,0.0,0.0,0.0,0.0,0.0,0.0,0.0,0.0,0.0,0.0,0.0,0.0,0.0,0.0,0.0,0.0,0.0,0.0,0.0,0.0,0.0,0.0,0.0,0.0,0.0,0.0,0.0,0.0,0.0,0.0,0.0,0.0,0.0,0.0,0.0,0.0,0.0,0.0,0.0,0.0,0.0,0.0,0.0,0.0,0.0,0.0,0.0,0.0,0.0,2.3,2.3647,2.4419,2.517,2.5545,2.5518,2.509,2.4583,0.0,0.0,0.0,0.0,0.0,0.0,0.0,0.0,0.0,0.0,0.0,0.0,0.0,0.0,0.0,0.0,0.0,0.0,0.0,0.0,0.0,0.0,0.0,0.0,0.0,0.0,0.0,2.0345,0.0,0.0,0.0,0.0,0.0,0.0,0.0,0.0,0.0,0.0,0.0,0.0,0.0,0.0,2.7274,2.7392,2.7014,2.6647,0.0,0.0,2.6024,2.5864,2.5516,2.5376,0.0,0.0,0.0,0.0,0.0,0.0,0.0,0.0,0.0,0.0,0.0,0.0,0.0,0.0,0.0,0.0,0.0,0.0,0.0,0.0,0.0,0.0,0.0,0.0,0.0,0.0,0.0,0.0,0.0,0.0,0.0,0.0,0.0,0.0,0.0,0.0,0.0,0.0,0.0,0.0,0.0,0.0,0.0,0.0,0.0,0.0,0.0,0.0,0.0,0.0,0.0,0.0,0.0,0.0,0.0,2.3252,2.4106,2.4863,2.5478,2.6039,2.5932,2.5117,2.4783,2.4026,0.0,0.0,0.0,0.0,0.0,0.0,0.0,0.0,0.0,0.0,0.0,0.0,0.0,0.0,0.0,0.0,0.0,0.0,0.0,0.0,0.0,0.0,0.0,0.0,0.0,0.0,0.0,0.0,0.0,0.0,0.0,0.0,0.0,0.0,0.0,0.0,0.0,0.0,0.0,0.0,0.0,2.6336,2.663,2.612,2.5799,0.0,0.0,2.5107,2.509,2.4769,2.4473,2.4205,0.0,0.0,0.0,0.0,0.0,0.0,0.0,0.0,0.0,0.0,0.0,0.0,0.0,0.0,0.0,0.0,0.0,0.0,0.0,0.0,0.0,0.0,0.0,0.0,0.0,0.0,0.0,0.0,0.0,0.0,0.0,0.0,0.0,0.0,0.0,0.0,0.0,0.0,0.0,0.0,0.0,0.0,0.0,0.0,0.0,0.0,0.0,0.0,0.0,0.0,0.0,0.0,0.0,2.2699,2.3594,2.4252,2.501,2.5797,2.6186,2.6052,2.5371,2.4853,2.4262,0.0,0.0,0.0,0.0,0.0,0.0,0.0,0.0,0.0,0.0,0.0,0.0,0.0,0.0,0.0,0.0,0.0,0.0,0.0,0.0,0.0,0.0,0.0,0.0,0.0,0.0,0.0,0.0,2.1149,2.1469,2.2047,0.0,0.0,0.0,0.0,0.0,0.0,0.0,0.0,0.0,0.0,2.6116,2.6265,2.5652,0.0,0.0,2.493,2.4627,2.4627,2.4166,2.3733,2.345,2.3464,0.0,0.0,0.0,0.0,0.0,0.0,0.0,0.0,0.0,0.0,0.0,0.0,0.0,0.0,0.0,0.0,0.0,0.0,0.0,0.0,0.0,0.0,0.0,0.0,0.0,0.0,0.0,0.0,0.0,0.0,0.0,0.0,0.0,0.0,0.0,0.0,0.0,0.0,0.0,0.0,0.0,0.0,0.0,0.0,0.0,0.0,0.0,0.0,0.0,0.0,0.0,0.0,2.2993,2.4191,2.4649,2.5331,2.6238,2.6507,2.6373,2.5785,2.5173,2.4583,0.0,0.0,0.0,0.0,0.0,0.0,0.0,0.0,0.0,0.0,0.0,0.0,0.0,0.0,0.0,0.0,0.0,0.0,0.0,0.0,0.0,0.0,0.0,0.0,0.0,0.0,0.0,0.0,2.1303,2.1579,2.1928,0.0,0.0,0.0,0.0,0.0,0.0,0.0,0.0,0.0,0.0,2.5484,2.5685,2.5217,2.4856,2.488,2.4589,2.4344,2.4379,2.3797,2.329,2.2993,0.0,0.0,0.0,0.0,0.0,0.0,0.0,0.0,0.0,0.0,0.0,0.0,0.0,0.0,0.0,0.0,0.0,0.0,0.0,0.0,0.0,0.0,0.0,0.0,0.0,0.0,0.0,0.0,0.0,0.0,0.0,0.0,0.0,0.0,0.0,0.0,0.0,0.0,0.0,0.0,0.0,0.0,0.0,0.0,0.0,0.0,0.0,0.0,0.0,0.0,0.0,0.0,0.0,2.33,2.501,2.5317,2.5905,2.6774,2.7094,2.6961,2.6386,2.5798,2.509,2.4209,0.0,0.0,0.0,0.0,0.0,0.0,0.0,0.0,0.0,0.0,0.0,0.0,0.0,0.0,0.0,0.0,0.0,0.0,0.0,0.0,0.0,0.0,0.0,0.0,0.0,0.0,2.1096,2.1109,2.1248,0.0,0.0,0.0,0.0,0.0,0.0,0.0,0.0,0.0,0.0,2.4256,2.4252,2.4868,2.4642,2.4477,2.4749,2.4522,2.4287,2.4287,2.376,2.322,0.0,0.0,0.0,0.0,0.0,0.0,0.0,0.0,0.0,0.0,0.0,0.0,0.0,0.0,0.0,0.0,0.0,0.0,0.0,0.0,0.0,0.0,0.0,0.0,0.0,0.0,0.0,2.2838,2.2859,0.0,0.0,0.0,0.0,0.0,0.0,0.0,0.0,0.0,0.0,0.0,2.2177,2.2531,0.0,0.0,0.0,0.0,0.0,0.0,0.0,0.0,0.0,0.0,0.0,0.0,2.3901,2.5037,2.5371,2.6039,2.7081,2.7215,2.7215,2.7015,2.6213,2.5248,2.3991,0.0,0.0,0.0,0.0,0.0,0.0,0.0,0.0,0.0,0.0,0.0,0.0,0.0,0.0,0.0,0.0,0.0,0.0,0.0,0.0,0.0,0.0,0.0,0.0,0.0,2.1435,0.0,0.0,0.0,0.0,0.0,0.0,0.0,0.0,0.0,0.0,0.0,2.3781,2.4059,2.4014,2.4053,2.4434,2.4208,2.4105,0.0,0.0,0.0,0.0,0.0,0.0,0.0,0.0,0.0,0.0,0.0,0.0,0.0,0.0,2.3468,2.2813,2.2664,2.2695,2.2772,0.0,0.0,0.0,0.0,0.0,0.0,0.0,0.0,0.0,0.0,0.0,0.0,0.0,0.0,0.0,0.0,2.3143,0.0,0.0,0.0,0.0,0.0,0.0,0.0,0.0,2.2212,2.2226,2.2445,2.2572,2.281,0.0,2.3424,2.3606,0.0,0.0,0.0,0.0,0.0,0.0,0.0,0.0,2.47,2.5543,2.5919,2.6547,2.7375,2.7563,2.7563,2.7443,2.6412,2.5342,2.4298,2.3964,2.3522,0.0,0.0,0.0,0.0,0.0,0.0,0.0,0.0,0.0,0.0,0.0,0.0,0.0,0.0,0.0,0.0,0.0,0.0,0.0,0.0,0.0,0.0,0.0,2.189,0.0,0.0,0.0,0.0,0.0,0.0,0.0,0.0,0.0,2.2973,2.3343,2.3687,2.3846,2.3864,2.3955,2.4232,0.0,0.0,0.0,0.0,0.0,0.0,0.0,2.4409,2.4128,2.3879,2.3714,2.3514,2.3647,2.3745,2.3745,0.0,0.0,2.2917,2.2957,2.312,2.3215,2.354,2.3963,2.438,2.4457,2.4512,0.0,0.0,0.0,0.0,0.0,0.0,0.0,0.0,2.3427,2.3427,0.0,2.3427,0.0,0.0,0.0,0.0,0.0,0.0,0.0,0.0,2.1976,2.2071,2.2941,2.2561,2.259,2.3085,2.3435,2.3624,2.3604,2.3178,0.0,0.0,0.0,0.0,0.0,0.0,2.5506,2.6373,2.6934,2.7415,2.7749,2.8058,2.8045,2.7655,2.6306,2.5424,2.5077,2.4298,2.3576,2.3,2.3482,0.0,0.0,0.0,0.0,0.0,0.0,0.0,0.0,0.0,0.0,0.0,0.0,0.0,0.0,0.0,0.0,0.0,0.0,0.0,0.0,2.2144,0.0,0.0,0.0,0.0,0.0,0.0,0.0,0.0,0.0,0.0,2.3008,2.3455,2.3817,2.383,0.0,0.0,0.0,0.0,2.4719,2.505,2.5331,2.5598,2.5904,2.5489,2.5184,2.5438,0.0,0.0,2.4639,2.4639,2.4666,2.4653,2.4679,2.4386,2.3607,2.3834,2.4111,2.391,2.4285,2.4599,2.4676,2.474,2.4753,2.534,0.0,0.0,0.0,0.0,2.4204,2.3969,2.3617,2.3617,2.3617,2.3617,2.3617,0.0,0.0,0.0,0.0,0.0,0.0,2.2636,2.2467,2.1449,2.1264,2.1715,2.1545,2.1758,2.2266,2.2514,2.2567,2.2392,2.2107,2.2296,2.2983,0.0,0.0,0.0,0.0,2.5425,2.6749,2.7,2.7601,2.8601,2.8537,2.8165,2.7443,2.6787,2.6119,2.5411,2.4743,2.4315,2.4092,2.3688,0.0,0.0,0.0,0.0,0.0,0.0,0.0,0.0,0.0,0.0,0.0,0.0,0.0,0.0,0.0,0.0,0.0,0.0,0.0,2.2505,2.2832,2.3025,0.0,0.0,0.0,0.0,0.0,0.0,0.0,0.0,0.0,2.4102,2.4088,2.4155,0.0,0.0,2.4847,2.509,2.5211,2.5291,2.5371,0.0,0.0,0.0,2.5491,2.5411,2.5504,2.5545,2.5623,2.5585,2.5745,2.5892,2.5879,2.5892,2.5798,2.5545,2.493,2.4609,2.469,2.501,2.5331,2.5569,2.5732,2.5879,2.5616,2.542,2.4984,2.462,2.4311,2.4066,2.3845,2.3578,2.3349,2.3278,2.3328,2.3267,2.3221,2.3221,2.3221,0.0,0.0,0.0,2.2001,2.1682,2.0768,2.0636,2.1062,2.0884,2.1062,2.1541,2.1676,2.1642,2.1551,2.1279,2.1492,2.2237,0.0,0.0,2.3965,2.4575,2.5384,2.6457,2.6821,2.7341,2.8147,2.8277,2.8082,2.7552,2.7039,2.6573,2.6052,2.532,2.4839,2.4599,2.4212,2.4075,0.0,0.0,0.0,0.0,0.0,0.0,0.0,0.0,0.0,0.0,0.0,2.1997,2.2138,0.0,0.0,0.0,2.2645,2.3126,2.3527,2.3834,0.0,0.0,0.0,0.0,0.0,0.0,0.0,2.4102,2.4369,2.4663,2.4906,2.493,2.4917,2.497,2.5144,2.5317,2.5491,0.0,2.5865,2.5865,2.6066,2.6253,2.636,2.6279,2.6213,2.6213,2.6399,2.6519,2.6519,2.6667,2.6774,2.6734,2.6734,2.6774,2.6881,2.6319,2.5773,2.5785,2.6012,2.6293,2.6626,2.6787,2.6974,2.5364,2.4902,2.4485,2.4238,2.414,2.3665,2.3431,2.3348,2.2694,2.2497,2.2643,2.2499,2.2393,2.2393,2.2382,0.0,2.1407,2.1383,2.1128,2.0611,2.0125,2.028,2.0881,2.0406,2.0453,2.0862,2.0844,2.0844,2.0797,2.052,2.0418,2.0527,2.1851,2.2951,2.3774,2.4682,2.5318,2.5635,2.637,2.6788,2.6827,2.7518,2.7827,2.7684,2.7098,2.6733,2.664,2.5908,2.5202,2.4682,2.4933,2.49,2.4315,0.0,0.0,0.0,0.0,0.0,0.0,0.0,0.0,0.0,0.0,0.0,0.0,0.0,0.0,0.0,2.3348,0.0,2.4509,2.4866,0.0,0.0,0.0,2.4562,2.4332,2.4306,2.4449,2.4703,0.0,0.0,0.0,0.0,2.5931,2.5651,2.5611,2.5625,2.5573,2.6119,2.6453,2.6466,2.6934,2.7376,2.7428,2.7321,2.7202,2.7188,2.7336,2.7362,2.7376,2.7415,2.7415,2.7442,2.7415,2.7495,2.7762,2.7749,2.7642,2.7054,2.7188,2.7483,2.7669,2.7776,2.7883,2.4071,2.3598,2.2804,2.2754,2.3206,2.3014,2.2673,2.2304,2.1748,2.1527,2.1556,2.1399,2.1348,2.1338,2.1338,2.1317,2.1251,2.1086,2.1018,2.0924,2.0268,2.0016,2.0156,1.967,1.9483,1.9564,1.943,1.9315,1.9298,1.8934,1.8963,1.9406,1.997,2.1058,2.2522,2.3463,2.4351,2.5138,2.5342,2.5638,2.6086,2.7189,2.7253,2.6255,2.6396,2.6167,2.5524,2.5414,2.5164,2.4875,2.5181,2.5251,2.489,2.4602,0.0,0.0,0.0,0.0,0.0,0.0,0.0,0.0,0.0,2.3172,2.3469,0.0,2.338,0.0,2.3884,2.414,2.4116,2.4404,0.0,0.0,2.4802,2.5099,2.5033,2.5353,2.561,2.5677,2.5504,2.5518,2.585,2.6145,2.6346,2.644,2.6467,2.6507,2.652,2.6814,2.7095,2.7108,2.7188,2.7336,2.7388,2.7362,2.7336,2.7309,2.7684,2.7965,2.7978,2.8323,2.8575,2.8575,2.8575,2.8601,2.8641,2.8668,2.8628,2.8481,2.8404,2.8297,2.839,2.8521,2.8695,2.3052,2.25,2.203,2.1916,2.2086,2.1943,2.183,2.164,2.1116,2.0924,2.0996,2.0896,2.0842,2.089,2.089,2.0855,2.0764,2.0434,2.019,2.0139,1.9493,1.9133,1.9083,1.8833,1.8691,1.8633,1.8532,1.8485,1.8477,1.8299,1.8304,1.8638,1.9279,2.0088,2.1019,2.2038,2.2887,2.3494,2.3973,2.4409,2.4876,2.574,2.5982,2.5457,2.5434,2.5234,2.4739,2.4873,2.4838,2.4574,2.484,2.4881,2.4611,2.4303,2.3934,0.0,0.0,0.0,0.0,0.0,0.0,0.0,0.0,0.0,0.0,0.0,2.3716,0.0,2.4238,0.0,2.4482,2.4649,2.4624,2.4456,2.479,2.4998,2.483,2.5166,2.5453,2.5583,2.5531,2.5623,2.591,2.608,2.6236,2.6393,2.6524,2.6713,2.6986,2.7268,2.7455,2.7455,2.741,2.7335,2.7286,2.7333,2.7425,2.7451,2.7728,2.7938,2.7951,2.8156,2.8391,2.8391,2.8391,2.843,2.8548,2.853,2.8639,2.8874,2.8835,2.8815,2.8971,2.9125,2.9259,2.2191,2.1695,2.1586,2.1277,2.0825,2.0681,2.0826,2.1218,2.0755,2.0548,2.0628,2.057,2.052,2.0421,2.0421,2.0333,2.0057,1.9521,1.9154,1.897,1.8458,1.8144,1.81,1.8115,1.8063,1.799,1.799,1.7968,1.7931,1.7931,1.7917,1.7953,1.892,1.9378,1.9447,2.0407,2.1078,2.1531,2.2422,2.3036,2.3255,2.3913,2.4371,2.4699,2.4344,2.4082,2.4005,2.4145,2.4092,2.3838,2.4057,2.4123,2.383,2.3495,2.3193,0.0,2.2808,0.0,0.0,0.0,0.0,0.0,0.0,0.0,0.0,2.3478,2.3719,2.415,2.4455,2.4709,2.4934,2.496,2.4884,2.4667,2.4681,2.4632,2.4364,2.4619,2.4952,2.5166,2.5407,2.5649,2.5852,2.5941,2.5966,2.6033,2.6319,2.6684,2.715,2.7422,2.7513,2.7622,2.7564,2.7443,2.7349,2.7432,2.7571,2.7566,2.7635,2.7655,2.7686,2.7737,2.7775,2.7775,2.7832,2.7864,2.8074,2.8169,2.8335,2.8851,2.8973,2.906,2.9301,2.9419,2.9561,2.1768,2.0926,2.0509,1.9967,1.9397,1.9022,1.9745,2.1097,2.0741,2.0231,1.9652,1.9652,1.9394,1.8988,1.8988,1.902,1.906,1.8879,1.8798,1.8918,1.8806,1.849,1.803,1.8198,1.7925,1.739,1.7383,1.7259,1.6965,1.6965,1.6896,1.683,1.7443,1.7749,1.78,0.0,0.0,0.0,2.1168,2.1254,2.1009,2.256,2.32,2.2701,2.3049,0.0,2.2385,2.2686,2.2682,2.2305,2.3007,0.0,0.0,0.0,0.0,0.0,0.0,0.0,0.0,0.0,0.0,0.0,2.2008,2.2338,2.3448,2.3883,2.4087,2.4175,2.4239,2.4275,2.4211,2.4197,2.4227,2.4275,2.4606,2.4923,2.5085,2.5432,2.5699,2.575,2.5801,2.5811,2.5846,2.6106,2.6258,2.6242,2.6541,2.6855,2.7106,2.7063,2.705,2.7268,2.7396,2.7526,2.7502,2.7491,2.7479,2.7617,2.7807,2.7877,2.7858,2.808,2.8264,2.8207,2.8322,2.8353,2.862,2.8729,2.8681,2.9115,2.9178,2.9246,2.9315,2.9335,2.9361,2.0665,0.0,1.9662,1.9353,0.0,1.9016,1.9448,2.0097,1.9668,1.9336,1.9022,1.9189,1.9107,1.8841,1.8849,1.8886,1.8907,1.8606,1.8507,1.8587,1.832,1.7999,1.7739,1.7815,1.7647,1.7304,1.7304,1.7229,1.7027,1.6953,1.6931,1.6849,1.73,1.7576,1.7524,1.7834,1.8327,1.9149,1.994,2.0166,1.9804,2.1012,2.1518,2.1038,0.0,0.0,0.0,0.0,0.0,0.0,0.0,0.0,0.0,0.0,0.0,2.0406,2.0354,2.0395,2.0549,2.0416,2.0559,2.0978,2.1212,2.1886,2.3158,2.3544,2.3748,2.3748,2.3748,2.3728,2.3658,2.3629,2.3667,2.3751,2.3951,2.4175,2.4323,2.4471,2.4656,2.4806,2.48,2.4878,2.5011,2.5132,2.5319,2.5397,2.553,2.5711,2.6028,2.6617,2.6972,2.676,2.6682,2.6645,2.648,2.6556,2.6616,2.6641,2.6737,2.681,2.6822,2.693,2.7072,2.7072,2.7123,2.728,2.7389,2.7522,2.7703,2.7932,2.8005,2.8053,2.8197,2.8902,2.9505,1.9684,1.9176,1.9038,1.8955,1.9002,1.9158,1.9082,1.8833,0.0,0.0,0.0,1.8837,1.8916,1.8862,1.8899,1.8906,1.8852,1.8384,1.8154,1.8154,1.7676,1.746,1.746,1.7487,1.7487,1.746,1.746,1.7446,1.7419,1.729,1.7229,1.7276,1.7583,1.7738,1.7738,1.7738,1.7756,1.78,1.8783,1.9173,1.8906,1.9524,1.9758,1.9574,1.8995,1.8435,1.7901,1.8496,1.8812,1.876,1.9318,1.9671,1.9709,1.9495,1.9255,1.9025,1.8973,1.8973,1.8983,1.8973,1.9194,1.9625,2.0413,2.1421,2.2643,2.2947,2.3071,2.3071,2.3071,2.306,2.3071,2.3071,2.3083,2.3128,2.3139,2.315,2.3196,2.3207,2.3339,2.3467,2.3543,2.3611,2.3835,2.3914,2.3973,2.4111,2.4234,2.4326,2.4706,2.5846,2.6486,2.5946,2.575,2.5521,2.5184,2.5218,2.532,2.5332,2.5354,2.5332,2.5332,2.5332,2.5343,2.5514,2.5534,2.5681,2.5748,2.6022,2.6178,2.6416,2.6472,2.6529,2.6843,2.7985,2.8901,1.9747,1.9496,1.8864,1.851,1.8388,1.7899,1.7751,1.7867,1.8689,1.883,1.8331,1.851,1.8324,1.7841,1.7964,1.8074,1.8067,1.7786,1.7725,0.0,1.7616,1.7561,1.7568,1.7745,1.7738,1.7568,1.7561,1.7494,1.7433,1.7399,1.7392,1.7385,1.7418,1.7459,1.7465,1.7465,1.7485,1.747,1.768,1.7711,1.7589,1.826,1.8516,1.8192,1.818,1.7935,1.7331,1.7457,1.7376,1.7012,1.7337,1.7609,1.7845,1.7854,1.7888,1.8079,1.8062,1.8104,1.807,1.8062,1.8273,1.8696,1.9354,2.0393,2.1891,2.2068,2.209,2.209,2.207,2.209,2.209,2.207,2.2167,2.2393,2.2457,2.2533,2.2686,2.2718,2.2729,2.2772,2.2848,2.2826,2.2848,2.3,2.3075,2.3184,2.3257,2.3518,2.3848,2.4789,2.5181,2.4834,2.48,2.4706,2.425,2.4237,2.4223,2.4315,2.4269,2.4178,2.4178,2.4199,2.4275,2.4505,2.4509,2.4718,2.5031,2.5209,2.5291,2.5437,2.548,2.5561,2.5615,2.608,2.6632,1.9295,1.8895,1.8538,1.8309,1.8156,1.7725,1.7629,1.78,1.8146,1.8283,1.8232,1.833,1.8232,1.8023,1.8077,1.8111,1.8104,1.8043,1.8016,1.7953,1.7953,1.7913,1.7901,1.7962,1.7907,1.7772,1.7765,1.7731,1.7656,1.7527,1.7494,1.7541,1.7467,1.7419,1.7419,1.7419,1.7419,1.7412,1.7611,1.7701,1.7597,1.7964,1.7878,1.7343,1.7174,1.678,1.615,1.6338,1.6303,1.5949,1.6324,1.6606,1.6706,1.6742,1.6791,1.6985,1.6933,1.6933,1.6977,1.7461,1.7944,1.8383,1.8902,1.9526,2.0264,2.0647,2.0808,2.0808,2.0808,2.0808,2.0808,2.0808,2.0898,2.1128,2.1149,2.1239,2.1385,2.1469,2.1469,2.1469,2.1425,2.1425,2.1469,2.156,2.168,2.179,2.1991,2.2171,2.2262,2.2693,2.315,2.3343,2.3325,2.301,2.2616,2.2478,2.2478,2.2478,2.2478,2.2478,2.2488,2.2559,2.2699,2.2773,2.2954,2.3137,2.3415,2.3573,2.3684,2.3754,2.3805,2.3805,2.3825,2.3944,2.4536,1.8815,1.8423,1.8423,1.8335,1.8172,1.7859,1.786,1.7948,1.7798,1.7928,1.8138,1.8233,1.8267,1.8274,1.8301,1.8314,1.8321,1.8321,1.8314,1.8321,1.8321,1.8253,1.8152,1.8145,1.8084,1.7975,1.7962,1.8024,1.7955,1.7853,1.7744,1.7737,1.7677,1.7623,1.7623,1.7589,1.7568,1.7561,1.7787,1.7798,1.7601,1.766,1.7415,1.6814,1.639,1.5917,1.5384,1.5535,1.5568,1.5455,1.5727,1.5935,1.6072,1.6072,1.6118,1.6255,1.6255,1.6255,1.6346,1.6902,1.7478,1.7849,1.8163,1.8364,1.8383,1.8769,1.9244,1.9596,1.9736,1.9727,1.9727,1.9736,1.9758,1.9915,1.9934,2.0025,2.0075,2.0067,2.0112,2.0067,2.0067,2.0103,2.0076,2.0158,2.0305,2.0555,2.0686,2.077,2.077,2.077,2.1094,2.1463,2.1648,2.1417,2.0908,2.0816,2.0862,2.077,2.0816,2.0899,2.0946,2.0992,2.1141,2.1281,2.1475,2.1728,2.1763,2.1933,2.2075,2.2152,2.2142,2.2093,2.2142,2.2152,2.262,1.8773,1.8779,1.8715,1.8633,1.8477,1.8321,1.826,1.8274,1.826,1.8267,1.8308,1.8172,1.8138,1.8131,1.8274,1.8335,1.8335,1.8321,1.8328,1.8328,1.8321,1.8314,1.8301,1.8301,1.8287,1.8267,1.826,1.8247,1.8247,1.824,1.8247,1.826,1.8247,1.8213,1.8206,1.8091,1.8023,1.8023,1.767,1.7316,1.7104,1.7095,1.6876,1.635,1.6216,1.6046,1.5833,1.5568,1.5411,1.5391,1.5356,1.5468,1.5849,1.5943,1.6083,1.6511,1.6558,1.6558,1.6543,1.6502,1.6573,1.6543,1.6575,1.6545,1.6583,1.6545,1.7275,1.8592,1.9087,1.8962,1.9078,1.9007,1.8962,1.896,1.9014,1.9113,1.9058,1.9131,1.9131,1.9131,1.9084,1.914,1.9102,1.9216,1.9474,1.9578,1.9593,1.9637,1.9654,1.9701,1.957,1.9552,1.9907,2.0232,1.9907,1.9805,1.9666,1.9712,1.9759,1.9736,1.9756,1.99,2.01,2.0141,2.0452,2.0566,2.072,2.0915,2.0866,2.0727,2.0776,2.0875,2.0924,2.0875,2.1362,1.8875,1.8898,1.8898,1.8864,1.8782,1.8647,1.8586,1.8586,1.8681,1.8715,1.8721,1.8735,1.8606,1.8369,1.8511,1.8579,1.8579,1.8579,1.8579,1.8579,1.8579,1.8531,1.845,1.8443,1.8403,1.8321,1.8321,1.8321,1.8321,1.8321,1.8321,1.8321,1.8321,1.8321,1.8314,1.826,1.8226,1.8219,1.7955,1.7711,1.7473,1.7066,1.6702,1.6527,1.6422,1.6273,1.6123,1.5913,1.5764,1.5676,1.5533,1.55,1.5691,1.5739,1.5786,1.5984,1.6032,1.6168,1.6455,1.6437,1.6543,1.678,1.6721,1.6731,1.6723,1.6684,1.7053,1.7624,1.757,1.7323,1.7331,1.7323,1.7317,1.7405,1.7437,1.7514,1.7618,1.768,1.7634,1.7634,1.7634,1.7672,1.7642,1.7744,1.7816,1.7927,1.7943,1.803,1.8024,1.8056,1.801,1.7891,1.8175,1.8337,1.8302,1.8083,1.7989,1.7943,1.7943,1.796,1.8183,1.8272,1.8408,1.8704,1.8906,1.8995,1.887,1.8952,1.8952,1.905,1.9001,1.8952,1.8952,1.8952,1.9199,1.8945,1.904,1.9047,1.9074,1.9094,1.8945,1.8864,1.8837,1.8945,1.8966,1.8945,1.9081,1.8966,1.8708,1.8816,1.8943,1.8884,1.8884,1.8884,1.8884,1.8943,1.8823,1.8721,1.8715,1.866,1.8579,1.8572,1.8565,1.8559,1.8559,1.8559,1.8559,1.8525,1.8504,1.8491,1.8396,1.8321,1.8294,1.8097,1.7914,1.7731,1.7236,1.6858,1.6804,1.6628,1.6537,1.6435,1.6286,1.6151,1.6042,1.5934,1.583,1.5837,1.583,1.583,1.583,1.583,1.6006,1.6363,1.6314,1.6466,1.6715,1.6727,1.6698,1.6698,1.6698,1.6698,1.6647,1.6318,1.6163,1.6365,1.6328,1.6404,1.6515,1.65,1.6562,1.6698,1.6673,1.6759,1.6673,1.683,1.6673,1.672,1.6759,1.686,1.6814,1.6819,1.6778,1.6857,1.7012,1.7046,1.7062,1.6973,1.6942,1.7162,1.7125,1.6743,1.6748,1.6904,1.7026,1.6961,1.718,1.7348,1.809,1.7753,1.7756,1.8061,1.792,1.7722,1.7722,1.7722,1.7771,1.797,1.7771,1.7771,1.9189,1.9189,1.9196,1.9271,1.9333,1.9237,1.9101,1.8979,1.8993,1.8918,1.8895,1.8952,1.8993,1.8972,1.9094,1.9176,1.9169,1.9162,1.9156,1.9156,1.9156,1.9169,1.9169,1.9169,1.9149,1.9067,1.9074,1.9094,1.9122,1.9128,1.9162,1.9135,1.8993,1.8945,1.8891,1.8559,1.8335,1.8328,1.7975,1.7649,1.7609,1.744,1.7304,1.7148,1.6838,1.6689,1.6655,1.6578,1.649,1.6439,1.6449,1.6456,1.6463,1.6456,1.6391,1.6449,1.6456,1.6402,1.6316,1.6237,1.6107,1.602,1.5959,1.5711,1.5849,1.5883,1.5877,1.5745,1.576,1.6049,1.6748,1.6689,1.667,1.6733,1.6669,1.6609,1.6634,1.6563,1.6681,1.6627,1.6587,1.654,1.6627,1.6673,1.6595,1.6624,1.6721,1.6784,1.6796,1.694,1.698,1.6913,1.6746,1.6529,1.6806,1.6663,1.6673,1.6623,1.6569,1.6866,1.7184,1.7419,1.7459,1.7533,1.7437,1.7466,1.7623,1.7623,1.7573,1.7474,1.7474,1.7474,1.7325,1.7573,1.7538,1.9257,1.9345,1.9345,1.9379,1.9413,1.9264,1.9176,1.9128,1.9128,1.9094,1.9061,1.9101,1.9128,1.9128,1.9176,1.9203,1.9203,1.9203,1.9203,1.9189,1.9108,1.9067,1.9067,1.9067,1.9067,1.9081,1.9162,1.9203,1.9189,1.9115,1.9115,1.9189,1.9156,1.9128,1.9094,1.8966,1.8843,1.8721,1.8389,1.8116,1.7981,1.769,1.744,1.7338,1.7141,1.6992,1.6904,1.6748,1.6615,1.6615,1.6578,1.6517,1.6517,1.6517,1.6517,1.6517,1.6517,1.6497,1.6449,1.6395,1.6341,1.6279,1.6151,1.6056,1.6049,1.5981,1.592,1.592,1.592,1.6166,1.6265,1.6237,1.6083,1.6076,1.6034,1.5997,1.5872,1.5891,1.5856,1.5772,1.5744,1.5744,1.5791,1.5744,1.5786,1.583,1.59,1.606,1.6229,1.6328,1.6384,1.6412,1.6272,1.6098,1.6202,1.6104,1.6027,1.6007,1.6063,1.6181,1.6433,1.6545,1.6616,1.6765,1.6821,1.6878,1.6878,1.6878,1.6878,1.6828,1.6828,1.6928,1.6679,1.6899,1.6899,1.9366,1.9488,1.9454,1.9461,1.9481,1.9339,1.9305,1.9339,1.9298,1.9305,1.9339,1.9345,1.9352,1.9352,1.9345,1.9352,1.9345,1.9298,1.9278,1.9271,1.923,1.921,1.9203,1.921,1.9203,1.9223,1.9298,1.9352,1.9332,1.9203,1.9217,1.9345,1.9257,1.923,1.925,1.9183,1.9061,1.8891,1.866,1.8437,1.8233,1.7955,1.7642,1.7514,1.7392,1.7222,1.6992,1.6876,1.6822,1.6809,1.672,1.6673,1.6673,1.6673,1.6673,1.6673,1.6673,1.6639,1.6605,1.6547,1.652,1.6524,1.6435,1.6381,1.6368,1.6239,1.6164,1.6151,1.6103,1.6133,1.6098,1.59,1.5764,1.5716,1.5621,1.5553,1.5451,1.5486,1.5411,1.5343,1.5363,1.5289,1.5201,1.5282,1.535,1.5404,1.5479,1.5697,1.5854,1.5956,1.6003,1.6098,1.6087,1.6032,1.6103,1.6063,1.5904,1.5911,1.5904,1.5882,1.5852,1.5942,1.599,1.6092,1.6133,1.6133,1.6133,1.6133,1.6133,1.6133,1.6232,1.6431,1.6302,1.6237,1.6412,1.9529,1.9637,1.9495,1.9535,1.9691,1.9495,1.9515,1.9576,1.9474,1.9468,1.9535,1.9664,1.9623,1.961,1.9609,1.9671,1.9556,1.9468,1.9434,1.9434,1.9535,1.959,1.9583,1.9623,1.959,1.9677,1.9705,1.9657,1.9651,1.9515,1.9508,1.9583,1.9386,1.9339,1.9367,1.9189,1.8952,1.8796,1.864,1.8409,1.8131,1.8077,1.7921,1.7622,1.7568,1.7426,1.7026,1.6992,1.6985,1.6978,1.6965,1.6971,1.6937,1.6937,1.6958,1.6937,1.6958,1.6897,1.6723,1.6696,1.6642,1.6547,1.6486,1.6524,1.6503,1.6395,1.6307,1.6293,1.6198,1.616,1.6123,1.6096,1.6022,1.5922,1.5764,1.5634,1.5649,1.5587,1.5533,1.5445,1.5411,1.5343,1.5269,1.5323,1.5432,1.5499,1.5704,1.5867,1.5935,1.603,1.6056,1.6076,1.6105,1.6078,1.6098,1.6112,1.6017,1.5949,1.5978,1.5949,1.6017,1.6064,1.6058,1.6133,1.6133,1.6133,1.6133,1.6133,1.6133,1.6133,1.6133,1.616,1.6157,1.6218,1.6307,1.9766,1.98,1.9759,1.9759,1.9848,1.9651,1.9563,1.9501,1.9447,1.94,1.9352,1.9345,1.9345,1.9352,1.9345,1.9359,1.9359,1.9495,1.959,1.959,1.9542,1.9522,1.9522,1.9508,1.961,1.9773,1.9807,1.9861,1.9915,1.9807,1.9813,1.9895,1.9759,1.9637,1.9576,1.9386,1.9176,1.8932,1.8769,1.8586,1.8389,1.8192,1.7996,1.7812,1.7649,1.7473,1.7297,1.7182,1.7127,1.7127,1.7032,1.6978,1.6985,1.6978,1.6978,1.6978,1.6978,1.6971,1.6924,1.6904,1.6883,1.6822,1.6741,1.6635,1.6615,1.6544,1.6463,1.6456,1.6408,1.6388,1.6381,1.6381,1.6266,1.6035,1.5967,1.5893,1.5791,1.5703,1.558,1.5533,1.5567,1.554,1.5465,1.5506,1.5601,1.5683,1.5847,1.5935,1.6037,1.6035,1.6076,1.6133,1.6133,1.6133,1.6133,1.6133,1.6085,1.6037,1.6024,1.6017,1.6092,1.6133,1.6133,1.6133,1.6133,1.6133,1.6133,1.6133,1.6133,1.6173,1.6164,1.6205,1.6246,1.6334,1.6442,1.9908,1.9956,1.9956,1.9956,1.9942,1.98,1.9725,1.9671,1.9617,1.9569,1.9542,1.9542,1.9535,1.9535,1.9535,1.9535,1.9563,1.9746,1.9827,1.9813,1.9732,1.9678,1.9678,1.9678,1.9759,1.9922,1.9956,2.0003,2.0092,1.9956,1.9949,2.0051,1.9949,1.9827,1.98,1.9637,1.9427,1.9108,1.8972,1.8796,1.8552,1.8348,1.8158,1.7968,1.786,1.7738,1.7589,1.7439,1.7338,1.7277,1.7188,1.7148,1.7148,1.7148,1.7148,1.7134,1.7093,1.706,1.706,1.7005,1.6978,1.6958,1.689,1.679,1.6757,1.6642,1.656,1.6554,1.6544,1.6517,1.6517,1.6517,1.6429,1.6273,1.6191,1.6103,1.601,1.5859,1.5778,1.5744,1.5716,1.5696,1.5607,1.5703,1.5744,1.5888,1.5956,1.6003,1.6056,1.6126,1.6133,1.6133,1.6133,1.6133,1.6133,1.6133,1.6133,1.6119,1.6105,1.6098,1.6126,1.6133,1.6133,1.6133,1.6133,1.6133,1.6133,1.6133,1.6139,1.6164,1.6259,1.63,1.6354,1.6503,1.656,1.9956,2.0085,2.0098,2.0092,2.0071,1.9942,1.9936,2.0024,1.9915,1.9895,1.999,1.9949,1.999,2.0031,1.9929,1.9929,2.0058,2.0017,2.0037,2.0064,2.0058,2.0044,1.9956,1.9963,1.9997,2.0044,2.0092,2.0119,2.0132,2.0037,1.9983,2.0132,2.0024,1.9902,1.9881,1.9936,1.9603,1.9237,1.9169,1.8938,1.8579,1.8525,1.8396,1.8138,1.8097,1.8023,1.7894,1.7751,1.7534,1.7446,1.7385,1.7372,1.7405,1.7419,1.7392,1.7325,1.7277,1.7202,1.7161,1.708,1.6998,1.6978,1.6965,1.6978,1.6937,1.6836,1.6716,1.6702,1.6659,1.6578,1.6578,1.6585,1.6564,1.6517,1.6395,1.6259,1.6123,1.609,1.6015,1.5956,1.5908,1.5825,1.5723,1.5805,1.5908,1.5949,1.5988,1.6098,1.6119,1.6133,1.6133,1.6133,1.6133,1.6133,1.6133,1.6133,1.6133,1.6133,1.6133,1.6133,1.6133,1.6133,1.6133,1.6133,1.6139,1.6139,1.616,1.6137,1.6198,1.63,1.6368,1.6402,1.651,1.6601,1.6748,1.9956,1.9942,2.0051,2.0098,2.0098,2.0051,1.9997,1.9936,1.9902,1.9854,1.9807,1.978,1.9813,1.978,1.9793,1.9834,1.9895,1.9908,2.0003,2.0112,2.0227,2.0058,1.9861,1.9888,1.9942,1.9976,2.0146,2.0268,2.0275,2.0288,2.0349,2.0417,2.0254,2.0139,2.0044,1.9841,1.9542,1.9237,1.9094,1.8952,1.8735,1.8593,1.8498,1.8423,1.8308,1.824,1.8186,1.8057,1.7785,1.7453,1.7419,1.7419,1.7439,1.7439,1.7446,1.7433,1.7392,1.7304,1.7216,1.7154,1.714,1.6992,1.6978,1.6978,1.6978,1.6944,1.6917,1.6917,1.6876,1.6849,1.6849,1.6842,1.6802,1.6693,1.6564,1.6422,1.6286,1.6246,1.6191,1.6056,1.6029,1.5995,1.5981,1.5974,1.6058,1.6064,1.6092,1.6133,1.6133,1.6133,1.6133,1.6133,1.6133,1.6133,1.6133,1.6133,1.6133,1.6133,1.6133,1.6133,1.6133,1.6133,1.6133,1.6133,1.6123,1.613,1.6205,1.6266,1.6354,1.6442,1.6479,1.6547,1.6686,1.6802,1.687,1.9875,1.9888,2.0037,2.0098,2.0098,2.0098,2.0051,1.9983,1.9963,1.9929,1.9854,1.9847,1.9847,1.9847,1.9847,1.9854,1.9868,1.9997,2.0119,2.018,2.022,2.0119,1.9983,1.999,1.9969,1.9983,2.0146,2.0214,2.0234,2.0322,2.0383,2.0354,2.037,2.0282,2.0193,1.9969,1.9691,1.9413,1.9196,1.9006,1.8857,1.8708,1.8593,1.8538,1.8443,1.8389,1.8314,1.8233,1.8023,1.7765,1.765,1.7602,1.7609,1.7609,1.7602,1.7602,1.7555,1.7453,1.7311,1.7236,1.7127,1.7012,1.6978,1.6978,1.6978,1.6978,1.6978,1.6971,1.6978,1.6978,1.6978,1.6978,1.6937,1.6856,1.6768,1.6625,1.6429,1.6395,1.6361,1.6279,1.6218,1.6178,1.6178,1.613,1.609,1.6126,1.6119,1.6133,1.6133,1.6133,1.6133,1.6133,1.6133,1.6133,1.6133,1.6133,1.6103,1.6103,1.6194,1.618,1.6173,1.6173,1.6137,1.6157,1.6164,1.6212,1.6327,1.6415,1.6483,1.6527,1.6642,1.673,1.6842,1.6876,1.6944,1.9847,1.9922,1.9997,2.0051,2.0044,2.0051,2.0017,2.0044,2.001,2.001,1.9997,2.0037,1.9969,2.0051,1.9942,2.0031,2.0031,2.0119,2.0248,2.0254,2.0234,2.018,2.0241,2.0037,1.9983,2.0003,2.0064,2.0112,2.0153,2.0159,2.0241,2.0349,2.0293,2.028,2.0288,2.0146,1.9936,1.9657,1.9373,1.9162,1.902,1.8898,1.8789,1.8694,1.8633,1.8559,1.8464,1.8369,1.826,1.8138,1.8031,1.7936,1.7929,1.7929,1.7902,1.7874,1.7717,1.7548,1.7453,1.7311,1.7168,1.7053,1.6998,1.6978,1.6978,1.6978,1.6978,1.6978,1.6978,1.6978,1.6978,1.6978,1.6971,1.6944,1.6958,1.6836,1.6646,1.6506,1.6537,1.6517,1.6402,1.6347,1.6293,1.6212,1.611,1.6157,1.613,1.6133,1.6133,1.6133,1.6133,1.6133,1.6133,1.6133,1.6133,1.6133,1.611,1.6137,1.6212,1.6232,1.6218,1.6218,1.6239,1.6259,1.6307,1.6395,1.6459,1.6533,1.6574,1.6707,1.6815,1.6876,1.6931,1.6931,1.6978,1.9766,1.9773,1.9807,1.9759,1.9759,1.9759,1.982,1.9827,1.9766,1.9841,1.9827,1.9766,1.9773,1.9827,1.9786,1.9752,1.9813,1.9956,2.0085,2.0315,2.0302,2.0288,2.0248,1.9983,1.9786,1.9841,2.001,2.0092,2.0132,2.0288,2.0451,2.0395,2.0313,2.0383,2.0424,2.0126,1.997,1.978,1.9529,1.9305,1.9183,1.9115,1.9061,1.9006,1.8932,1.8877,1.8803,1.8613,1.8477,1.8382,1.8199,1.8113,1.8016,1.7983,1.7929,1.7908,1.7833,1.7745,1.7548,1.7399,1.7304,1.7168,1.7073,1.6978,1.6985,1.6992,1.6985,1.6978,1.6978,1.6978,1.6978,1.6978,1.6978,1.6978,1.6978,1.6958,1.6876,1.6768,1.6615,1.6564,1.651,1.6476,1.6469,1.6347,1.6273,1.6252,1.6178,1.6153,1.6139,1.6146,1.6133,1.6133,1.6133,1.6139,1.6151,1.6171,1.6218,1.6246,1.63,1.6381,1.6368,1.6354,1.6388,1.6422,1.6463,1.6513,1.6621,1.6655,1.6696,1.6842,1.6917,1.6937,1.6958,1.6978,1.7019,1.9725,1.9725,1.9725,1.9725,1.9725,1.9725,1.9725,1.9725,1.9725,1.9725,1.9725,1.9725,1.9725,1.9725,1.9725,1.9759,1.9807,1.9997,2.0214,2.0313,2.0307,2.0266,2.0282,2.0051,1.9868,1.9895,2.0017,2.0092,2.0153,2.0261,2.0343,2.0374,2.03,2.03,2.0404,2.0126,1.9963,1.982,1.9583,1.9386,1.9318,1.9237,1.9203,1.9196,1.9122,1.9067,1.8966,1.8843,1.8715,1.8606,1.8423,1.8226,1.8104,1.8072,1.7997,1.7929,1.7915,1.7792,1.7602,1.7521,1.7467,1.7311,1.7222,1.7202,1.7161,1.7127,1.708,1.7066,1.7026,1.6978,1.6978,1.6978,1.6978,1.6978,1.6978,1.6978,1.6965,1.6904,1.6836,1.6741,1.668,1.6646,1.6585,1.649,1.6429,1.6402,1.6286,1.6212,1.6171,1.6164,1.6146,1.6133,1.6133,1.616,1.6198,1.6273,1.6361,1.6395,1.6429,1.6517,1.6578,1.6513,1.6506,1.654,1.6581,1.6714,1.6809,1.6784,1.6856,1.691,1.6958,1.6971,1.7005,1.7046,1.7093,1.9536,1.9536,1.9664,1.9725,1.9725,1.9725,1.9725,1.9725,1.9725,1.9725,1.9664,1.9664,1.9475,1.9475,1.936,1.9508,1.9812,2.0126,2.0259,2.0422,2.0424,2.0327,2.0343,2.0248,2.0166,2.0166,2.0159,2.0153,2.0153,2.0173,2.0329,2.0363,2.0273,2.028,2.0302,2.0153,1.9983,1.9847,1.9624,1.9488,1.9461,1.9359,1.9312,1.9305,1.925,1.9169,1.9067,1.8972,1.8905,1.8827,1.864,1.843,1.8233,1.8091,1.8023,1.7936,1.7915,1.7812,1.7724,1.7602,1.7521,1.7406,1.7365,1.7358,1.7372,1.729,1.7222,1.7141,1.7073,1.6978,1.6978,1.6978,1.6978,1.6978,1.6978,1.6978,1.6978,1.6978,1.6958,1.6944,1.6849,1.6795,1.6682,1.6608,1.6554,1.6486,1.6422,1.6334,1.6293,1.6266,1.6218,1.6218,1.6246,1.6259,1.6327,1.6442,1.6524,1.6558,1.6585,1.6666,1.6754,1.6761,1.6748,1.6761,1.6809,1.687,1.6904,1.6917,1.6937,1.6978,1.6985,1.6998,1.7046,1.7121,1.7188,1.886,1.8921,1.9475,1.9725,1.9725,1.9725,1.9664,1.9725,1.9603,1.9725,1.9597,1.9103,1.886,1.8745,1.8257,1.8512,1.9199,1.9723,2.0183,2.0378,2.0435,2.0422,2.0408,2.0438,2.0431,2.0431,2.0356,2.0288,2.0322,2.0404,2.0431,2.0401,2.0334,2.028,2.0254,2.0071,1.9949,1.9936,1.9705,1.9684,1.9643,1.963,1.9596,1.9529,1.944,1.9318,1.9176,1.9054,1.8918,1.8841,1.8793,1.862,1.8437,1.8226,1.8057,1.7921,1.7922,1.7895,1.7799,1.7717,1.7602,1.7534,1.7467,1.7446,1.7433,1.7392,1.7324,1.7188,1.708,1.6985,1.6978,1.6978,1.6978,1.6978,1.6978,1.6978,1.6978,1.6978,1.6978,1.6971,1.6944,1.6924,1.6856,1.6802,1.6748,1.6621,1.6571,1.6503,1.6469,1.6449,1.6429,1.6435,1.6412,1.6469,1.649,1.656,1.6655,1.6734,1.6768,1.6829,1.6904,1.6931,1.6944,1.6904,1.6897,1.6931,1.6965,1.6978,1.6978,1.6978,1.6998,1.7019,1.7114,1.7209,1.7358,1.7886,1.8251,1.8927,1.9171,1.9171,1.9171,1.9164,1.911,1.8806,1.8684,1.8562,1.8318,1.819,1.8068,1.7886,1.8095,1.861,1.9381,1.9776,2.0004,2.0285,2.0539,2.0476,2.0476,2.0539,2.0455,2.0401,2.0431,2.0381,2.0435,2.0476,2.0462,2.0401,2.041,2.0329,2.0207,2.0017,1.9908,1.9868,1.9793,1.9732,1.9725,1.9725,1.9698,1.959,1.9474,1.9325,1.9176,1.9033,1.8905,1.8803,1.8681,1.8545,1.8396,1.8213,1.8023,1.797,1.7922,1.7915,1.7792,1.7765,1.7758,1.7677,1.7656,1.7629,1.7582,1.7439,1.7249,1.7154,1.706,1.6992,1.6985,1.6978,1.6978,1.6978,1.6978,1.6978,1.6978,1.6978,1.6978,1.6965,1.6958,1.6958,1.691,1.6883,1.6809,1.672,1.6621,1.6588,1.6612,1.6585,1.6592,1.6605,1.6639,1.6653,1.6748,1.6777,1.6863,1.689,1.6951,1.6978,1.6978,1.6978,1.6958,1.6978,1.6978,1.6978,1.6978,1.6978,1.6992,1.7053,1.7121,1.7202,1.7317,1.7467,1.6599,1.7337,1.8007,1.8367,1.8495,1.8373,1.8312,1.8129,1.7581,1.7276,1.7276,1.7154,1.7154,1.7276,1.7422,1.7591,1.782,1.8567,1.9014,1.9071,1.9636,2.0094,2.0285,2.0349,2.0349,2.0476,2.0462,2.0539,2.0455,2.0469,2.0476,2.0469,2.0539,2.0408,2.028,2.0295,2.0139,2.001,1.9977,1.9909,1.98,1.9739,1.9725,1.9725,1.9725,1.9583,1.9413,1.9312,1.9176,1.9033,1.8898,1.8762,1.864,1.8508,1.8366,1.8199,1.8009,1.797,1.7915,1.7915,1.7895,1.7888,1.7908,1.7908,1.7812,1.769,1.7541,1.7331,1.7195,1.7148,1.7053,1.7051,1.6985,1.6978,1.6978,1.6978,1.6978,1.6978,1.6978,1.6978,1.6978,1.6978,1.6978,1.6971,1.6931,1.6924,1.6836,1.6822,1.6788,1.6734,1.6714,1.6707,1.6727,1.6781,1.6815,1.687,1.6917,1.6931,1.6937,1.6971,1.6978,1.6978,1.6978,1.6978,1.6978,1.6978,1.6978,1.6992,1.7012,1.7053,1.7134,1.7243,1.7365,1.7467,1.7534,1.4878,1.5988,1.666,1.7276,1.7642,1.7154,1.6904,1.6843,1.611,1.5927,1.5744,1.5444,1.5438,1.5927,1.6538,1.6501,1.6699,1.7396,1.7846,1.7718,1.8385,1.9013,1.9528,1.9592,1.984,2.0094,2.0349,2.0539,2.0412,2.0412,2.0539,2.0539,2.0526,2.0478,2.0313,2.03,2.0241,2.0105,2.0071,1.9997,1.9854,1.9739,1.9752,1.9739,1.9718,1.9596,1.9468,1.94,1.9312,1.9183,1.904,1.8959,1.8898,1.8667,1.8552,1.8409,1.8233,1.8009,1.7963,1.7942,1.7929,1.7929,1.7915,1.7915,1.7888,1.7751,1.7643,1.7554,1.7378,1.7216,1.7161,1.7066,1.7005,1.6998,1.7026,1.7012,1.6998,1.6978,1.6978,1.6978,1.6978,1.6978,1.6978,1.6978,1.6971,1.6971,1.7017,1.6944,1.6924,1.6856,1.6836,1.6829,1.6822,1.687,1.689,1.6951,1.6965,1.6978,1.6978,1.6978,1.6978,1.6978,1.6978,1.6978,1.6978,1.6998,1.7026,1.7046,1.706,1.7134,1.7229,1.7392,1.7514,1.7595,1.7656,1.151,1.4088,1.4761,1.5438,1.5933,1.5377,1.5066,1.4822,1.3965,1.3476,1.3537,1.3664,1.4031,1.4582,1.4949,1.4955,1.5125,1.5924,1.6356,1.6351,1.69,1.7674,1.8185,1.8382,1.8694,1.9204,1.9452,1.9586,1.984,2.0285,2.0539,2.0539,2.0476,2.0462,2.0374,2.0381,2.03,2.0248,2.0153,2.0071,1.9983,1.9868,1.978,1.978,1.9705,1.963,1.9502,1.9461,1.9353,1.9305,1.9189,1.9067,1.8993,1.885,1.8735,1.8461,1.8423,1.824,1.8043,1.8002,1.7948,1.7936,1.7922,1.7915,1.7902,1.7806,1.7717,1.7595,1.748,1.7419,1.7338,1.727,1.7243,1.7209,1.7134,1.7114,1.708,1.6998,1.6978,1.6978,1.6978,1.6992,1.6992,1.6978,1.6978,1.6978,1.6971,1.6965,1.6958,1.6944,1.6931,1.6944,1.6944,1.6958,1.6951,1.6971,1.6971,1.6978,1.6978,1.6978,1.6978,1.6978,1.6998,1.6998,1.6992,1.7019,1.7073,1.7107,1.7134,1.7229,1.7338,1.7514,1.7629,1.7765,1.784,0.807,1.1146,1.2307,1.3231,1.3786,1.3231,1.2981,1.2675,1.1575,1.1027,1.1084,1.1641,1.2438,1.299,1.3183,1.329,1.3266,1.3986,1.4216,1.4574,1.5118,1.5876,1.6398,1.6717,1.7164,1.7987,1.8312,1.8503,1.9013,1.9586,2.0031,2.0476,2.0539,2.0469,2.0476,2.0455,2.0401,2.032,2.0241,2.0173,2.0132,2.001,1.9915,1.9854,1.978,1.9637,1.9462,1.926,1.9193,1.8859,1.874,1.8562,1.8484,1.8366,1.8235,1.8013,1.7922,1.7835,1.7828,1.7891,1.8014,1.8024,1.7929,1.7915,1.7915,1.7915,1.784,1.7724,1.7588,1.7568,1.75,1.7439,1.7378,1.7344,1.7304,1.7277,1.7236,1.7168,1.7093,1.7073,1.706,1.7019,1.7012,1.6985,1.6978,1.6978,1.6978,1.6978,1.6978,1.6978,1.6978,1.6978,1.6978,1.6978,1.6978,1.6978,1.6978,1.6992,1.6992,1.6992,1.6998,1.7032,1.7066,1.7053,1.7046,1.7141,1.7243,1.7229,1.7229,1.7372,1.7514,1.7643,1.7772,1.7874,1.7982,0.4993,0.6594,0.9057,1.047,1.1077,1.1023,1.0658,1.0225,0.9429,0.8814,0.8627,0.9491,1.0413,1.1027,1.146,1.1504,1.1156,1.192,1.1883,1.1908,1.2311,1.3441,1.4154,1.4671,1.5247,1.6392,1.6781,1.7228,1.7744,1.8121,1.9204,2.0285,2.0222,2.0412,2.0476,2.0412,2.0469,2.0408,2.037,2.0315,2.0268,2.0166,2.0037,1.9922,1.9868,1.9548,1.8873,1.8847,1.8578,1.8092,1.7979,1.7885,1.7864,1.7732,1.76,1.746,1.7341,1.728,1.7269,1.7623,1.8057,1.8035,1.7871,1.7693,1.7624,1.777,1.7853,1.7661,1.7409,1.7403,1.7432,1.7473,1.7182,1.7156,1.7088,1.721,1.723,1.7358,1.729,1.7209,1.7161,1.7141,1.7121,1.7114,1.7012,1.6998,1.6978,1.6978,1.6978,1.6978,1.6978,1.6978,1.6978,1.6978,1.6978,1.6985,1.6998,1.7026,1.7046,1.7039,1.7039,1.708,1.7182,1.7202,1.7222,1.7324,1.7392,1.7365,1.7399,1.7494,1.7622,1.7772,1.7941,1.8097,1.8192,0.3022,0.3638,0.5056,0.6963,0.8992,0.8565,0.8258,0.795,0.7337,0.7214,0.7273,0.783,0.8442,0.8996,0.9183,0.928,0.9101,0.942,0.949,0.9624,1.0197,1.1005,1.1718,1.2424,1.3001,1.3962,1.4666,1.5247,1.5631,1.627,1.7355,1.8376,1.9204,1.9776,1.9967,2.0222,2.0412,2.0469,2.0428,2.0395,2.0431,2.0322,2.0214,2.0166,2.0037,1.9572,1.8961,1.8874,1.8394,1.7898,1.7654,1.7465,1.7338,1.7265,1.7121,1.7042,1.6862,1.6778,1.6734,1.7089,1.725,1.7136,1.7047,1.7033,1.7068,1.6943,1.6886,1.6773,1.6839,1.6869,1.6665,1.6633,1.6553,1.6631,1.6817,1.699,1.7053,1.7135,1.7176,1.6975,1.717,1.7317,1.7297,1.727,1.7141,1.7019,1.6998,1.6992,1.6966,1.6822,1.6789,1.6736,1.6743,1.6776,1.6776,1.6874,1.6973,1.6961,1.6955,1.6922,1.6843,1.7203,1.7284,1.7365,1.7338,1.7412,1.7446,1.744,1.75,1.765,1.7758,1.7867,1.8063,1.8301,1.8403,0.1542,0.1728,0.2222,0.3947,0.6226,0.6103,0.592,0.5672,0.5243,0.5428,0.5982,0.6167,0.666,0.7155,0.7357,0.7393,0.7454,0.757,0.7563,0.7802,0.8165,0.8763,0.9341,0.9859,1.037,1.1205,1.2103,1.2809,1.3129,1.4095,1.5119,1.6201,1.7419,1.8057,1.9331,1.9649,1.9967,2.0158,2.0222,2.0349,2.0392,2.0451,2.0349,2.0315,2.0207,1.9725,1.9098,1.8657,1.8157,1.7604,1.7233,1.7052,1.692,1.6789,1.6604,1.6463,1.6263,1.6075,1.6037,1.6529,1.6613,1.6737,1.6613,1.6494,1.6389,1.6302,1.6484,1.6373,1.628,1.6206,1.615,1.633,1.6336,1.6472,1.6526,1.6648,1.662,1.6679,1.6765,1.6736,1.6837,1.6764,1.6638,1.6552,1.6835,1.6783,1.6829,1.6763,1.671,1.6557,1.6331,1.6331,1.6377,1.6458,1.6544,1.6424,1.6303,1.6322,1.6361,1.6494,1.6593,1.6893,1.7162,1.7128,1.7161,1.7384,1.7534,1.7615,1.769,1.7717,1.7874,1.8063,1.824,1.847,1.8599,0.0432,0.0988,0.105,0.1913,0.327,0.3762,0.37,0.3455,0.327,0.3516,0.4134,0.4628,0.5183,0.5684,0.5647,0.5688,0.5733,0.5841,0.5948,0.5979,0.6118,0.6641,0.7028,0.7414,0.7865,0.8508,0.947,1.0241,1.0498,1.1654,1.268,1.3642,1.4666,1.6142,1.8242,1.8497,1.8885,1.9401,1.9465,1.9847,2.0094,2.0195,2.0065,1.9998,1.9965,1.9496,1.8804,1.8207,1.765,1.7041,1.6439,1.6205,1.6116,1.5519,1.5223,1.5015,1.4396,1.3979,1.3712,1.5521,1.6017,1.6091,1.5757,1.5836,1.6182,1.6266,1.6071,1.5723,1.6086,1.6217,1.6355,1.6292,1.6038,1.5816,1.5762,1.5895,1.5817,1.5997,1.5998,1.6004,1.5918,1.5845,1.5711,1.5765,1.6264,1.6509,1.6604,1.6524,1.6331,1.6144,1.5851,1.5952,1.5945,1.5945,1.5993,1.5733,1.5668,1.5686,1.565,1.5675,1.5826,1.5996,1.6313,1.6666,1.7033,1.725,1.753,1.786,1.7921,1.8002,1.8152,1.8321,1.8484,1.8633,1.8769,0.0123,0.0309,0.0309,0.0617,0.1173,0.2159,0.2529,0.2344,0.2344,0.2468,0.2653,0.29,0.3023,0.3278,0.3483,0.3573,0.3473,0.337,0.3395,0.361,0.3998,0.4191,0.4578,0.5159,0.5546,0.6255,0.7218,0.7926,0.8315,0.9277,1.0305,1.1269,1.2552,1.4602,1.6584,1.7547,1.7993,1.8254,1.8567,1.8949,1.914,1.9197,1.9115,1.9058,1.9121,1.8736,1.8052,1.7535,1.7045,1.6479,1.5872,1.5746,1.5719,1.5255,1.502,1.475,1.4238,1.3741,1.3071,1.3396,1.3582,1.4052,1.4512,1.4417,1.4255,1.4626,1.464,1.4877,1.5168,1.5099,1.4724,1.4611,1.4402,1.4005,1.4035,1.4314,1.4502,1.4898,1.5095,1.5005,1.4999,1.4753,1.4597,1.4316,1.4689,1.5075,1.5052,1.553,1.5542,1.541,1.517,1.5386,1.5494,1.5458,1.5374,1.4831,1.4653,1.4724,1.4698,1.4672,1.4827,1.4823,1.5299,1.561,1.636,1.7118,1.7475,1.7791,1.815,1.8321,1.8437,1.8531,1.8654,1.8796,1.8945,0.0,0.0,0.0,0.0,0.0,0.0926,0.1296,0.1357,0.1542,0.1666,0.1728,0.1913,0.2101,0.2047,0.1998,0.2013,0.2028,0.2043,0.2116,0.2129,0.2516,0.2838,0.3032,0.3161,0.3677,0.4257,0.4773,0.5415,0.5804,0.6706,0.7929,0.928,1.0627,1.1971,1.3765,1.4858,1.627,1.6589,1.71,1.7483,1.7669,1.7796,1.7796,1.779,1.7778,1.7558,1.7114,1.6741,1.6376,1.5901,1.5566,1.5285,1.5238,1.4883,1.4505,1.396,1.3124,1.2483,1.169,1.133,1.1612,1.1996,1.2355,1.2701,1.2744,1.3246,1.3527,1.3704,1.3941,1.3868,1.3581,1.3399,1.2925,1.2585,1.2442,1.2782,1.2734,1.3124,1.3181,1.3219,1.3251,1.3142,1.311,1.3024,1.2873,1.3198,1.3463,1.3905,1.4342,1.4108,1.3775,1.383,1.3955,1.3714,1.362,1.3526,1.3502,1.3748,1.3449,1.2981,1.3142,1.308,1.3887,1.4647,1.537,1.6147,1.7159,1.7702,1.8125,1.8424,1.866,1.8749,1.883,1.8945,1.9029,0.0,0.0,0.0,0.0,0.0,0.0,0.0,0.0,0.0741,0.0988,0.0988,0.1604,0.1672,0.181,0.1886,0.1773,0.1722,0.1799,0.1804,0.1806,0.1806,0.1936,0.1936,0.2,0.2193,0.2387,0.2838,0.3418,0.3353,0.4642,0.5997,0.7028,0.8312,0.9406,1.0559,1.1971,1.3706,1.4735,1.5631,1.6014,1.6334,1.6456,1.6456,1.6456,1.6387,1.6387,1.6089,1.5723,1.5428,1.505,1.4608,1.4255,1.3814,1.3276,1.259,1.1734,1.0727,1.0205,0.9856,0.9617,0.9481,0.9737,1.0439,1.1299,1.195,1.2094,1.2324,1.2614,1.2915,1.2969,1.2901,1.2349,1.1798,1.1424,1.0985,1.0945,1.0778,1.0824,1.0828,1.082,1.0808,1.0748,1.0736,1.0704,1.0692,1.0772,1.09,1.0999,1.1458,1.19,1.1564,1.1342,1.147,1.1617,1.1621,1.1723,1.1703,1.1739,1.1067,1.0644,1.0909,1.145,1.2202,1.3027,1.4124,1.5208,1.6686,1.7639,1.8159,1.8458,1.8378,1.8633,1.8661,1.8779,1.8945,0.0,0.0,0.0,0.0,0.0,0.0,0.0,0.0,0.0247,0.0,0.0309,0.0,0.0,0.0562,0.0566,0.0,0.0,0.0578,0.058,0.0,0.0,0.0,0.0,0.0,0.0,0.1226,0.1548,0.1935,0.2451,0.3354,0.374,0.4449,0.5995,0.6897,0.7926,0.9149,1.114,1.2809,1.3838,1.4479,1.4735,1.4799,1.4863,1.4863,1.4799,1.4799,1.4652,1.4573,1.4421,1.4343,1.4262,1.3934,1.3358,1.3035,1.2453,1.0506,0.9321,0.84,0.7908,0.737,0.7234,0.738,0.7693,0.8765,0.9815,1.0787,1.1023,1.135,1.1582,1.1616,1.117,1.0617,1.0139,0.971,0.9279,0.8905,0.875,0.8743,0.874,0.8541,0.8531,0.8366,0.8311,0.8292,0.8283,0.8271,0.8315,0.8363,0.874,0.9254,0.951,0.9229,0.9338,0.9637,0.9708,0.9817,0.9752,0.9561,0.8983,0.87,0.902,0.9615,1.0482,1.179,1.3433,1.5053,1.667,1.7349,1.7683,1.7731,1.7757,1.8112,1.8462,1.8521,1.8521,0.0,0.0,0.0,0.0,0.0,0.0,0.0,0.0,0.0,0.0,0.0,0.0,0.0,0.0,0.0,0.0,0.0,0.0,0.0,0.0,0.0,0.0,0.0,0.0,0.0,0.0,0.0,0.0839,0.1419,0.1935,0.2387,0.2967,0.4063,0.5093,0.6124,0.7414,0.8701,1.0305,1.159,1.2556,1.2813,1.2813,1.2813,1.2877,1.2877,1.2877,1.2813,1.2877,1.2813,1.2813,1.2677,1.2453,1.1908,1.1576,1.0957,0.9204,0.8267,0.7394,0.6826,0.6351,0.6108,0.599,0.5913,0.6832,0.7843,0.8836,0.9356,0.9808,1.0009,1.0029,0.9344,0.8729,0.8257,0.7845,0.7363,0.6883,0.6812,0.6861,0.6667,0.641,0.6205,0.5994,0.591,0.5895,0.5875,0.5794,0.5669,0.5552,0.6229,0.7121,0.7392,0.7392,0.7553,0.778,0.7852,0.7866,0.783,0.7676,0.7327,0.7109,0.7316,0.8215,0.9332,1.1192,1.3202,1.4607,1.591,1.6568,1.6905,1.6996,1.7236,1.7586,1.7858,1.7998,1.7871,0.0,0.0,0.0,0.0,0.0,0.0,0.0,0.0,0.0,0.0,0.0,0.0,0.0,0.0,0.0,0.0,0.0,0.0,0.0,0.0,0.0,0.0,0.0,0.0,0.0,0.0,0.0,0.0,0.0,0.0774,0.1419,0.2,0.3225,0.4062,0.4578,0.6061,0.7285,0.7993,0.9152,1.0116,1.0312,1.0248,1.0119,1.0248,1.0248,1.0248,1.0251,1.0184,1.0119,1.0184,1.0174,1.0207,0.9838,0.9342,0.8546,0.789,0.7071,0.6429,0.5854,0.5514,0.5637,0.5705,0.5889,0.5934,0.6579,0.736,0.7901,0.8141,0.8285,0.8241,0.7673,0.7124,0.6648,0.617,0.5687,0.5143,0.4895,0.488,0.4737,0.4486,0.4291,0.4093,0.4027,0.4075,0.413,0.3758,0.3637,0.3407,0.3808,0.4897,0.5169,0.5338,0.5377,0.5489,0.5741,0.5752,0.5871,0.5705,0.5423,0.5507,0.5722,0.6911,0.8391,1.015,1.2,1.351,1.4772,1.5407,1.6061,1.6565,1.6785,1.702,1.7239,1.7335,1.7189,0.0,0.0,0.0,0.0,0.0,0.0,0.0,0.0,0.0,0.0,0.0,0.0,0.0,0.0,0.0,0.0,0.0,0.0,0.0,0.0,0.0,0.0,0.0,0.0,0.0,0.0,0.0,0.0,0.0,0.0,0.0387,0.071,0.2,0.2903,0.3483,0.5095,0.5935,0.6321,0.6899,0.7865,0.8444,0.8637,0.8701,0.8704,0.8704,0.8704,0.8704,0.8701,0.8701,0.8701,0.8701,0.8436,0.7911,0.7316,0.6586,0.5924,0.5789,0.5396,0.4936,0.473,0.4783,0.4637,0.4687,0.4858,0.5279,0.6021,0.6429,0.6505,0.6467,0.6309,0.6046,0.5498,0.5072,0.4529,0.4044,0.3557,0.3069,0.2931,0.2854,0.2666,0.2478,0.2415,0.2353,0.235,0.2347,0.2345,0.2344,0.2286,0.2284,0.2864,0.2957,0.3007,0.2877,0.3049,0.3528,0.389,0.4126,0.3907,0.3627,0.3764,0.4141,0.582,0.7511,0.897,1.0637,1.2103,1.3424,1.4325,1.5002,1.5755,1.6328,1.6569,1.6586,1.6631,1.6457,0.0,0.0,0.0,0.0,0.0,0.0,0.0,0.0,0.0,0.0,0.0,0.0,0.0,0.0,0.0,0.0,0.0,0.0,0.0,0.0,0.0,0.0,0.0,0.0,0.0,0.0,0.0,0.0,0.0,0.0,0.0129,0.0516,0.1613,0.2452,0.3161,0.4194,0.4903,0.5226,0.5353,0.5804,0.6641,0.6899,0.7285,0.735,0.7285,0.7285,0.7285,0.7285,0.735,0.735,0.7285,0.7218,0.6894,0.6568,0.5917,0.5456,0.5191,0.48,0.4273,0.4065,0.4046,0.4023,0.3998,0.4425,0.4396,0.501,0.501,0.504,0.4668,0.4464,0.3974,0.3482,0.3421,0.3055,0.2931,0.2622,0.2244,0.2048,0.186,0.1675,0.1433,0.1075,0.1073,0.1013,0.0,0.0,0.0,0.0,0.0,0.0,0.0,0.1227,0.1397,0.1744,0.2511,0.2636,0.2582,0.224,0.2014,0.2854,0.3763,0.5238,0.6722,0.7884,0.9133,1.0549,1.1804,1.3029,1.4264,1.5202,1.5756,1.6105,1.6119,1.6195,1.6231,0.0,0.0,0.0,0.0,0.0,0.0,0.0,0.0,0.0,0.0,0.0,0.0,0.0,0.0,0.0,0.0,0.0,0.0,0.0,0.0,0.0,0.0,0.0,0.0,0.0,0.0,0.0,0.0,0.0,0.0,0.0323,0.1032,0.1742,0.2452,0.3097,0.3679,0.4324,0.4389,0.4389,0.426,0.471,0.5226,0.5739,0.5933,0.5933,0.5931,0.5933,0.5933,0.5933,0.5939,0.5942,0.5891,0.5834,0.5711,0.5448,0.5052,0.4913,0.4587,0.4255,0.4105,0.4075,0.4043,0.4015,0.3989,0.3964,0.389,0.3892,0.3585,0.3212,0.29,0.2404,0.2158,0.2096,0.1849,0.1847,0.0,0.0,0.0,0.0,0.0,0.0,0.0,0.0,0.0,0.0,0.0,0.0,0.0,0.0,0.0,0.0,0.0,0.0828,0.1241,0.0,0.0,0.0,0.1309,0.1314,0.228,0.3259,0.4386,0.5453,0.6319,0.7583,0.925,1.0721,1.1976,1.3237,1.4611,1.5321,1.5854,1.6255,1.632,1.6364,0.0,0.0,0.0,0.0,0.0,0.0,0.0,0.0,0.0,0.0,0.0,0.0,0.0,0.0,0.0,0.0,0.0,0.0,0.0,0.0,0.0,0.0,0.0,0.0,0.0,0.0,0.0,0.0,0.0,0.0,0.0387,0.1097,0.1742,0.2452,0.3097,0.3679,0.4066,0.4066,0.4066,0.4066,0.4066,0.4453,0.4389,0.4518,0.4518,0.4518,0.4518,0.4516,0.4518,0.4524,0.4667,0.4752,0.4831,0.4837,0.4708,0.4703,0.4564,0.4426,0.4221,0.4136,0.4105,0.406,0.4033,0.3947,0.386,0.3527,0.3347,0.2737,0.2486,0.2476,0.2103,0.1917,0.1731,0.1236,0.0926,0.0,0.0,0.0,0.0,0.0,0.0,0.0,0.0,0.0,0.0,0.0,0.0,0.0,0.0,0.0,0.0,0.0,0.0,0.0,0.0,0.0,0.0,0.0,0.0603,0.1335,0.22,0.3332,0.4278,0.5025,0.6484,0.8161,0.9571,1.0853,1.2651,1.4016,1.4856,1.5529,1.612,1.6487,1.6493]},{"header":{"parameterUnit":"m.s-1","parameterCategory":1,"la1":31.0,"la2":29.5877,"lo1":-88.7671,"lo2":-86.6584,"dy":0.0162,"dx":0.0185,"nx":115,"ny":88,"refTime":"2023-04-09T00:00:00:Z","depth":0,"parameterNumber":3,"parameterNumberName":"V-component_of_WINDS"},"data":[0.0,0.0,0.0,0.0,0.0,0.0,0.0,0.0,0.0,0.0,0.0,0.0,0.0,0.0,0.0,0.0,0.0,0.0,0.0,0.0,0.0,0.0,0.0,0.0,0.0,0.0,0.0,0.0,0.0,0.0,0.0,0.0,0.0,0.0,0.0,0.0,0.0,0.0,0.0,0.0,0.0,0.0,0.0,0.0,0.0,0.0,0.0,0.0,0.0,0.0,0.0,0.0,0.0,0.0,0.0,0.0,0.0,0.0,0.0,0.0,0.0,0.0,0.0,0.0,0.0,0.0,0.0,0.0,0.0,0.0,0.0,0.0,0.0,0.0,0.0,0.0,0.0,0.0,0.0,0.0,0.0,0.0,0.0,0.0,0.0,0.0,0.0,0.0,0.0,0.0,0.0,0.0,0.0,0.0,0.0,0.0,0.0,0.0,0.0,0.0,0.0,0.0,0.0,0.0,0.0,0.0,0.0,0.0,0.0,0.0,0.0,0.0,0.0,0.0,0.0,0.0,0.0,0.0,0.0,0.0,0.0,0.0,0.0,0.0,0.0,0.0,0.0,0.0,0.0,0.0,0.0,0.0,0.0,0.0,0.0,0.0,0.0,0.0,0.0,0.0,0.0,0.0,0.0,0.0,0.0,0.0,0.0,0.0,0.0,0.0,0.0,0.0,0.0,0.0,0.0,0.0,0.0,0.0,0.0,0.0,0.0,0.0,0.0,0.0,0.0,0.0,0.0,0.0,0.0,0.0,0.0,0.0,0.0,0.0,0.0,0.0,0.0,0.0,0.0,0.0,0.0,0.0,0.0,0.0,0.0,0.0,0.0,0.0,0.0,0.0,0.0,0.0,0.0,0.0,0.0,0.0,0.0,0.0,0.0,0.0,0.0,0.0,0.0,0.0,0.0,0.0,0.0,0.0,0.0,0.0,0.0,0.0,0.0,0.0,0.0,0.0,0.0,0.0,0.0,0.0,0.0,0.0,0.0,0.0,0.0,0.0,0.0,0.0,0.0,0.0,0.0,0.0,0.0,0.0,0.0,0.0,0.0,0.0,0.0,0.0,0.0,0.0,0.0,0.0,0.0,0.0,0.0,0.0,0.0,0.0,0.0,0.0,0.0,0.0,0.0,0.0,0.0,0.0,0.0,0.0,0.0,0.0,0.0,0.0,0.0,0.0,0.0,0.0,0.0,0.0,0.0,0.0,0.0,0.0,0.0,0.0,0.0,0.0,0.0,0.0,0.0,0.0,0.0,0.0,0.0,0.0,0.0,0.0,0.0,0.0,0.0,0.0,0.0,0.0,0.0,0.0,0.0,0.0,0.0,0.0,0.0,0.0,0.0,0.0,0.0,0.0,0.0,0.0,0.0,0.0,0.0,0.0,0.0,0.0,0.0,0.0,0.0,0.0,0.0,0.0,0.0,0.0,0.0,0.0,0.0,0.0,0.0,0.0,0.0,0.0,0.0,0.0,0.0,0.0,0.0,0.0,0.0,0.0,0.0,0.0,0.0,0.0,0.0,0.0,0.0,0.0,0.0,0.0,0.0,0.0,0.0,0.0,0.0,0.0,0.0,0.0,0.0,0.0,0.0,0.0,0.0,0.0,0.0,0.0,0.0,0.0,0.0,0.0,0.0,0.0,0.0,0.0,0.0,0.0,0.0,0.0,0.0,0.0,0.0,0.0,0.0,0.0,0.0,0.0,0.0,0.0,0.0,0.0,0.0,0.0,0.0,0.0,0.0,0.0,0.0,0.0,0.0,0.0,0.0,0.0,0.0,0.0,0.0,0.0,0.0,0.0,0.0,0.0,0.0,0.0,0.0,0.0,0.0,0.0,0.0,0.0,0.0,0.0,0.0,0.0,0.0,0.0,0.0,0.0,0.0,0.0,0.0,0.0,0.0,0.0,0.0,0.0,0.0,0.0,0.0,0.0,0.0,0.0,0.0,0.0,0.0,0.0,0.0,0.0,0.0,0.0,0.0,0.0,0.0,0.0,0.0,0.0,0.0,0.0,0.0,0.0,0.0,0.0,0.0,0.0,0.0,0.0,0.0,0.0,0.0,0.0,0.0,0.0,0.0,0.0,0.0,0.0,0.0,0.0,0.0,0.0,0.0,0.0,0.0,0.0,0.0,0.0,0.0,0.0,0.0,0.0,0.0,0.0,0.0,0.0,0.0,0.0,0.0,0.0,0.0,0.0,0.0,0.0,0.0,0.0,0.0,0.0,0.0,0.0,0.0,0.0,0.0,0.0,0.0,0.0,0.0,0.0,0.0,0.0,0.0,0.0,0.0,0.0,0.0,0.0,0.0,0.0,0.0,0.0,0.0,0.0,0.0,0.0,0.0,0.0,0.0,0.0,0.0,0.0,0.0,0.0,0.0,0.0,0.0,0.0,0.0,0.0,0.0,0.0,0.0,0.0,0.0,0.0,0.0,0.0,0.0,0.0,0.0,0.0,0.0,0.0,0.0,0.0,0.0,0.0,0.0,0.0,0.0,0.0,0.0,0.0,0.0,0.0,0.0,0.0,0.0,0.0,0.0,0.0,0.0,0.0,0.0,0.0,0.0,0.0,0.0,0.0,0.0,0.0,0.0,0.0,0.0,0.0,0.0,0.0,0.0,0.0,0.0,0.0,0.0,0.0,0.0,0.0,0.0,0.0,0.0,0.0,0.0,0.0,0.0,0.0,0.0,0.0,0.0,0.0,0.0,0.0,0.0,0.0,0.0,0.0,0.0,0.0,0.0,0.0,0.0,0.0,0.0,0.0,0.0,0.0,0.0,0.0,0.0,0.0,0.0,0.0,0.0,0.0,0.0,0.0,0.0,0.0,0.0,0.0,0.0,0.0,0.0,0.0,0.0,0.0,0.0,0.0,0.0,0.0,0.0,0.0,0.0,0.0,0.0,0.0,0.0,0.0,0.0,0.0,0.0,0.0,0.0,0.0,0.0,0.0,0.0,0.0,0.0,0.0,0.0,0.0,0.0,0.0,0.0,0.0,0.0,0.0,0.0,0.0,0.0,0.0,0.0,0.0,0.0,0.0,0.0,0.0,0.0,0.0,0.0,0.0,0.0,0.0,0.0,0.0,0.0,0.0,0.0,0.0,0.0,0.0,0.0,0.0,0.0,0.0,0.0,0.0,0.0,0.0,0.0,0.0,0.0,0.0,0.0,0.0,0.0,0.0,0.0,0.0,0.0,0.0,0.0,0.0,0.0,0.0,0.0,0.0,0.0,0.0,0.0,0.0,0.0,0.0,0.0,0.0,0.0,0.0,0.0,0.0,0.0,0.0,0.0,0.0,0.0,0.0,0.0,0.0,0.0,0.0,0.0,0.0,0.0,0.0,0.0,0.0,0.0,0.0,0.0,0.0,0.0,0.0,0.0,0.0,0.0,0.0,0.0,0.0,0.0,0.0,0.0,0.0,0.0,0.0,0.0,0.0,0.0,0.0,0.0,0.0,0.0,0.0,0.0,0.0,0.0,0.0,0.0,0.0,0.0,0.0,0.0,0.0,0.0,0.0,0.0,0.0,0.0,0.0,0.0,0.0,0.0,0.0,0.0,0.0,0.0,0.0,0.0,0.0,0.0,0.0,0.0,0.0,0.0,0.0,0.0,0.0,0.0,0.0,0.0,0.0,0.0,0.0,0.0,0.0,0.0,0.0,0.0,0.0,0.0,0.0,0.0,0.0,0.0,0.0,0.0,0.0,0.0,0.0,0.0,0.0,0.0,0.0,0.0,0.0,0.0,0.0,0.0,0.0,0.0,0.0,0.0,0.0,0.0,0.0,0.0,0.0,0.0,0.0,0.0,0.0,0.0,0.0,0.0,0.0,0.0,0.0,0.0,0.0,0.0,0.0,0.0,0.0,0.0,0.0,0.0,0.0,0.0,0.0,0.0,0.0,0.0,0.0,0.0,0.0,0.0,0.0,0.0,0.0,0.0,0.0,0.0,0.0,0.0,0.0,0.0,0.0,0.0,0.0,0.0,0.0,0.0,0.0,0.0,0.0,0.0,0.0,0.0,0.0,0.0,0.0,0.0,0.0,0.0,0.0,0.0,0.0,0.0,0.0,0.0,0.0,0.0,0.0,0.0,0.0,0.0,0.0,0.0,0.0,0.0,0.0,0.0,0.0,0.0,0.0,0.0,0.0,0.0,0.0,0.0,0.0,0.0,0.0,0.0,0.0,0.0,0.0,0.0,0.0,0.0,0.0,0.0,0.0,0.0,0.0,0.0,0.0,0.0,0.0,0.0,0.0,0.0,0.0,0.0,0.0,0.0,0.0,5.5359,0.0,0.0,0.0,0.0,0.0,0.0,0.0,0.0,0.0,0.0,0.0,0.0,0.0,0.0,0.0,0.0,0.0,0.0,0.0,0.0,0.0,0.0,0.0,0.0,0.0,0.0,0.0,0.0,0.0,0.0,0.0,0.0,0.0,0.0,0.0,0.0,0.0,0.0,0.0,0.0,0.0,0.0,0.0,0.0,0.0,0.0,0.0,0.0,0.0,0.0,0.0,0.0,0.0,0.0,0.0,0.0,0.0,0.0,0.0,0.0,0.0,0.0,0.0,0.0,0.0,0.0,0.0,0.0,0.0,0.0,0.0,0.0,0.0,0.0,0.0,0.0,0.0,0.0,0.0,0.0,0.0,0.0,0.0,0.0,0.0,0.0,0.0,0.0,0.0,0.0,0.0,0.0,0.0,0.0,0.0,0.0,0.0,0.0,0.0,0.0,0.0,0.0,0.0,0.0,0.0,0.0,0.0,0.0,0.0,0.0,5.7251,5.7388,5.5944,5.5233,5.5359,0.0,0.0,0.0,0.0,0.0,0.0,0.0,0.0,0.0,0.0,0.0,0.0,0.0,0.0,0.0,0.0,0.0,0.0,0.0,0.0,0.0,0.0,0.0,0.0,0.0,0.0,0.0,0.0,0.0,0.0,0.0,0.0,0.0,0.0,0.0,0.0,0.0,0.0,0.0,0.0,0.0,0.0,0.0,0.0,0.0,0.0,0.0,0.0,0.0,0.0,0.0,0.0,0.0,0.0,0.0,0.0,0.0,0.0,0.0,0.0,0.0,0.0,0.0,0.0,0.0,0.0,0.0,0.0,0.0,0.0,0.0,0.0,0.0,0.0,0.0,0.0,0.0,0.0,0.0,0.0,0.0,0.0,0.0,0.0,0.0,0.0,0.0,0.0,0.0,0.0,0.0,0.0,0.0,0.0,0.0,0.0,0.0,0.0,0.0,0.0,0.0,0.0,0.0,0.0,0.0,0.0,0.0,0.0,0.0,0.0,0.0,0.0,5.5871,5.5099,5.4917,0.0,0.0,0.0,0.0,0.0,0.0,0.0,0.0,0.0,0.0,0.0,0.0,0.0,0.0,0.0,0.0,0.0,0.0,0.0,0.0,0.0,0.0,0.0,0.0,0.0,0.0,0.0,0.0,0.0,0.0,0.0,0.0,0.0,0.0,0.0,0.0,0.0,0.0,0.0,0.0,0.0,0.0,0.0,0.0,0.0,0.0,0.0,0.0,0.0,0.0,0.0,0.0,0.0,0.0,0.0,0.0,0.0,0.0,0.0,0.0,0.0,0.0,0.0,0.0,0.0,0.0,0.0,0.0,0.0,0.0,0.0,0.0,0.0,0.0,0.0,0.0,0.0,0.0,0.0,0.0,0.0,0.0,0.0,0.0,0.0,0.0,0.0,0.0,0.0,0.0,0.0,0.0,0.0,0.0,0.0,0.0,0.0,0.0,0.0,0.0,0.0,0.0,0.0,0.0,0.0,0.0,0.0,0.0,0.0,0.0,5.6937,5.6297,5.5592,0.0,5.3549,0.0,0.0,0.0,0.0,0.0,0.0,0.0,0.0,0.0,0.0,0.0,0.0,0.0,0.0,0.0,0.0,0.0,0.0,0.0,0.0,0.0,0.0,0.0,0.0,0.0,0.0,0.0,0.0,0.0,0.0,0.0,0.0,0.0,0.0,0.0,0.0,0.0,0.0,0.0,0.0,0.0,0.0,0.0,0.0,0.0,0.0,0.0,0.0,0.0,0.0,0.0,0.0,0.0,0.0,0.0,0.0,0.0,0.0,0.0,0.0,0.0,0.0,0.0,0.0,0.0,0.0,0.0,0.0,0.0,0.0,0.0,0.0,0.0,0.0,0.0,0.0,0.0,0.0,0.0,0.0,0.0,0.0,0.0,0.0,0.0,0.0,0.0,0.0,0.0,0.0,0.0,0.0,0.0,0.0,0.0,0.0,0.0,0.0,0.0,0.0,0.0,0.0,0.0,0.0,0.0,0.0,0.0,0.0,0.0,0.0,5.6901,5.6237,5.5139,5.4118,0.0,0.0,0.0,0.0,0.0,0.0,0.0,0.0,0.0,0.0,0.0,0.0,0.0,0.0,0.0,0.0,0.0,0.0,0.0,0.0,0.0,0.0,0.0,0.0,0.0,0.0,0.0,0.0,0.0,0.0,0.0,0.0,0.0,0.0,0.0,0.0,0.0,0.0,0.0,0.0,0.0,0.0,0.0,0.0,0.0,0.0,0.0,0.0,0.0,0.0,0.0,0.0,0.0,0.0,0.0,0.0,0.0,0.0,0.0,0.0,0.0,0.0,0.0,0.0,0.0,0.0,0.0,0.0,0.0,0.0,0.0,0.0,0.0,0.0,0.0,0.0,0.0,0.0,0.0,0.0,0.0,0.0,0.0,0.0,0.0,0.0,0.0,0.0,0.0,0.0,0.0,0.0,0.0,0.0,0.0,0.0,0.0,0.0,0.0,0.0,0.0,0.0,0.0,0.0,0.0,0.0,0.0,0.0,0.0,0.0,5.7251,5.6817,5.5873,5.4531,5.3559,5.3017,0.0,0.0,0.0,0.0,0.0,0.0,0.0,0.0,0.0,0.0,0.0,0.0,0.0,0.0,0.0,0.0,0.0,0.0,0.0,0.0,0.0,0.0,0.0,0.0,0.0,0.0,0.0,0.0,0.0,0.0,0.0,0.0,0.0,0.0,0.0,0.0,0.0,0.0,0.0,0.0,0.0,0.0,0.0,0.0,0.0,0.0,0.0,0.0,0.0,0.0,0.0,0.0,0.0,0.0,0.0,0.0,0.0,0.0,0.0,0.0,0.0,0.0,0.0,0.0,0.0,0.0,0.0,0.0,0.0,0.0,0.0,0.0,0.0,0.0,0.0,0.0,0.0,0.0,0.0,0.0,0.0,0.0,0.0,0.0,0.0,0.0,0.0,0.0,0.0,0.0,0.0,0.0,0.0,0.0,0.0,0.0,0.0,0.0,0.0,0.0,0.0,0.0,0.0,0.0,0.0,0.0,0.0,0.0,5.7351,5.7339,5.6612,5.5086,5.3649,5.2897,0.0,0.0,0.0,0.0,0.0,0.0,0.0,0.0,0.0,0.0,0.0,0.0,0.0,0.0,0.0,0.0,0.0,0.0,0.0,0.0,0.0,0.0,0.0,0.0,0.0,0.0,0.0,0.0,0.0,0.0,0.0,0.0,0.0,0.0,0.0,0.0,0.0,0.0,0.0,0.0,0.0,0.0,0.0,0.0,0.0,0.0,0.0,0.0,0.0,0.0,0.0,0.0,0.0,0.0,0.0,0.0,0.0,0.0,0.0,0.0,0.0,0.0,0.0,0.0,0.0,0.0,0.0,0.0,0.0,0.0,0.0,0.0,0.0,0.0,0.0,0.0,0.0,0.0,0.0,0.0,0.0,0.0,0.0,0.0,0.0,0.0,0.0,0.0,0.0,0.0,0.0,0.0,0.0,0.0,0.0,0.0,0.0,0.0,0.0,0.0,0.0,0.0,0.0,0.0,0.0,0.0,0.0,0.0,0.0,5.6576,5.6103,5.5269,5.4181,5.3276,5.2817,0.0,0.0,0.0,0.0,0.0,0.0,0.0,0.0,0.0,0.0,0.0,0.0,0.0,0.0,0.0,0.0,0.0,0.0,0.0,0.0,0.0,0.0,0.0,0.0,0.0,0.0,0.0,0.0,0.0,0.0,0.0,0.0,0.0,0.0,0.0,0.0,0.0,0.0,0.0,0.0,0.0,0.0,0.0,0.0,0.0,0.0,0.0,0.0,0.0,0.0,0.0,0.0,0.0,0.0,0.0,0.0,0.0,0.0,0.0,0.0,0.0,0.0,0.0,0.0,0.0,0.0,0.0,0.0,0.0,0.0,0.0,0.0,0.0,0.0,0.0,0.0,0.0,0.0,0.0,0.0,0.0,0.0,0.0,0.0,0.0,0.0,0.0,0.0,0.0,0.0,0.0,0.0,0.0,0.0,0.0,0.0,0.0,0.0,0.0,0.0,0.0,0.0,0.0,0.0,0.0,0.0,0.0,0.0,0.0,5.62,0.0,5.4894,0.0,5.352,5.3061,0.0,0.0,0.0,0.0,0.0,0.0,0.0,0.0,0.0,0.0,0.0,0.0,0.0,0.0,0.0,0.0,0.0,0.0,0.0,0.0,0.0,0.0,0.0,0.0,0.0,0.0,0.0,0.0,0.0,0.0,0.0,0.0,0.0,0.0,0.0,0.0,0.0,0.0,0.0,0.0,0.0,0.0,0.0,0.0,0.0,0.0,0.0,0.0,0.0,0.0,0.0,0.0,0.0,0.0,0.0,0.0,0.0,0.0,0.0,0.0,0.0,0.0,0.0,0.0,0.0,0.0,0.0,0.0,0.0,0.0,0.0,0.0,0.0,0.0,0.0,0.0,0.0,0.0,0.0,0.0,0.0,0.0,0.0,0.0,0.0,0.0,0.0,0.0,0.0,0.0,0.0,0.0,0.0,0.0,0.0,0.0,0.0,0.0,0.0,0.0,0.0,0.0,0.0,0.0,0.0,0.0,0.0,0.0,5.5049,5.6258,5.6104,5.5632,5.5014,5.433,5.3689,0.0,0.0,0.0,0.0,0.0,0.0,0.0,0.0,0.0,0.0,0.0,0.0,0.0,0.0,0.0,0.0,0.0,0.0,0.0,0.0,0.0,0.0,0.0,0.0,0.0,0.0,0.0,0.0,0.0,0.0,0.0,0.0,0.0,0.0,0.0,0.0,0.0,0.0,0.0,0.0,0.0,0.0,0.0,0.0,0.0,0.0,0.0,0.0,0.0,0.0,0.0,0.0,0.0,0.0,0.0,0.0,0.0,0.0,0.0,0.0,0.0,0.0,0.0,0.0,0.0,0.0,0.0,0.0,0.0,0.0,0.0,0.0,0.0,0.0,0.0,0.0,0.0,0.0,0.0,0.0,0.0,0.0,0.0,0.0,0.0,0.0,0.0,0.0,0.0,0.0,0.0,0.0,0.0,0.0,0.0,0.0,0.0,0.0,0.0,0.0,0.0,0.0,0.0,0.0,0.0,0.0,0.0,0.0,0.0,5.4877,5.5809,5.592,5.5154,5.4492,5.4023,0.0,0.0,0.0,0.0,0.0,0.0,0.0,0.0,0.0,0.0,0.0,0.0,0.0,0.0,0.0,0.0,0.0,0.0,0.0,0.0,0.0,0.0,0.0,0.0,0.0,0.0,0.0,0.0,0.0,0.0,0.0,0.0,0.0,0.0,0.0,0.0,0.0,0.0,0.0,0.0,0.0,0.0,0.0,0.0,0.0,0.0,0.0,0.0,0.0,0.0,0.0,0.0,0.0,0.0,0.0,0.0,0.0,0.0,0.0,0.0,0.0,0.0,0.0,0.0,0.0,0.0,0.0,0.0,0.0,0.0,0.0,0.0,0.0,0.0,0.0,0.0,0.0,0.0,0.0,0.0,0.0,0.0,0.0,0.0,0.0,0.0,0.0,0.0,0.0,0.0,0.0,0.0,0.0,0.0,0.0,0.0,0.0,0.0,0.0,0.0,0.0,0.0,0.0,0.0,0.0,0.0,0.0,0.0,0.0,5.5671,5.6717,5.695,5.6194,5.546,5.4821,5.428,0.0,0.0,0.0,0.0,0.0,0.0,0.0,0.0,0.0,0.0,0.0,0.0,0.0,0.0,0.0,0.0,0.0,0.0,0.0,0.0,0.0,0.0,0.0,0.0,0.0,0.0,0.0,0.0,0.0,0.0,0.0,0.0,0.0,0.0,0.0,0.0,0.0,0.0,0.0,0.0,0.0,0.0,0.0,0.0,0.0,0.0,0.0,0.0,0.0,0.0,0.0,0.0,0.0,0.0,0.0,0.0,0.0,0.0,0.0,0.0,0.0,0.0,0.0,0.0,0.0,0.0,0.0,0.0,0.0,0.0,0.0,0.0,0.0,0.0,0.0,0.0,0.0,0.0,0.0,0.0,0.0,0.0,0.0,0.0,0.0,0.0,0.0,0.0,0.0,0.0,0.0,0.0,0.0,0.0,0.0,0.0,0.0,0.0,0.0,0.0,0.0,0.0,0.0,0.0,0.0,0.0,0.0,0.0,5.8253,5.8786,5.8677,5.7956,5.7127,5.6038,0.0,0.0,0.0,0.0,0.0,0.0,0.0,0.0,0.0,0.0,0.0,0.0,0.0,0.0,0.0,0.0,0.0,0.0,0.0,0.0,0.0,0.0,0.0,0.0,0.0,0.0,0.0,0.0,0.0,0.0,0.0,0.0,0.0,0.0,0.0,0.0,0.0,0.0,0.0,0.0,0.0,0.0,0.0,0.0,0.0,0.0,0.0,0.0,0.0,0.0,0.0,0.0,0.0,0.0,0.0,0.0,0.0,0.0,0.0,0.0,0.0,0.0,0.0,0.0,0.0,0.0,0.0,0.0,0.0,0.0,0.0,0.0,0.0,0.0,0.0,0.0,0.0,0.0,0.0,0.0,0.0,0.0,0.0,0.0,0.0,0.0,0.0,0.0,0.0,0.0,0.0,0.0,0.0,0.0,0.0,0.0,0.0,0.0,0.0,0.0,0.0,0.0,0.0,0.0,0.0,0.0,0.0,0.0,0.0,6.1435,6.1703,6.1092,5.9736,5.839,5.7448,0.0,0.0,0.0,0.0,0.0,0.0,0.0,0.0,0.0,0.0,0.0,0.0,0.0,0.0,0.0,0.0,0.0,0.0,0.0,0.0,0.0,0.0,0.0,0.0,0.0,0.0,0.0,0.0,0.0,0.0,0.0,0.0,0.0,0.0,0.0,0.0,0.0,0.0,0.0,0.0,0.0,0.0,0.0,0.0,0.0,0.0,0.0,0.0,0.0,0.0,0.0,0.0,0.0,0.0,0.0,0.0,0.0,0.0,0.0,0.0,0.0,0.0,0.0,0.0,0.0,0.0,0.0,0.0,0.0,0.0,0.0,0.0,0.0,0.0,0.0,0.0,0.0,0.0,0.0,0.0,0.0,0.0,0.0,0.0,0.0,0.0,0.0,0.0,0.0,0.0,0.0,0.0,0.0,0.0,0.0,0.0,0.0,0.0,0.0,0.0,0.0,0.0,0.0,0.0,0.0,0.0,0.0,0.0,6.0603,6.2756,6.349,6.3417,6.2499,6.0529,5.9024,0.0,0.0,0.0,0.0,0.0,0.0,0.0,0.0,0.0,0.0,0.0,0.0,0.0,0.0,0.0,0.0,0.0,0.0,0.0,0.0,0.0,0.0,0.0,0.0,0.0,0.0,0.0,0.0,0.0,0.0,0.0,0.0,0.0,0.0,0.0,0.0,0.0,0.0,0.0,0.0,0.0,0.0,0.0,0.0,0.0,0.0,0.0,0.0,0.0,0.0,0.0,0.0,0.0,0.0,0.0,0.0,0.0,0.0,0.0,0.0,0.0,0.0,0.0,0.0,0.0,0.0,0.0,0.0,0.0,0.0,0.0,0.0,0.0,0.0,0.0,0.0,0.0,0.0,0.0,0.0,0.0,0.0,0.0,0.0,0.0,0.0,0.0,0.0,0.0,0.0,0.0,0.0,0.0,0.0,0.0,0.0,0.0,0.0,0.0,0.0,0.0,0.0,0.0,0.0,0.0,0.0,0.0,0.0,6.2108,6.3196,6.4664,6.5472,6.5472,6.3062,6.0676,0.0,0.0,0.0,0.0,0.0,0.0,0.0,0.0,0.0,0.0,0.0,0.0,0.0,0.0,0.0,0.0,0.0,0.0,0.0,0.0,0.0,0.0,0.0,0.0,0.0,0.0,0.0,0.0,0.0,0.0,0.0,0.0,0.0,0.0,0.0,0.0,0.0,0.0,0.0,0.0,0.0,0.0,0.0,0.0,0.0,0.0,0.0,0.0,0.0,0.0,0.0,0.0,0.0,0.0,0.0,0.0,0.0,0.0,0.0,0.0,0.0,0.0,0.0,0.0,0.0,0.0,0.0,0.0,0.0,0.0,0.0,0.0,0.0,0.0,0.0,0.0,0.0,0.0,0.0,0.0,0.0,0.0,0.0,0.0,0.0,0.0,0.0,0.0,0.0,0.0,0.0,0.0,0.0,0.0,0.0,0.0,0.0,0.0,0.0,0.0,0.0,0.0,0.0,0.0,0.0,0.0,0.0,0.0,6.2952,6.5632,6.6072,6.6549,6.7187,6.4163,6.1998,0.0,0.0,0.0,0.0,0.0,0.0,0.0,0.0,0.0,0.0,0.0,0.0,0.0,0.0,0.0,0.0,0.0,0.0,0.0,0.0,0.0,0.0,0.0,0.0,0.0,0.0,0.0,0.0,0.0,0.0,0.0,0.0,0.0,0.0,0.0,0.0,0.0,0.0,0.0,0.0,0.0,0.0,0.0,0.0,0.0,0.0,0.0,0.0,5.4335,0.0,0.0,0.0,0.0,0.0,0.0,0.0,0.0,0.0,0.0,0.0,0.0,0.0,0.0,0.0,0.0,0.0,0.0,0.0,0.0,0.0,0.0,0.0,0.0,0.0,0.0,0.0,0.0,0.0,0.0,0.0,0.0,0.0,0.0,0.0,0.0,0.0,0.0,0.0,0.0,0.0,0.0,0.0,0.0,0.0,0.0,0.0,0.0,0.0,0.0,0.0,0.0,0.0,0.0,0.0,0.0,0.0,0.0,0.0,6.3576,6.6366,6.688,6.7467,6.8091,6.5118,6.2842,0.0,0.0,0.0,0.0,0.0,0.0,0.0,0.0,0.0,0.0,0.0,0.0,0.0,0.0,0.0,0.0,0.0,0.0,0.0,0.0,0.0,0.0,0.0,0.0,0.0,0.0,0.0,0.0,0.0,0.0,0.0,0.0,0.0,0.0,0.0,0.0,0.0,0.0,0.0,0.0,0.0,0.0,0.0,0.0,0.0,0.0,0.0,0.0,0.0,0.0,0.0,0.0,0.0,0.0,0.0,0.0,0.0,0.0,0.0,0.0,0.0,0.0,0.0,0.0,0.0,0.0,0.0,0.0,0.0,0.0,0.0,0.0,0.0,0.0,0.0,0.0,0.0,0.0,0.0,0.0,0.0,0.0,0.0,0.0,0.0,0.0,0.0,0.0,0.0,0.0,0.0,0.0,0.0,0.0,0.0,0.0,0.0,0.0,0.0,0.0,0.0,0.0,0.0,0.0,0.0,0.0,0.0,6.1692,6.42,6.6586,6.7333,6.8141,6.9009,6.5962,6.3503,6.1851,0.0,0.0,0.0,0.0,0.0,0.0,0.0,0.0,0.0,0.0,0.0,0.0,0.0,0.0,0.0,0.0,0.0,0.0,0.0,0.0,0.0,0.0,0.0,0.0,0.0,0.0,0.0,0.0,0.0,0.0,0.0,0.0,0.0,0.0,0.0,0.0,0.0,0.0,5.3066,5.4121,0.0,0.0,0.0,0.0,0.0,0.0,0.0,0.0,5.4207,0.0,0.0,0.0,0.0,0.0,0.0,0.0,0.0,0.0,0.0,0.0,0.0,0.0,0.0,0.0,0.0,0.0,0.0,0.0,0.0,0.0,0.0,0.0,0.0,0.0,0.0,0.0,0.0,0.0,0.0,0.0,0.0,0.0,0.0,0.0,0.0,0.0,0.0,0.0,0.0,0.0,0.0,0.0,0.0,0.0,0.0,0.0,0.0,0.0,0.0,0.0,0.0,0.0,0.0,0.0,0.0,5.9184,6.2291,6.5057,6.7407,6.7627,6.8398,6.9743,6.6806,6.4334,6.2646,0.0,0.0,0.0,0.0,0.0,0.0,0.0,0.0,0.0,0.0,0.0,0.0,0.0,0.0,0.0,0.0,0.0,0.0,0.0,0.0,0.0,0.0,0.0,0.0,0.0,0.0,0.0,0.0,0.0,0.0,0.0,0.0,0.0,0.0,0.0,0.0,0.0,0.0,0.0,5.4352,5.5007,0.0,0.0,0.0,0.0,0.0,0.0,0.0,0.0,5.4029,0.0,0.0,0.0,0.0,0.0,0.0,0.0,0.0,0.0,0.0,0.0,0.0,0.0,0.0,0.0,0.0,0.0,0.0,0.0,0.0,0.0,0.0,0.0,0.0,0.0,0.0,0.0,0.0,0.0,0.0,0.0,0.0,0.0,0.0,0.0,0.0,0.0,0.0,0.0,0.0,0.0,0.0,0.0,0.0,0.0,0.0,0.0,0.0,0.0,0.0,0.0,0.0,0.0,0.0,0.0,5.9857,6.2205,6.4824,6.7554,6.77,6.8471,6.9963,6.6586,6.409,0.0,0.0,0.0,0.0,0.0,0.0,0.0,0.0,0.0,0.0,0.0,0.0,0.0,0.0,0.0,0.0,0.0,0.0,0.0,0.0,0.0,0.0,0.0,0.0,0.0,0.0,0.0,0.0,0.0,0.0,0.0,0.0,0.0,0.0,0.0,0.0,0.0,0.0,0.0,0.0,5.4672,5.5124,5.5199,0.0,0.0,0.0,0.0,0.0,0.0,5.4494,5.4335,0.0,0.0,0.0,0.0,0.0,0.0,0.0,0.0,0.0,0.0,0.0,0.0,0.0,0.0,0.0,0.0,0.0,0.0,0.0,0.0,0.0,0.0,0.0,0.0,0.0,0.0,0.0,0.0,0.0,0.0,0.0,0.0,0.0,0.0,0.0,0.0,0.0,0.0,0.0,0.0,0.0,0.0,0.0,0.0,0.0,0.0,0.0,0.0,0.0,0.0,0.0,0.0,0.0,0.0,0.0,6.0382,6.2499,6.4897,6.7554,6.8031,6.8728,6.9743,6.6416,6.3943,0.0,0.0,0.0,0.0,0.0,0.0,0.0,0.0,0.0,0.0,0.0,0.0,0.0,0.0,0.0,0.0,0.0,0.0,0.0,0.0,0.0,0.0,0.0,0.0,0.0,0.0,0.0,0.0,0.0,0.0,0.0,0.0,0.0,0.0,0.0,0.0,0.0,0.0,0.0,0.0,0.0,5.5259,5.5289,5.5169,0.0,0.0,0.0,0.0,5.4772,5.4823,0.0,0.0,0.0,0.0,0.0,0.0,0.0,0.0,0.0,0.0,0.0,0.0,0.0,0.0,0.0,0.0,0.0,0.0,0.0,0.0,0.0,0.0,0.0,0.0,0.0,0.0,0.0,0.0,0.0,0.0,0.0,0.0,0.0,0.0,0.0,0.0,0.0,0.0,0.0,0.0,0.0,0.0,0.0,0.0,0.0,0.0,0.0,0.0,0.0,0.0,0.0,0.0,0.0,0.0,0.0,0.0,6.0529,6.4163,6.6586,6.77,6.9082,6.9559,6.9045,6.721,6.4787,0.0,0.0,0.0,0.0,0.0,0.0,0.0,0.0,0.0,0.0,0.0,0.0,0.0,0.0,0.0,0.0,0.0,0.0,0.0,0.0,0.0,0.0,0.0,0.0,0.0,0.0,0.0,0.0,0.0,0.0,0.0,0.0,0.0,0.0,0.0,0.0,0.0,0.0,0.0,0.0,0.0,5.5502,5.5634,5.5481,5.5334,0.0,0.0,0.0,5.5124,5.5033,0.0,0.0,0.0,0.0,0.0,0.0,0.0,0.0,0.0,0.0,0.0,0.0,0.0,0.0,0.0,0.0,0.0,0.0,0.0,0.0,0.0,0.0,0.0,0.0,0.0,0.0,0.0,0.0,0.0,0.0,0.0,0.0,0.0,0.0,0.0,0.0,0.0,0.0,0.0,0.0,0.0,0.0,0.0,0.0,0.0,0.0,0.0,0.0,0.0,0.0,0.0,0.0,0.0,0.0,0.0,6.0407,6.1802,6.4457,6.6659,6.8311,6.9486,6.9706,6.8885,6.7357,6.5191,0.0,0.0,0.0,0.0,0.0,0.0,0.0,0.0,0.0,0.0,0.0,0.0,0.0,0.0,0.0,0.0,0.0,0.0,0.0,0.0,0.0,0.0,0.0,0.0,0.0,0.0,0.0,0.0,0.0,0.0,0.0,0.0,0.0,0.0,0.0,0.0,0.0,0.0,0.0,0.0,0.0,0.0,5.6896,5.704,0.0,0.0,0.0,5.7035,5.7181,0.0,0.0,0.0,0.0,0.0,0.0,0.0,0.0,0.0,0.0,0.0,0.0,0.0,0.0,0.0,0.0,0.0,0.0,0.0,0.0,0.0,0.0,0.0,0.0,0.0,0.0,0.0,0.0,0.0,0.0,0.0,0.0,0.0,0.0,0.0,0.0,0.0,0.0,0.0,0.0,0.0,0.0,0.0,0.0,0.0,0.0,0.0,0.0,0.0,0.0,0.0,0.0,0.0,0.0,0.0,0.0,0.0,6.3086,6.4971,6.6976,6.9155,7.0183,7.011,6.8935,6.754,0.0,0.0,0.0,0.0,0.0,0.0,0.0,0.0,0.0,0.0,0.0,0.0,0.0,0.0,0.0,0.0,0.0,0.0,0.0,0.0,0.0,0.0,0.0,0.0,0.0,0.0,0.0,5.524,0.0,0.0,0.0,0.0,0.0,0.0,0.0,0.0,0.0,0.0,0.0,0.0,0.0,0.0,5.7102,5.7997,5.8347,5.8472,0.0,0.0,5.8709,5.878,5.8335,5.7842,0.0,0.0,0.0,0.0,0.0,0.0,0.0,0.0,0.0,0.0,0.0,0.0,0.0,0.0,0.0,0.0,0.0,0.0,0.0,0.0,0.0,0.0,0.0,0.0,0.0,0.0,0.0,0.0,0.0,0.0,0.0,0.0,0.0,0.0,0.0,0.0,0.0,0.0,0.0,0.0,0.0,0.0,0.0,0.0,0.0,0.0,0.0,0.0,0.0,0.0,0.0,0.0,0.0,0.0,0.0,6.3992,6.6342,6.8311,7.0,7.1541,7.1248,6.9009,6.8091,6.6122,0.0,0.0,0.0,0.0,0.0,0.0,0.0,0.0,0.0,0.0,0.0,0.0,0.0,0.0,0.0,0.0,0.0,0.0,0.0,0.0,0.0,0.0,0.0,0.0,0.0,0.0,0.0,0.0,0.0,0.0,0.0,0.0,0.0,0.0,0.0,0.0,0.0,0.0,0.0,0.0,0.0,5.754,5.8351,5.8752,5.8894,0.0,0.0,5.9149,5.9199,5.925,5.8992,5.8257,0.0,0.0,0.0,0.0,0.0,0.0,0.0,0.0,0.0,0.0,0.0,0.0,0.0,0.0,0.0,0.0,0.0,0.0,0.0,0.0,0.0,0.0,0.0,0.0,0.0,0.0,0.0,0.0,0.0,0.0,0.0,0.0,0.0,0.0,0.0,0.0,0.0,0.0,0.0,0.0,0.0,0.0,0.0,0.0,0.0,0.0,0.0,0.0,0.0,0.0,0.0,0.0,0.0,6.2365,6.4824,6.6746,6.8715,7.0756,7.1945,7.1578,6.9706,6.8398,6.6659,0.0,0.0,0.0,0.0,0.0,0.0,0.0,0.0,0.0,0.0,0.0,0.0,0.0,0.0,0.0,0.0,0.0,0.0,0.0,0.0,0.0,0.0,0.0,0.0,0.0,0.0,0.0,0.0,5.6566,5.6947,5.7061,0.0,0.0,0.0,0.0,0.0,0.0,0.0,0.0,0.0,0.0,5.9352,6.0225,6.0616,0.0,0.0,6.1802,6.1923,6.1923,6.1643,6.0932,5.9532,5.8812,0.0,0.0,0.0,0.0,0.0,0.0,0.0,0.0,0.0,0.0,0.0,0.0,0.0,0.0,0.0,0.0,0.0,0.0,0.0,0.0,0.0,0.0,0.0,0.0,0.0,0.0,0.0,0.0,0.0,0.0,0.0,0.0,0.0,0.0,0.0,0.0,0.0,0.0,0.0,0.0,0.0,0.0,0.0,0.0,0.0,0.0,0.0,0.0,0.0,0.0,0.0,0.0,6.3172,6.6352,6.7724,6.9596,7.1967,7.2826,7.2459,7.0844,6.9279,6.754,0.0,0.0,0.0,0.0,0.0,0.0,0.0,0.0,0.0,0.0,0.0,0.0,0.0,0.0,0.0,0.0,0.0,0.0,0.0,0.0,0.0,0.0,0.0,0.0,0.0,0.0,0.0,0.0,5.7551,5.7907,5.8068,0.0,0.0,0.0,0.0,0.0,0.0,0.0,0.0,0.0,0.0,6.0771,6.1915,6.2317,6.2799,6.3671,6.3951,6.4045,6.4031,6.3542,6.2605,6.109,0.0,0.0,0.0,0.0,0.0,0.0,0.0,0.0,0.0,0.0,0.0,0.0,0.0,0.0,0.0,0.0,0.0,0.0,0.0,0.0,0.0,0.0,0.0,0.0,0.0,0.0,0.0,0.0,0.0,0.0,0.0,0.0,0.0,0.0,0.0,0.0,0.0,0.0,0.0,0.0,0.0,0.0,0.0,0.0,0.0,0.0,0.0,0.0,0.0,0.0,0.0,0.0,0.0,6.4016,6.8715,6.9559,7.1174,7.356,7.4441,7.4074,7.2496,7.0881,6.8935,6.6512,0.0,0.0,0.0,0.0,0.0,0.0,0.0,0.0,0.0,0.0,0.0,0.0,0.0,0.0,0.0,0.0,0.0,0.0,0.0,0.0,0.0,0.0,0.0,0.0,0.0,0.0,5.796,5.7997,5.8279,0.0,0.0,0.0,0.0,0.0,0.0,0.0,0.0,0.0,0.0,6.0894,6.1567,6.313,6.347,6.3869,6.4685,6.4938,6.5068,6.5068,6.4513,6.3796,0.0,0.0,0.0,0.0,0.0,0.0,0.0,0.0,0.0,0.0,0.0,0.0,0.0,0.0,0.0,0.0,0.0,0.0,0.0,0.0,0.0,0.0,0.0,0.0,0.0,0.0,0.0,6.2854,6.2805,0.0,0.0,0.0,0.0,0.0,0.0,0.0,0.0,0.0,0.0,0.0,6.6641,6.6852,0.0,0.0,0.0,0.0,0.0,0.0,0.0,0.0,0.0,0.0,0.0,0.0,6.5668,6.8788,6.9706,7.1541,7.4404,7.4771,7.4647,7.4096,7.2018,6.9252,6.5802,0.0,0.0,0.0,0.0,0.0,0.0,0.0,0.0,0.0,0.0,0.0,0.0,0.0,0.0,0.0,0.0,0.0,0.0,0.0,0.0,0.0,0.0,0.0,0.0,0.0,5.8792,0.0,0.0,0.0,0.0,0.0,0.0,0.0,0.0,0.0,0.0,0.0,6.0955,6.1769,6.2456,6.3278,6.4387,6.4639,6.5011,0.0,0.0,0.0,0.0,0.0,0.0,0.0,0.0,0.0,0.0,0.0,0.0,0.0,0.0,6.2664,6.0114,5.9919,6.02,6.0505,0.0,0.0,0.0,0.0,0.0,0.0,0.0,0.0,0.0,0.0,0.0,0.0,0.0,0.0,0.0,0.0,6.4903,0.0,0.0,0.0,0.0,0.0,0.0,0.0,0.0,6.8233,6.9173,7.0251,7.0252,7.0462,0.0,7.0261,6.9292,0.0,0.0,0.0,0.0,0.0,0.0,0.0,0.0,6.7747,7.0059,7.1211,7.2936,7.5212,7.5601,7.5601,7.527,7.2445,6.9509,6.6646,6.5729,6.4517,0.0,0.0,0.0,0.0,0.0,0.0,0.0,0.0,0.0,0.0,0.0,0.0,0.0,0.0,0.0,0.0,0.0,0.0,0.0,0.0,0.0,0.0,0.0,6.004,0.0,0.0,0.0,0.0,0.0,0.0,0.0,0.0,0.0,6.1139,6.1918,6.2832,6.3356,6.3933,6.4608,6.5464,0.0,0.0,0.0,0.0,0.0,0.0,0.0,6.7063,6.6292,6.5718,6.5154,6.4604,6.4971,6.5351,6.5351,0.0,0.0,6.2118,6.202,6.246,6.2716,6.3595,6.4522,6.4992,6.5088,6.5234,0.0,0.0,0.0,0.0,0.0,0.0,0.0,0.0,6.828,6.828,0.0,6.828,0.0,0.0,0.0,0.0,0.0,0.0,0.0,0.0,7.1463,7.2332,7.374,7.3939,7.3889,7.3777,7.3626,7.3524,7.3326,6.9272,0.0,0.0,0.0,0.0,0.0,0.0,7.0197,7.2583,7.4125,7.5322,7.624,7.6959,7.6922,7.5983,7.2275,6.9853,6.8898,6.6646,6.4664,6.3086,6.4407,0.0,0.0,0.0,0.0,0.0,0.0,0.0,0.0,0.0,0.0,0.0,0.0,0.0,0.0,0.0,0.0,0.0,0.0,0.0,0.0,6.0737,0.0,0.0,0.0,0.0,0.0,0.0,0.0,0.0,0.0,0.0,6.3,6.4334,6.5325,6.5362,0.0,0.0,0.0,0.0,6.8031,6.8825,6.9596,7.033,7.105,6.9912,6.9192,6.9889,0.0,0.0,6.7811,6.7811,6.7884,6.7847,6.7921,6.7113,6.4861,6.5485,6.6132,6.5582,6.6609,6.77,6.7797,6.7857,6.7894,7.3075,0.0,0.0,0.0,0.0,7.1688,7.1767,7.1884,7.1884,7.1884,7.1884,7.1884,0.0,0.0,0.0,0.0,0.0,0.0,7.3753,7.4947,7.5894,7.6838,7.7808,7.7855,7.7796,7.7652,7.6929,7.6954,7.7453,7.4484,7.2222,7.0735,0.0,0.0,0.0,0.0,7.2425,7.5147,7.5721,7.6875,7.8715,7.8405,7.7252,7.527,7.3597,7.1762,6.9816,6.7981,6.6806,6.6305,6.5081,0.0,0.0,0.0,0.0,0.0,0.0,0.0,0.0,0.0,0.0,0.0,0.0,0.0,0.0,0.0,0.0,0.0,0.0,0.0,6.1728,6.2732,6.3368,0.0,0.0,0.0,0.0,0.0,0.0,0.0,0.0,0.0,6.6219,6.6182,6.6366,0.0,0.0,6.8151,6.8935,6.9265,6.9486,6.9706,0.0,0.0,0.0,7.0036,6.9816,7.0073,7.0183,7.0279,7.0293,7.0734,7.1138,7.1101,7.1138,7.0881,7.0183,6.8495,6.7614,6.7834,6.8715,6.9596,7.0132,7.0697,7.1101,7.797,7.6389,7.4805,7.4391,7.4821,7.49,7.534,7.6079,7.5781,7.5844,7.6155,7.5806,7.5657,7.5657,7.5657,0.0,0.0,0.0,7.8011,7.9357,8.0125,8.0885,8.1623,8.1669,8.1623,8.1458,8.0896,8.0946,8.1495,7.9587,7.7991,7.6603,0.0,0.0,7.3619,7.4118,7.5454,7.7524,7.7894,7.8706,8.0039,7.9164,7.7947,7.6477,7.4669,7.301,7.1578,6.9683,6.8361,6.77,6.6636,6.6145,0.0,0.0,0.0,0.0,0.0,0.0,0.0,0.0,0.0,0.0,0.0,6.0334,6.0823,0.0,0.0,0.0,6.2218,6.3539,6.464,6.5485,0.0,0.0,0.0,0.0,0.0,0.0,0.0,6.6219,6.6953,6.776,6.8545,6.8495,6.8458,6.8605,6.9082,6.9559,7.0036,0.0,7.1064,7.1064,7.1615,7.2129,7.2422,7.2202,7.2018,7.2018,7.2408,7.2738,7.2738,7.3142,7.3435,7.345,7.345,7.356,7.3854,7.2312,7.0931,7.0844,7.1468,7.2239,7.3032,7.3597,7.3986,8.264,8.2414,7.8251,7.7018,7.7744,7.8013,7.9102,8.0592,7.9967,8.0104,8.0793,7.9941,7.9565,7.9565,7.9527,0.0,8.1129,8.1217,8.2251,8.4032,8.4231,8.4675,8.5334,8.5408,8.5397,8.5258,8.5182,8.5182,8.5193,8.4256,8.3838,8.3691,7.8459,7.6107,7.6713,7.7984,7.9093,7.9935,8.0559,8.0792,8.0614,7.9637,7.8992,7.8586,7.5603,7.3824,7.3567,7.1423,6.9477,6.8044,6.8618,6.8298,6.6806,0.0,0.0,0.0,0.0,0.0,0.0,0.0,0.0,0.0,0.0,0.0,0.0,0.0,0.0,0.0,6.404,0.0,6.7567,6.8435,0.0,0.0,0.0,6.7714,6.6966,6.6893,6.7173,6.7871,0.0,0.0,0.0,0.0,7.1123,7.0477,7.0367,7.0403,7.0381,7.1762,7.2679,7.2716,7.3876,7.5087,7.5359,7.5065,7.461,7.4573,7.4977,7.505,7.5087,7.5322,7.5322,7.5395,7.5322,7.5542,7.6276,7.624,7.5946,7.4456,7.4698,7.538,7.6019,7.6313,7.6607,8.5707,8.5636,8.3464,8.2222,8.1771,8.3163,8.4066,8.4529,8.4472,8.4569,8.4682,8.3876,8.3485,8.3448,8.3448,8.3937,8.484,8.5565,8.6507,8.7574,8.845,8.8907,8.9076,8.9185,8.9265,8.9168,8.8557,8.8263,8.8186,8.6747,8.598,8.5761,8.3786,8.235,8.1557,8.1657,8.2374,8.3689,8.3872,8.321,8.18,8.1852,8.043,7.7345,7.6388,7.5062,7.3218,7.189,7.0694,6.976,6.9775,6.9376,6.8385,6.8406,0.0,0.0,0.0,0.0,0.0,0.0,0.0,0.0,0.0,6.3772,6.4371,0.0,6.4237,0.0,6.5508,6.6662,6.775,6.8559,0.0,0.0,7.0283,7.051,7.0326,7.0253,7.0243,7.0426,7.0073,7.011,7.0903,7.1711,7.2386,7.2767,7.284,7.2826,7.2863,7.367,7.4316,7.4353,7.4698,7.4977,7.5249,7.505,7.4977,7.4903,7.5931,7.6702,7.6738,7.7818,7.8641,7.8641,7.8641,7.8715,7.8825,7.8898,7.8788,7.8384,7.8038,7.7745,7.8002,7.8494,7.8972,8.8734,8.8795,8.7947,8.7291,8.6764,8.6599,8.6748,8.7198,8.7327,8.7574,8.7878,8.746,8.7232,8.7221,8.7221,8.7711,8.8615,8.9173,8.9909,9.0841,9.1461,9.1737,9.1747,9.1799,9.1868,9.184,9.1342,9.1112,9.1074,9.0193,8.9714,8.9605,8.903,8.833,8.7551,8.5405,8.4858,8.5989,8.5897,8.5124,8.3645,8.3056,8.1629,7.9377,7.7701,7.6245,7.4886,7.3936,7.304,7.2264,7.176,7.1125,7.0351,6.9961,6.9634,0.0,0.0,0.0,0.0,0.0,0.0,0.0,0.0,0.0,0.0,0.0,6.6856,0.0,6.8328,0.0,7.0106,7.0585,7.0884,7.1025,7.1363,7.1457,7.1102,7.1315,7.1628,7.1996,7.1973,7.2231,7.304,7.3519,7.3961,7.4403,7.4771,7.4786,7.4397,7.4918,7.5432,7.5432,7.5823,7.6265,7.6655,7.7053,7.7311,7.7385,7.8032,7.8621,7.8658,7.9373,8.0035,8.0035,8.0035,8.0146,8.0477,8.0566,8.0735,8.1397,8.1287,8.0672,7.9869,8.0021,8.0388,9.1769,9.1687,9.1672,9.1704,9.1568,8.9357,8.8881,8.9672,8.9901,9.0349,9.0932,9.0905,9.0916,9.0938,9.0938,9.1478,9.2379,9.2334,9.2849,9.3764,9.3866,9.3888,9.3936,9.4013,9.4023,9.3917,9.3917,9.3802,9.361,9.361,9.3534,9.3447,9.3256,9.3162,9.2988,8.9059,8.7376,8.799,8.7686,8.6921,8.5851,8.4087,8.2939,8.2393,7.9317,7.7558,7.7459,7.6433,7.5548,7.4891,7.4041,7.3156,7.2266,7.1513,7.1118,0.0,7.1119,0.0,0.0,0.0,0.0,0.0,0.0,0.0,0.0,6.8428,6.9006,7.0386,7.1149,7.1888,7.2801,7.2875,7.2654,7.215,7.2062,7.179,7.1263,7.1753,7.2465,7.3217,7.3919,7.4621,7.5212,7.5471,7.5545,7.5604,7.6167,7.6412,7.575,7.5984,7.6367,7.641,7.7303,7.8174,7.8869,7.9667,8.0073,8.0199,8.0258,8.0458,8.0406,8.0554,8.0664,8.0664,8.0686,8.0923,8.1677,8.1809,8.2289,8.364,8.3846,8.3361,8.2033,8.1659,8.1774,9.4758,9.3667,9.3719,9.3437,9.2999,9.3235,9.3644,9.4189,9.5028,9.5178,9.4741,9.4741,9.4794,9.4916,9.4916,9.5348,9.6096,9.5455,9.5591,9.6483,9.6465,9.6526,9.6693,9.7297,9.7308,9.677,9.6732,9.604,9.4703,9.4703,9.4319,9.3656,9.3544,9.3486,9.3476,0.0,0.0,0.0,9.1008,8.9824,8.8357,8.6844,8.5097,8.3087,8.0881,0.0,7.8877,7.7205,7.6269,7.6217,7.5845,0.0,0.0,0.0,0.0,0.0,0.0,0.0,0.0,0.0,0.0,0.0,7.1984,7.1391,7.0335,7.0106,7.0201,7.046,7.0645,7.1128,7.2098,7.2185,7.2669,7.3888,7.3943,7.4084,7.4565,7.4654,7.4769,7.4917,7.5064,7.5226,7.5462,7.5951,7.6394,7.6483,7.7082,7.7717,7.8168,7.7769,7.7732,7.836,7.9142,7.98,8.0015,8.0266,8.0518,8.0347,8.0901,8.1249,8.1338,8.184,8.2231,8.2209,8.2253,8.249,8.3265,8.3434,8.374,8.4706,8.4891,8.4785,8.4389,8.4299,8.4373,9.6963,0.0,9.6374,9.6197,0.0,9.726,9.7493,9.6883,9.6133,9.5842,9.5905,9.6748,9.7162,9.7214,9.7253,9.7444,9.7838,9.7419,9.7477,9.7899,9.795,9.8009,9.8096,9.8519,9.851,9.8134,9.8134,9.7711,9.6874,9.6451,9.6019,9.5557,9.5079,9.483,9.484,9.4782,9.4011,9.2571,9.2324,9.1435,8.9795,8.8155,8.6504,8.4772,0.0,0.0,0.0,0.0,0.0,0.0,0.0,0.0,0.0,0.0,0.0,7.5008,7.4982,7.5132,7.5536,7.5208,7.4926,7.485,7.4743,7.4182,7.2894,7.314,7.3361,7.3361,7.3361,7.3573,7.4047,7.4097,7.4495,7.5329,7.5388,7.5522,7.5843,7.5878,7.6024,7.6344,7.6469,7.6567,7.6976,7.7347,7.7779,7.8165,7.8573,7.9131,7.9808,7.9119,7.8751,7.9689,8.0621,8.125,8.1345,8.1731,8.1917,8.1991,8.2288,8.2511,8.2549,8.2883,8.3165,8.3165,8.3477,8.396,8.4295,8.4703,8.5261,8.5966,8.6189,8.6338,8.662,8.6222,8.5687,9.8959,9.894,9.8807,9.8664,9.8616,10.0017,9.9913,9.8608,0.0,0.0,0.0,9.805,9.8751,9.8762,9.8953,9.8992,9.9002,9.8891,9.8854,9.8854,9.8981,9.9019,9.9019,9.9173,9.9173,9.9019,9.9019,9.8942,9.8788,9.8057,9.7711,9.7663,9.6934,9.6588,9.6588,9.6588,9.5512,9.3476,9.3364,9.2686,9.1145,8.9217,8.7764,8.6725,8.3732,8.2096,8.2014,8.0921,8.0286,8.0258,7.9322,7.8712,7.8501,7.783,7.7407,7.7383,7.7355,7.7355,7.7393,7.7355,7.7341,7.7273,7.719,7.6592,7.5384,7.5945,7.6356,7.6356,7.6356,7.6319,7.6356,7.6356,7.6393,7.6543,7.658,7.6618,7.6767,7.6805,7.7091,7.7665,7.7764,7.7988,7.8574,7.8835,7.9185,7.9796,8.0045,8.0507,8.1126,8.0442,8.0028,8.0902,8.1825,8.251,8.2695,8.3134,8.3634,8.3508,8.3583,8.3671,8.3671,8.3671,8.3709,8.3942,8.4508,8.4994,8.5382,8.5952,8.6639,8.7424,8.7611,8.7798,8.8315,8.7755,8.7005,10.1296,10.0589,9.9954,9.9265,9.8613,9.898,9.9404,9.974,9.8437,9.8012,9.8305,9.9265,9.9776,9.9904,10.0596,10.0894,10.0855,10.0231,9.9885,0.0,9.9904,9.9913,9.9952,10.0635,10.0596,9.9952,9.9913,9.9529,9.8865,9.8673,9.8634,9.8596,9.8471,9.8385,9.8423,9.8423,9.8221,9.7827,9.5685,9.4129,9.3198,9.1277,8.9511,8.7943,8.599,8.4604,8.4012,8.235,8.1528,8.1565,8.0698,7.9839,7.9066,7.8903,7.8455,7.773,7.7654,7.7644,7.7692,7.7654,7.7604,7.7503,7.7986,7.7801,7.65,7.6489,7.6564,7.6564,7.6651,7.6564,7.6564,7.6651,7.6989,7.7615,7.7678,7.7941,7.8629,7.8741,7.8779,7.8929,7.8866,7.8954,7.9192,7.9717,8.0142,8.0355,8.1106,8.1681,8.2318,8.2203,8.2043,8.2352,8.3056,8.3573,8.3706,8.3832,8.3958,8.3932,8.3945,8.3971,8.3971,8.4046,8.4309,8.4934,8.5298,8.5848,8.6937,8.7373,8.7838,8.8527,8.8677,8.8776,8.8964,8.9114,8.9195,10.2854,10.2571,10.2199,10.1566,10.072,9.9885,9.9981,10.0625,9.9729,9.9863,10.0825,10.1681,10.2096,10.2212,10.252,10.2712,10.2674,10.2327,10.2174,10.2145,10.2145,10.1914,10.152,10.1866,10.1558,10.0789,10.075,10.0558,10.0135,9.9721,9.9529,9.9481,9.9058,9.8788,9.8788,9.8788,9.8788,9.875,9.7087,9.58,9.4945,9.2689,9.0915,8.9746,8.759,8.6075,8.5321,8.4052,8.3143,8.2774,8.2303,8.1848,8.1429,8.1381,8.1172,8.0772,8.0743,8.0743,8.0734,8.0631,8.0525,8.0426,8.0666,8.0558,7.9972,7.8946,7.8338,7.8338,7.8338,7.8338,7.8338,7.8338,7.8678,7.9546,7.9622,7.9962,8.0691,8.083,8.083,8.083,8.0842,8.0842,8.083,8.117,8.1623,8.2038,8.2793,8.3473,8.3812,8.3778,8.3653,8.3639,8.3928,8.4218,8.4405,8.4442,8.4442,8.4442,8.4442,8.4442,8.448,8.4744,8.5272,8.5738,8.6417,8.7298,8.8154,8.8557,8.8972,8.9236,8.9425,8.9425,8.95,8.9751,8.9996,10.4372,10.4482,10.4482,10.3982,10.3058,10.1606,10.1289,10.1789,10.126,10.1673,10.2866,10.3405,10.3597,10.3635,10.3789,10.3866,10.3905,10.3905,10.3866,10.3905,10.3905,10.352,10.2943,10.2904,10.2558,10.1943,10.1866,10.1894,10.1827,10.125,10.0952,10.0914,10.025,9.9942,9.9942,9.975,9.9635,9.9596,9.8365,9.7212,9.6136,9.4139,9.2555,9.1277,8.9249,8.7748,8.697,8.5911,8.5032,8.4417,8.4089,8.393,8.3904,8.3904,8.3895,8.3869,8.3869,8.3869,8.3851,8.3542,8.3343,8.3304,8.2997,8.2832,8.2708,8.1499,8.0545,8.0461,8.0466,8.0428,8.0428,8.0466,8.0743,8.1388,8.1464,8.1642,8.2233,8.2396,8.2385,8.2396,8.2396,8.2347,8.2434,8.2575,8.2981,8.3805,8.4537,8.4878,8.4878,8.4878,8.4798,8.4706,8.4659,8.4717,8.4844,8.4867,8.4856,8.4878,8.4867,8.5007,8.5197,8.5789,8.6396,8.6764,8.7762,8.8585,8.8938,8.942,8.9787,8.9889,8.9851,8.9863,8.9851,8.9889,9.0094,10.6126,10.6164,10.6136,10.5674,10.4789,10.3905,10.3558,10.3635,10.3558,10.3597,10.3828,10.3058,10.2866,10.2828,10.3635,10.3982,10.3982,10.3905,10.3943,10.3943,10.3905,10.3866,10.3789,10.3789,10.3712,10.3597,10.3558,10.3482,10.3482,10.3443,10.3482,10.3558,10.3482,10.3289,10.3251,10.2597,10.2212,10.2212,9.9894,9.7894,9.6385,9.6029,9.4799,9.2432,9.1385,9.0423,8.9509,8.8009,8.7124,8.7008,8.6261,8.5804,8.5774,8.5757,8.5731,8.5689,8.568,8.568,8.5604,8.4895,8.4523,8.437,8.3806,8.3414,8.3367,8.3175,8.2827,8.2581,8.2468,8.2337,8.243,8.2326,8.2337,8.2538,8.2565,8.2582,8.2756,8.2659,8.2659,8.2659,8.287,8.2697,8.2946,8.3441,8.4143,8.48,8.5078,8.5268,8.5344,8.5333,8.5403,8.5327,8.5165,8.5089,8.5165,8.5149,8.5181,8.517,8.516,8.5486,8.6002,8.641,8.6845,8.8118,8.8808,8.9303,8.9748,9.0144,9.0156,9.0228,9.0216,9.0194,9.0182,9.0194,9.028,10.6703,10.7175,10.7175,10.6982,10.6521,10.5751,10.5405,10.5405,10.5944,10.6136,10.6174,10.6251,10.552,10.4174,10.4982,10.5366,10.5366,10.5366,10.5366,10.5366,10.5366,10.5097,10.4636,10.4597,10.4366,10.3905,10.3905,10.3905,10.3905,10.3905,10.3905,10.3905,10.3905,10.3905,10.3866,10.3558,10.3366,10.3328,10.1827,10.0442,9.9096,9.6788,9.5027,9.4027,9.3133,9.2287,9.1441,9.0248,8.9402,8.8902,8.8094,8.7624,8.759,8.7581,8.7573,8.7576,8.7568,8.7503,8.745,8.7095,8.6876,8.6831,8.6524,8.6323,8.6285,8.6332,8.622,8.5906,8.4242,8.3056,8.3095,8.3056,8.3257,8.3678,8.3831,8.3974,8.4471,8.4538,8.4548,8.4548,8.4548,8.45,8.4586,8.4844,8.5188,8.5484,8.5561,8.5742,8.6182,8.6335,8.6584,8.6968,8.6669,8.6036,8.5644,8.5531,8.5551,8.5561,8.5561,8.5876,8.6707,8.7367,8.8017,8.9192,8.9669,9.0089,9.0475,9.0617,9.0617,9.0597,9.0607,9.0617,9.0617,9.0617,9.0565,10.7444,10.7982,10.8021,10.8175,10.829,10.7444,10.6982,10.6828,10.7444,10.7559,10.7444,10.8213,10.7559,10.6097,10.6713,10.7087,10.7098,10.7098,10.7098,10.7098,10.7087,10.6751,10.6174,10.6136,10.5828,10.5366,10.5328,10.529,10.5251,10.5251,10.5251,10.5251,10.5059,10.4943,10.4866,10.4328,10.3905,10.3751,10.2635,10.1597,10.0558,9.775,9.5912,9.5605,9.4604,9.3787,9.321,9.2364,9.1595,9.0979,9.0364,9.0064,9.0103,9.0064,9.0064,9.0064,9.0064,8.9914,8.9652,8.9383,8.9116,8.8832,8.8631,8.8477,8.8477,8.8477,8.8477,8.8208,8.6203,8.4881,8.4683,8.4491,8.4636,8.5211,8.5134,8.5202,8.5653,8.5777,8.5721,8.5777,8.5587,8.5777,8.5768,8.5721,8.5741,8.575,8.6027,8.6314,8.6975,8.7263,8.7694,8.8288,8.7828,8.7158,8.6278,8.5848,8.5883,8.6161,8.621,8.6584,8.7512,8.8385,8.8989,8.9917,9.0541,9.0819,9.0799,9.0867,9.0906,9.0906,9.0906,9.0896,9.0857,9.0896,9.0896,10.8829,10.8829,10.8867,10.929,10.9993,10.9098,10.8329,10.7636,10.7713,10.729,10.6818,10.7482,10.7713,10.7598,10.829,10.8752,10.8713,10.8675,10.8636,10.8636,10.8636,10.8713,10.8713,10.8713,10.8598,10.8136,10.8175,10.829,10.8444,10.8482,10.8675,10.8521,10.7713,10.7444,10.7136,10.5251,10.3982,10.3943,10.1943,10.0414,10.0183,9.9221,9.8134,9.725,9.5797,9.4951,9.4758,9.4018,9.3518,9.3527,9.3287,9.3326,9.3364,9.3326,9.3258,9.3287,9.3326,9.3018,9.224,9.15,9.0769,8.9991,8.9367,8.8816,8.903,8.8944,8.8906,8.8731,8.853,8.82,8.7951,8.7127,8.6772,8.684,8.6256,8.5949,8.5825,8.5958,8.5815,8.5786,8.5834,8.5843,8.5786,8.5777,8.5872,8.6025,8.6524,8.7108,8.7424,8.7914,8.8383,8.8555,8.8468,8.8111,8.7224,8.6734,8.6533,8.6781,8.7269,8.753,8.8662,8.9612,9.0081,9.0465,9.0762,9.0915,9.0925,9.0925,9.0935,9.0954,9.0954,9.0954,9.0982,9.0935,9.1021,10.9213,10.9713,10.9713,10.9906,11.0098,10.9252,10.8752,10.8482,10.8482,10.829,10.8098,10.8329,10.8482,10.8482,10.8752,10.8906,10.8906,10.8906,10.8906,10.8829,10.8367,10.8136,10.8136,10.8136,10.8136,10.8213,10.8675,10.8906,10.8829,10.8406,10.8406,10.8829,10.8636,10.8482,10.829,10.7559,10.6867,10.6174,10.4289,10.3068,10.2299,10.0644,9.9221,9.8327,9.7211,9.6365,9.5865,9.498,9.4527,9.4527,9.4018,9.3672,9.3672,9.3672,9.3672,9.3672,9.3672,9.3557,9.3287,9.2979,9.2672,9.2326,9.1595,9.1056,9.1018,9.0633,9.0287,9.0287,9.0287,9.0243,8.9947,8.896,8.8114,8.8076,8.7845,8.7376,8.6962,8.6799,8.6607,8.6146,8.5992,8.5992,8.5984,8.5992,8.6223,8.6731,8.7115,8.7721,8.8644,8.9182,8.9489,8.9921,8.9708,8.9303,8.9046,8.823,8.7807,8.7969,8.8277,8.8652,8.948,8.9817,9.0201,9.073,9.1037,9.1066,9.1066,9.1066,9.1066,9.1075,9.1075,9.1057,9.1103,9.1181,9.1459,10.9829,11.0521,11.0329,11.0367,11.0483,10.9675,10.9483,10.9675,10.9444,10.9483,10.9675,10.9713,10.9752,10.9752,10.9713,10.9752,10.9713,10.9444,10.9329,10.929,10.906,10.8944,10.8906,10.8944,10.8906,10.9021,10.9444,10.9752,10.9637,10.8906,10.8983,10.9713,10.9213,10.906,10.9175,10.879,10.8098,10.7136,10.5828,10.4559,10.3405,10.1827,10.0375,9.9327,9.8634,9.7673,9.6365,9.5711,9.5403,9.5326,9.4826,9.4557,9.4557,9.4557,9.4557,9.4557,9.4557,9.4364,9.4172,9.4143,9.3989,9.371,9.321,9.2903,9.2826,9.2095,9.1672,9.1595,9.1325,9.1201,9.1009,9.0171,8.9402,8.9133,8.8872,8.8487,8.791,8.7825,8.7401,8.6739,8.6577,8.6431,8.6209,8.6393,8.6778,8.7363,8.7786,8.8739,8.9624,9.0201,9.047,9.1009,9.0654,9.0346,9.0175,8.9666,8.906,8.9098,8.906,8.95,8.9902,9.0124,9.0393,9.097,9.1201,9.1201,9.1201,9.1201,9.1201,9.1201,9.1183,9.1148,9.129,9.15,9.1905,11.0752,11.1368,11.056,11.0791,11.1318,11.056,11.0675,11.1021,11.0444,11.0406,11.0791,11.1165,11.0934,11.1214,11.0857,11.1203,11.0906,11.0406,11.0214,11.0214,11.0791,11.1098,11.106,11.0934,11.1098,11.1242,11.1395,11.1483,11.1445,11.0675,11.0637,11.106,10.9944,10.9675,11.0186,10.8829,10.7482,10.6597,10.5713,10.4405,10.2828,10.252,10.1635,10.026,9.9952,9.8827,9.6557,9.6365,9.6326,9.6288,9.6211,9.6249,9.6057,9.6057,9.6172,9.6057,9.6172,9.5826,9.5143,9.4989,9.4681,9.4143,9.3796,9.371,9.3595,9.2979,9.2479,9.2402,9.1864,9.1355,9.1441,9.1287,9.0864,9.0009,8.9402,8.8949,8.8748,8.8679,8.8372,8.7594,8.7401,8.7017,8.6594,8.6901,8.7517,8.7902,8.8778,8.9701,9.0086,9.0624,9.1056,9.1171,9.1047,9.0893,9.1009,9.1086,9.0547,9.0163,9.0038,9.0163,9.0547,9.0816,9.0778,9.1201,9.1201,9.1201,9.1201,9.1201,9.1201,9.1201,9.1201,9.1355,9.1633,9.1979,9.2479,11.2099,11.2291,11.206,11.206,11.2203,11.1445,11.0944,11.0598,11.0291,11.0021,10.9752,10.9713,10.9713,10.9752,10.9713,10.979,10.979,11.056,11.1098,11.1098,11.0829,11.0714,11.0714,11.0637,11.1214,11.2137,11.2329,11.2637,11.2945,11.2329,11.2368,11.2829,11.206,11.1368,11.1021,10.9944,10.8752,10.7367,10.6444,10.5405,10.4289,10.3174,10.2058,10.1019,10.0414,9.9413,9.8096,9.7442,9.7134,9.7134,9.6596,9.6288,9.6326,9.6288,9.6288,9.6288,9.6288,9.6249,9.598,9.5865,9.5749,9.5403,9.4941,9.4643,9.4527,9.3826,9.3364,9.3326,9.3056,9.2941,9.2903,9.2903,9.2249,9.0941,9.0556,9.0133,8.9556,8.9056,8.8641,8.8372,8.8286,8.8132,8.7987,8.8218,8.8479,8.894,8.9586,9.0086,9.0663,9.0941,9.1171,9.1201,9.1201,9.1201,9.1201,9.1201,9.0932,9.0663,9.0586,9.0547,9.097,9.1201,9.1201,9.1201,9.1201,9.1201,9.1201,9.1201,9.1201,9.1432,9.1672,9.1902,9.2133,9.2633,9.3249,11.2906,11.3176,11.3176,11.3176,11.3099,11.2291,11.1868,11.156,11.1252,11.0983,11.0829,11.0829,11.0791,11.0791,11.0791,11.0791,11.0944,11.1983,11.2445,11.2368,11.1906,11.1598,11.1598,11.1598,11.206,11.2983,11.3176,11.3445,11.3945,11.3176,11.3137,11.3714,11.3137,11.2445,11.1934,11.1368,11.0175,10.8367,10.7598,10.6597,10.5213,10.4059,10.2981,10.1904,10.1289,10.0596,9.975,9.8904,9.8327,9.798,9.748,9.725,9.725,9.725,9.725,9.7173,9.6942,9.6749,9.6749,9.6442,9.6288,9.6172,9.5788,9.5528,9.5335,9.4681,9.422,9.4181,9.3826,9.3672,9.3672,9.3672,9.3172,9.2287,9.1825,9.1325,9.0509,8.994,8.9479,8.9286,8.9133,8.9017,8.8795,8.9056,8.9286,8.9816,9.0201,9.047,9.1056,9.1163,9.1201,9.1201,9.1201,9.1201,9.1201,9.1201,9.1201,9.1124,9.1047,9.1009,9.1163,9.1201,9.1201,9.1201,9.1201,9.1201,9.1201,9.1201,9.124,9.1672,9.221,9.2441,9.2749,9.3595,9.422,11.3176,11.3907,11.3984,11.3945,11.383,11.3099,11.306,11.356,11.2945,11.2829,11.3368,11.3137,11.3368,11.3599,11.3022,11.3022,11.3753,11.3522,11.3637,11.3791,11.3753,11.3676,11.3176,11.3214,11.3407,11.3676,11.3945,11.4099,11.4176,11.3637,11.333,11.4176,11.356,11.2868,11.2753,11.2703,11.1175,10.9098,10.8713,10.7405,10.5366,10.5059,10.4328,10.2866,10.2635,10.2212,10.1481,10.0673,9.976,9.8942,9.8596,9.8519,9.8711,9.8788,9.8634,9.8567,9.798,9.7557,9.7326,9.6865,9.6403,9.6288,9.6211,9.6288,9.6057,9.548,9.5104,9.5027,9.448,9.4018,9.4018,9.4057,9.3941,9.3672,9.2979,9.221,9.1441,9.1248,9.0825,9.0201,8.9932,8.9748,8.9171,8.9633,8.9932,9.0163,9.0671,9.1009,9.1124,9.1201,9.1201,9.1201,9.1201,9.1201,9.1201,9.1201,9.1201,9.1201,9.1201,9.1201,9.1201,9.1201,9.1201,9.1201,9.124,9.124,9.1355,9.1518,9.1864,9.2441,9.2826,9.3018,9.3633,9.445,9.498,11.2819,11.3099,11.3714,11.3984,11.3984,11.3714,11.3407,11.306,11.2868,11.2599,11.2329,11.2175,11.2368,11.2175,11.2252,11.2126,11.2472,11.2906,11.3445,11.406,11.4714,11.3753,11.2637,11.2791,11.3099,11.3291,11.4253,11.4945,11.4984,11.5061,11.5407,11.5792,11.4868,11.4214,11.3676,11.2522,11.0829,10.9098,10.829,10.7482,10.6251,10.5443,10.4905,10.4482,10.3828,10.3443,10.3135,10.2404,10.0866,9.8981,9.8788,9.8788,9.8904,9.8904,9.8942,9.8865,9.8634,9.8134,9.7634,9.7288,9.6894,9.6365,9.6288,9.6288,9.6288,9.6095,9.5942,9.5942,9.5711,9.5557,9.5557,9.5518,9.5288,9.4672,9.3941,9.3133,9.2364,9.2133,9.1825,9.1056,9.0902,9.071,9.0633,9.0594,9.0778,9.0816,9.097,9.1201,9.1201,9.1201,9.1201,9.1201,9.1201,9.1201,9.1201,9.1201,9.1201,9.1201,9.1201,9.1201,9.1201,9.1201,9.1201,9.1201,9.1441,9.1479,9.1902,9.2249,9.2749,9.3249,9.3758,9.4143,9.4634,9.5288,9.5672,11.2714,11.2791,11.3637,11.3984,11.3984,11.3984,11.3714,11.333,11.3214,11.3022,11.2599,11.256,11.256,11.256,11.256,11.2599,11.2676,11.3407,11.4099,11.4445,11.4676,11.4099,11.333,11.3368,11.3253,11.333,11.4253,11.4638,11.4753,11.5253,11.5599,11.5803,11.5522,11.5022,11.4522,11.3253,11.1675,11.0098,10.8867,10.779,10.6944,10.6097,10.5443,10.5136,10.4597,10.4289,10.3866,10.3405,10.2212,10.075,10.0096,9.9827,9.9865,9.9865,9.9827,9.9827,9.9558,9.8981,9.8173,9.775,9.7134,9.648,9.6288,9.6288,9.6288,9.6288,9.6288,9.6249,9.6288,9.6288,9.6288,9.6288,9.6057,9.5595,9.5095,9.4287,9.3172,9.2979,9.2787,9.2326,9.1979,9.1748,9.1748,9.1479,9.1248,9.1163,9.1124,9.1201,9.1201,9.1201,9.1201,9.1201,9.1201,9.1201,9.1201,9.1201,9.1325,9.1325,9.1547,9.147,9.1432,9.1432,9.1518,9.1633,9.1672,9.1941,9.2595,9.3095,9.348,9.4027,9.4681,9.5181,9.5518,9.5711,9.6095,11.256,11.2626,11.3407,11.3714,11.3676,11.3714,11.3522,11.3676,11.3483,11.3483,11.3407,11.3637,11.3253,11.3714,11.3099,11.3599,11.3599,11.4099,11.483,11.4868,11.4753,11.4445,11.4791,11.3637,11.333,11.3445,11.3791,11.406,11.4291,11.433,11.4791,11.5407,11.5456,11.5379,11.5061,11.4253,11.306,11.1483,10.9867,10.8675,10.7867,10.7175,10.6559,10.602,10.5674,10.5251,10.4713,10.4174,10.3558,10.2866,10.1933,10.1394,10.1356,10.1356,10.1202,10.1048,10.0481,9.9837,9.8981,9.8173,9.7365,9.6711,9.6403,9.6288,9.6288,9.6288,9.6288,9.6288,9.6288,9.6288,9.6288,9.6288,9.6249,9.6095,9.6172,9.548,9.4403,9.3912,9.3787,9.3672,9.3018,9.271,9.2402,9.1941,9.1364,9.1633,9.1479,9.1201,9.1201,9.1201,9.1201,9.1201,9.1201,9.1201,9.1201,9.1201,9.1364,9.1518,9.1941,9.2056,9.1979,9.1979,9.2095,9.221,9.2479,9.2979,9.3642,9.4066,9.4296,9.4749,9.5365,9.5711,9.6019,9.6019,9.6288,11.1742,11.178,11.1972,11.206,11.206,11.206,11.2049,11.2088,11.2099,11.2165,11.2088,11.2099,11.2137,11.2088,11.2214,11.2022,11.2368,11.3176,11.3907,11.5215,11.5138,11.5061,11.483,11.333,11.2214,11.2522,11.3483,11.3945,11.4176,11.5061,11.5984,11.6034,11.5572,11.5599,11.583,11.4137,11.2896,11.2175,11.0752,10.9483,10.879,10.8406,10.8098,10.779,10.7367,10.7059,10.6636,10.5559,10.4789,10.4251,10.3212,10.2395,10.2174,10.1664,10.1356,10.1241,10.1135,10.0635,9.9837,9.899,9.8134,9.7365,9.6826,9.6288,9.6326,9.6365,9.6326,9.6288,9.6288,9.6288,9.6288,9.6288,9.6288,9.6288,9.6288,9.6172,9.5711,9.5095,9.4527,9.3941,9.3633,9.3441,9.3403,9.271,9.2287,9.2172,9.1748,9.1317,9.124,9.1278,9.1201,9.1201,9.1201,9.124,9.1595,9.171,9.1979,9.2133,9.2441,9.2903,9.2826,9.2749,9.2941,9.3133,9.3364,9.395,9.4566,9.4758,9.4989,9.5518,9.5942,9.6057,9.6172,9.6288,9.6519,11.1511,11.1511,11.1511,11.1511,11.1511,11.1511,11.1511,11.1511,11.1511,11.1511,11.1511,11.1511,11.1511,11.1511,11.1511,11.1703,11.2329,11.3407,11.4638,11.5572,11.5533,11.5303,11.5022,11.3714,11.2676,11.2829,11.3522,11.3945,11.4291,11.4907,11.5368,11.5918,11.5495,11.5495,11.5715,11.4137,11.3214,11.2406,11.106,10.9944,10.956,10.9098,10.8906,10.8867,10.8444,10.8136,10.7559,10.6867,10.6136,10.552,10.4482,10.3366,10.2674,10.2164,10.1741,10.1356,10.1279,10.0904,10.0144,9.9683,9.9058,9.8173,9.7673,9.7557,9.7326,9.7134,9.6865,9.6788,9.6557,9.6288,9.6288,9.6288,9.6288,9.6288,9.6288,9.6288,9.6211,9.5865,9.548,9.4941,9.4595,9.4403,9.4057,9.3518,9.3172,9.3018,9.2364,9.1941,9.171,9.1672,9.1278,9.1201,9.1201,9.1355,9.1864,9.2287,9.2787,9.2979,9.3172,9.3672,9.4018,9.395,9.3912,9.4104,9.4335,9.4788,9.5326,9.5489,9.5595,9.5903,9.6172,9.6249,9.6442,9.6673,9.6942,11.1504,11.1504,11.1522,11.1511,11.1511,11.1511,11.1511,11.1511,11.1511,11.1511,11.1522,11.1522,11.1515,11.1515,11.1575,11.2064,11.3082,11.4137,11.5264,11.6187,11.583,11.5649,11.5368,11.483,11.4368,11.4368,11.433,11.4291,11.4291,11.4407,11.5291,11.5484,11.5341,11.5379,11.5138,11.4291,11.333,11.256,11.1291,11.0521,11.0367,10.979,10.9521,10.9483,10.9175,10.8713,10.8136,10.7598,10.7213,10.6433,10.5713,10.452,10.3405,10.2597,10.2212,10.1394,10.1279,10.1019,10.0519,10.0144,9.9683,9.9029,9.8798,9.8759,9.8519,9.8057,9.7673,9.7211,9.6826,9.6288,9.6288,9.6288,9.6288,9.6288,9.6288,9.6288,9.6288,9.6288,9.6172,9.6095,9.5557,9.5249,9.4912,9.4489,9.4181,9.3796,9.3133,9.2633,9.2402,9.2249,9.1979,9.1979,9.2133,9.221,9.2595,9.3249,9.371,9.3903,9.4057,9.4518,9.5018,9.5057,9.498,9.5057,9.5326,9.5672,9.5865,9.5942,9.6057,9.6288,9.6326,9.6403,9.6673,9.7096,9.748,11.1581,11.1571,11.1515,11.1511,11.1511,11.1511,11.1522,11.1511,11.1532,11.1511,11.1494,11.154,11.1581,11.164,11.1721,11.251,11.3584,11.4406,11.5198,11.6314,11.6264,11.6187,11.611,11.5907,11.5869,11.5869,11.5445,11.5061,11.5253,11.5715,11.5869,11.6072,11.5687,11.5379,11.4868,11.383,11.3137,11.2703,11.1752,11.128,11.1049,11.0972,11.078,11.0752,11.0252,10.956,10.8752,10.8059,10.729,10.651,10.6241,10.5597,10.4559,10.3366,10.2404,10.1635,10.1317,10.1164,10.0943,10.0481,10.0144,9.976,9.9375,9.8942,9.8865,9.8634,9.825,9.748,9.6865,9.6326,9.6288,9.6288,9.6288,9.6288,9.6288,9.6288,9.6288,9.6288,9.6288,9.6249,9.6095,9.598,9.5595,9.5288,9.498,9.4566,9.398,9.3595,9.3403,9.3287,9.3172,9.321,9.3373,9.3403,9.3518,9.422,9.4758,9.4903,9.5095,9.5441,9.5865,9.6019,9.6095,9.5865,9.5826,9.6019,9.6211,9.6288,9.6288,9.6288,9.6403,9.6519,9.7057,9.7596,9.8442,11.1741,11.1682,11.1609,11.1568,11.1568,11.1568,11.1529,11.1578,11.163,11.165,11.1671,11.1711,11.1692,11.1712,11.1741,11.2657,11.388,11.4662,11.5467,11.6419,11.6529,11.6484,11.6495,11.6495,11.6484,11.638,11.6072,11.5869,11.5957,11.6264,11.6495,11.6418,11.6072,11.5753,11.5291,11.4599,11.3522,11.2906,11.2319,11.1895,11.1549,11.1511,11.1511,11.1357,11.1098,11.0444,10.9598,10.8752,10.7944,10.7213,10.6636,10.5944,10.5174,10.4328,10.3289,10.2212,10.1587,10.1317,10.1279,10.0904,10.075,10.0712,10.025,10.0135,9.9981,9.9712,9.8904,9.7827,9.7288,9.6749,9.6365,9.6326,9.6288,9.6288,9.6288,9.6288,9.6288,9.6288,9.6288,9.6288,9.6211,9.6172,9.6172,9.5903,9.5749,9.5326,9.4826,9.4566,9.4373,9.421,9.4057,9.4095,9.4172,9.4364,9.4441,9.498,9.5451,9.5634,9.5788,9.6134,9.6288,9.6288,9.6288,9.6172,9.6288,9.6288,9.6288,9.6288,9.6288,9.6365,9.6711,9.7096,9.7557,9.8211,9.9058,11.19,11.1828,11.1722,11.1624,11.1642,11.1662,11.1672,11.1702,11.179,11.1837,11.1837,11.1856,11.1856,11.1837,11.1973,11.2658,11.4125,11.4797,11.5555,11.6298,11.656,11.6562,11.6529,11.6517,11.6517,11.6495,11.6418,11.6484,11.638,11.6457,11.6495,11.6457,11.6484,11.611,11.5379,11.5099,11.4214,11.3483,11.2934,11.2549,11.1934,11.1588,11.1511,11.1511,11.1511,11.106,11.0098,10.9521,10.8752,10.7944,10.7175,10.6405,10.5713,10.53,10.4492,10.3212,10.2135,10.1587,10.1279,10.1279,10.1164,10.1125,10.1241,10.1241,10.1019,10.0327,9.9481,9.8288,9.7519,9.725,9.6711,9.6394,9.6326,9.6288,9.6288,9.6288,9.6288,9.6288,9.6288,9.6288,9.6288,9.6288,9.6288,9.6249,9.6019,9.598,9.548,9.5403,9.5211,9.4903,9.4788,9.4749,9.4864,9.5172,9.5365,9.5672,9.5942,9.6019,9.6057,9.6249,9.6288,9.6288,9.6288,9.6288,9.6288,9.6288,9.6288,9.6365,9.648,9.6711,9.7173,9.7788,9.8481,9.9058,9.976,11.2063,11.1989,11.1891,11.1837,11.178,11.1856,11.1855,11.1864,11.1972,11.1998,11.2024,11.2105,11.2066,11.1998,11.1909,11.2507,11.3426,11.4269,11.5109,11.5959,11.6488,11.6743,11.6697,11.6687,11.6605,11.6562,11.6517,11.6484,11.6506,11.6506,11.6484,11.6484,11.6407,11.6138,11.5572,11.5495,11.4791,11.4022,11.383,11.3407,11.2599,11.1945,11.1665,11.1588,11.1472,11.1137,11.0406,11.0021,10.9521,10.879,10.7982,10.7521,10.7175,10.5867,10.5213,10.4405,10.3405,10.2135,10.1548,10.1433,10.1356,10.1356,10.1279,10.1279,10.1125,10.0673,10.0058,9.9875,9.8557,9.7634,9.7326,9.6788,9.6442,9.6403,9.6557,9.648,9.6403,9.6288,9.6288,9.6288,9.6288,9.6288,9.6288,9.6288,9.6249,9.6249,9.6202,9.6095,9.598,9.5595,9.548,9.5441,9.5403,9.5672,9.5788,9.6134,9.6211,9.6288,9.6288,9.6288,9.6288,9.6288,9.6288,9.6288,9.6288,9.6403,9.6557,9.6673,9.6749,9.7173,9.7711,9.8634,9.9644,10.0106,10.0452,11.2459,11.2205,11.2118,11.2066,11.2037,11.2075,11.2078,11.211,11.222,11.228,11.2273,11.2296,11.2251,11.2181,11.2133,11.2644,11.3449,11.4207,11.5014,11.5883,11.6554,11.6953,11.6875,11.6883,11.6794,11.6712,11.6631,11.6648,11.6605,11.6529,11.6484,11.6484,11.6495,11.6418,11.5918,11.5957,11.5495,11.483,11.4291,11.383,11.333,11.2676,11.2175,11.2175,11.1752,11.1329,11.0955,11.0367,11.0109,10.9483,10.8829,10.8136,10.7713,10.6905,10.6251,10.503,10.4482,10.3443,10.2327,10.2097,10.1789,10.1394,10.1317,10.1279,10.1202,10.0981,10.0481,10.0106,9.9452,9.8788,9.8327,9.7942,9.7788,9.7596,9.7173,9.7057,9.6865,9.6403,9.6288,9.6288,9.6288,9.6365,9.6365,9.6288,9.6288,9.6288,9.6249,9.6211,9.6172,9.6095,9.6019,9.6095,9.6095,9.6172,9.6134,9.6249,9.6249,9.6288,9.6288,9.6288,9.6288,9.6288,9.6403,9.6403,9.6365,9.6519,9.6826,9.7019,9.7173,9.7711,9.8327,9.9327,10.0298,10.075,10.1173,11.2758,11.2535,11.2375,11.2309,11.2282,11.2309,11.2299,11.2334,11.2492,11.2586,11.2541,11.2524,11.2439,11.2376,11.2433,11.2813,11.3681,11.4422,11.5259,11.6081,11.6799,11.7132,11.7139,11.7094,11.7029,11.6866,11.6855,11.6825,11.6743,11.6648,11.6573,11.6495,11.6484,11.6457,11.6495,11.638,11.6072,11.561,11.4791,11.4407,11.4176,11.3483,11.2945,11.2599,11.2175,11.1725,11.1438,11.0997,11.0613,11.0472,10.9779,10.9096,10.8634,10.7941,10.717,10.6218,10.5678,10.4821,10.3753,10.3108,10.2491,10.1894,10.1356,10.1279,10.1279,10.1279,10.1173,10.0519,10.0067,9.9635,9.925,9.8904,9.8557,9.8365,9.8134,9.798,9.775,9.7365,9.6942,9.6826,9.6749,9.6519,9.648,9.6326,9.6288,9.6288,9.6288,9.6288,9.6288,9.6288,9.6288,9.6288,9.6288,9.6288,9.6288,9.6288,9.6288,9.6365,9.6365,9.6365,9.6403,9.6596,9.6788,9.6711,9.6673,9.7211,9.7788,9.7711,9.7711,9.8519,9.9327,10.0058,10.0789,10.1366,10.1981,11.2936,11.2854,11.2722,11.26,11.2463,11.2547,11.2622,11.2623,11.2731,11.2781,11.2756,11.2726,11.2645,11.2586,11.2582,11.3009,11.3908,11.4616,11.5484,11.6345,11.7128,11.7397,11.7392,11.7368,11.7294,11.71,11.7085,11.702,11.6982,11.6885,11.6712,11.6529,11.654,11.6506,11.6495,11.6506,11.6457,11.611,11.5522,11.5215,11.4945,11.4368,11.3637,11.2983,11.2676,11.2295,11.1658,11.1504,11.1391,11.1471,11.0777,11.0198,10.9687,10.8878,10.8068,10.7576,10.6844,10.6102,10.5312,10.4263,10.3396,10.2607,10.2001,10.1635,10.1568,10.1424,10.125,10.1125,10.0654,10.0298,9.9817,9.9413,9.9345,9.9191,9.9124,9.8865,9.8663,9.8442,9.8057,9.7596,9.7326,9.7211,9.7096,9.7057,9.648,9.6403,9.6288,9.6288,9.6288,9.6288,9.6288,9.6288,9.6288,9.6288,9.6288,9.6326,9.6403,9.6557,9.6673,9.6634,9.6634,9.6865,9.7442,9.7557,9.7673,9.825,9.8634,9.8481,9.8673,9.9529,10.026,10.0789,10.175,10.2635,10.3174,11.3045,11.3027,11.2973,11.2832,11.2688,11.2761,11.2784,11.2806,11.2887,11.2894,11.2852,11.2853,11.277,11.2727,11.2751,11.3175,11.4051,11.4888,11.5744,11.6595,11.7292,11.765,11.766,11.7587,11.7525,11.7415,11.7329,11.7294,11.7244,11.7157,11.7001,11.6845,11.6712,11.6616,11.6583,11.654,11.6506,11.6457,11.6226,11.6034,11.5869,11.5253,11.4638,11.4368,11.3637,11.3163,11.2554,11.2411,11.2173,11.1819,11.1462,11.1057,11.0642,10.9783,10.9252,10.8751,10.7988,10.7448,10.6782,10.5658,10.4484,10.379,10.325,10.2817,10.2336,10.2278,10.1931,10.1593,10.1305,10.1142,10.0938,10.0745,10.06,10.0389,10.016,9.9854,9.9566,9.9393,9.8989,9.8469,9.8316,9.8211,9.8096,9.7942,9.7211,9.6519,9.6403,9.6365,9.6528,9.6632,9.6757,9.6766,9.6805,9.668,9.668,9.6623,9.6566,9.6806,9.7085,9.721,9.7382,9.7874,9.8336,9.8481,9.8644,9.9067,9.9259,9.9221,9.9567,10.0096,10.0712,10.1327,10.2443,10.3789,10.4366,11.3114,11.3112,11.3142,11.3017,11.2914,11.2921,11.297,11.2943,11.3003,11.2994,11.2966,11.2957,11.2929,11.2937,11.3198,11.3744,11.468,11.5494,11.6356,11.7084,11.7686,11.7917,11.7872,11.7869,11.7786,11.771,11.7621,11.7546,11.7511,11.7438,11.7311,11.7127,11.6991,11.6895,11.6691,11.6637,11.6583,11.6551,11.654,11.6517,11.6391,11.5984,11.5407,11.5215,11.4599,11.4049,11.3363,11.3001,11.2647,11.234,11.1963,11.1595,11.1141,11.0687,11.028,10.9748,10.9225,10.8779,10.8114,10.6617,10.5259,10.4567,10.4152,10.3775,10.3476,10.3292,10.2986,10.2648,10.2425,10.2318,10.2327,10.2378,10.206,10.184,10.1475,10.1178,10.0668,10.0342,9.9852,9.9342,9.9285,9.9179,9.8764,9.8581,9.8295,9.767,9.7622,9.7554,9.7564,9.7629,9.7588,9.7588,9.7541,9.7369,9.7235,9.7493,9.7751,9.7867,9.8098,9.8234,9.8495,9.8959,9.923,9.9355,9.9547,9.9865,10.0077,10.0221,10.0327,10.0481,10.1366,10.2443,10.3443,10.4751,10.5482,11.3202,11.3199,11.3198,11.3148,11.3077,11.3023,11.3025,11.3072,11.3077,11.307,11.3088,11.3069,11.3045,11.3177,11.3688,11.4507,11.5404,11.6298,11.7154,11.7778,11.7966,11.8094,11.8072,11.8048,11.8019,11.7975,11.7862,11.7798,11.7775,11.7666,11.756,11.7452,11.7329,11.7174,11.6826,11.6786,11.6764,11.6719,11.6708,11.6644,11.6562,11.6386,11.6012,11.5627,11.5434,11.496,11.4283,11.3747,11.344,11.3177,11.2516,11.2195,11.201,11.1306,11.0952,11.0784,11.0748,11.0368,10.9693,10.7044,10.5984,10.5696,10.543,10.4786,10.4378,10.4167,10.4039,10.3658,10.376,10.3858,10.3995,10.3965,10.3451,10.313,10.2783,10.2525,10.2023,10.1718,10.1362,10.1045,10.0505,10.0042,9.9549,9.9184,9.9183,9.8984,9.8889,9.8744,9.8578,9.8451,9.834,9.8284,9.8245,9.8245,9.8198,9.8636,9.8923,9.9039,9.9163,9.9317,9.957,9.9939,10.0164,10.0265,10.0441,10.0721,10.1029,10.1289,10.1635,10.2097,10.2943,10.3905,10.4828,10.5674,10.6444,11.3203,11.3202,11.3202,11.3201,11.3158,11.3104,11.3096,11.31,11.31,11.3098,11.3094,11.3088,11.3084,11.3351,11.4009,11.4905,11.5729,11.6553,11.7412,11.8148,11.8174,11.8168,11.8153,11.8168,11.8151,11.8115,11.8021,11.7976,11.7988,11.7877,11.7792,11.7704,11.7574,11.7337,11.7073,11.6972,11.6904,11.6903,11.6815,11.6753,11.6722,11.6673,11.6568,11.6221,11.6211,11.5838,11.5195,11.4762,11.448,11.4089,11.3386,11.2931,11.2737,11.2091,11.1729,11.1568,11.1438,11.091,11.044,10.9102,10.8174,10.7641,10.7068,10.6371,10.5605,10.5317,10.5,10.4611,10.4609,10.454,10.4357,10.4373,10.4126,10.418,10.3979,10.3901,10.3599,10.3543,10.3317,10.3093,10.266,10.1748,10.106,10.0667,10.0534,10.0121,9.9967,9.9459,9.918,9.9042,9.8921,9.8888,9.8871,9.8995,9.9167,9.9605,9.9908,10.0015,10.0217,10.0418,10.0711,10.1067,10.1233,10.1423,10.1502,10.1615,10.203,10.253,10.3261,10.3905,10.4559,10.5097,10.579,10.6597,10.7444,11.3203,11.3203,11.3203,11.3203,11.3203,11.316,11.3117,11.3117,11.3114,11.3112,11.3112,11.3109,11.3301,11.3731,11.4474,11.5334,11.6193,11.7052,11.7559,11.8262,11.8254,11.8247,11.8242,11.8239,11.8224,11.8204,11.8185,11.8118,11.8139,11.8091,11.8015,11.7916,11.7763,11.7595,11.7399,11.7305,11.7157,11.7112,11.7038,11.6982,11.6914,11.6895,11.6895,11.6856,11.6779,11.6615,11.6247,11.5906,11.5603,11.496,11.4375,11.3704,11.3355,11.3048,11.2545,11.2181,11.1928,11.1726,11.1812,11.13,11.0485,11.009,10.95,10.832,10.7174,10.6917,10.633,10.5874,10.5449,10.5341,10.5378,10.5323,10.5264,10.5344,10.5125,10.5045,10.4658,10.4531,10.4523,10.4361,10.416,10.3308,10.2603,10.2378,10.2082,10.1528,10.0981,10.0527,10.0071,9.9986,9.9993,9.9985,10.0086,10.0356,10.0487,10.0618,10.0858,10.1022,10.1298,10.1596,10.1969,10.2371,10.2461,10.2592,10.2842,10.3039,10.3232,10.3695,10.4455,10.5156,10.5828,10.6328,10.679,10.7444,10.8262,11.3164,11.3164,11.3203,11.3203,11.3203,11.3203,11.3203,11.3203,11.32,11.3199,11.3199,11.3113,11.3503,11.4399,11.5258,11.608,11.6901,11.7798,11.8111,11.8267,11.8267,11.8304,11.8304,11.8264,11.8261,11.8257,11.8247,11.8193,11.8194,11.8151,11.8129,11.8072,11.7949,11.7867,11.773,11.7595,11.7445,11.736,11.7244,11.7192,11.7148,11.7091,11.7091,11.7091,11.7061,11.7061,11.6787,11.6482,11.6207,11.5783,11.5328,11.4546,11.4049,11.3759,11.3247,11.2829,11.2693,11.3095,11.3361,11.2754,11.2609,11.1999,11.0955,10.9811,10.9113,10.8783,10.8167,10.7583,10.7115,10.7069,10.6998,10.6827,10.6654,10.6459,10.6191,10.5802,10.5309,10.5187,10.5225,10.5148,10.5031,10.4448,10.3782,10.3471,10.3354,10.3032,10.2626,10.2497,10.2054,10.1492,10.1492,10.1517,10.1659,10.1957,10.1996,10.1906,10.2223,10.2533,10.2608,10.2888,10.3253,10.3509,10.358,10.3755,10.4203,10.4485,10.4615,10.5053,10.5678,10.6379,10.7305,10.7736,10.8247,10.8226,10.8832,11.2265,11.2343,11.2929,11.3203,11.3203,11.3203,11.3203,11.3203,11.3203,11.3203,11.3202,11.3203,11.3711,11.453,11.5311,11.6172,11.707,11.7772,11.8162,11.8281,11.8281,11.8281,11.8281,11.8281,11.8281,11.8275,11.8271,11.8265,11.8256,11.8233,11.8183,11.8158,11.809,11.8041,11.7976,11.7887,11.7716,11.7546,11.7469,11.7391,11.736,11.7352,11.7343,11.7343,11.7352,11.7352,11.7213,11.7104,11.6926,11.6818,11.6159,11.5569,11.5558,11.4966,11.4284,11.3656,11.3681,11.387,11.3984,11.3393,11.3206,11.3549,11.2667,11.2158,11.1483,11.0765,11.0074,10.9138,10.8485,10.8245,10.7978,10.7798,10.7766,10.7609,10.7412,10.7169,10.6712,10.6634,10.6595,10.6298,10.6181,10.5567,10.4866,10.4633,10.4516,10.436,10.42,10.4078,10.3812,10.3179,10.2881,10.2907,10.2858,10.3027,10.3177,10.3127,10.3644,10.4054,10.3987,10.4012,10.4416,10.4637,10.4672,10.5004,10.5594,10.5849,10.6002,10.6526,10.7105,10.8126,10.9032,10.933,10.9588,10.9578,10.9578,11.1367,11.1523,11.2304,11.2851,11.3164,11.3203,11.3203,11.3203,11.3203,11.3203,11.3203,11.3203,11.3867,11.4961,11.5547,11.6367,11.7578,11.8008,11.8281,11.8281,11.8281,11.8281,11.8281,11.8281,11.8281,11.8281,11.8281,11.8278,11.8272,11.8265,11.8257,11.8244,11.8211,11.8132,11.8083,11.8048,11.796,11.7792,11.7673,11.7613,11.7585,11.7585,11.7585,11.7578,11.7578,11.7578,11.7585,11.7578,11.7585,11.7585,11.6932,11.6642,11.6345,11.5593,11.5104,11.4552,11.4624,11.4723,11.468,11.4042,11.4172,11.4296,11.4026,11.374,11.3048,11.227,11.113,11.0032,10.9583,10.9149,10.8857,10.8634,10.871,10.878,10.8696,10.8649,10.8458,10.8298,10.8036,10.77,10.7203,10.6589,10.6124,10.5851,10.55,10.5075,10.4886,10.4853,10.4658,10.4288,10.4074,10.4074,10.3944,10.3928,10.4118,10.4313,10.459,10.4836,10.4783,10.4955,10.5449,10.5853,10.5996,10.6484,10.704,10.7331,10.7659,10.8034,10.8653,10.9628,11.0381,11.0642,11.0796,11.0892,11.0873,11.0508,11.0586,11.1445,11.2265,11.3047,11.3047,11.3086,11.3203,11.3203,11.3203,11.3203,11.3203,11.4101,11.5312,11.5742,11.6718,11.7656,11.8242,11.8281,11.8281,11.8281,11.8281,11.8281,11.8281,11.8281,11.8281,11.8281,11.8281,11.8281,11.8278,11.8272,11.8303,11.8237,11.8172,11.8153,11.8126,11.8056,11.8011,11.7926,11.7848,11.787,11.7875,11.7887,11.7875,11.7875,11.7875,11.7914,11.7881,11.7887,11.7881,11.7764,11.7408,11.6852,11.6266,11.5857,11.5551,11.5604,11.5446,11.532,11.4789,11.4744,11.4858,11.4771,11.4416,11.3677,11.3237,11.2105,11.1186,11.0667,11.0082,10.9732,10.9612,10.9681,10.9709,10.9657,10.9567,10.9382,10.9031,10.849,10.8149,10.7727,10.7148,10.6955,10.668,10.6599,10.5949,10.5797,10.5843,10.5752,10.555,10.5224,10.5138,10.4784,10.4739,10.5156,10.5351,10.5422,10.5549,10.5681,10.6185,10.6956,10.7238,10.7368,10.7883,10.8479,10.9049,10.9437,10.9626,10.9926,11.0839,11.1478,11.1798,11.2001,11.2223,11.2088,10.9609,10.9687,11.0547,11.1406,11.2148,11.2226,11.2617,11.3164,11.3203,11.3203,11.3203,11.332,11.4101,11.5547,11.5742,11.6679,11.7968,11.8281,11.8281,11.8281,11.8281,11.8281,11.8281,11.8281,11.8281,11.8281,11.8281,11.8281,11.8281,11.8281,11.828,11.8279,11.8264,11.8245,11.823,11.8171,11.8171,11.8151,11.808,11.8019,11.7979,11.7965,11.796,11.7999,11.7999,11.7999,11.7999,11.796,11.796,11.796,11.796,11.7862,11.7742,11.7507,11.7119,11.6685,11.6536,11.632,11.5949,11.5567,11.533,11.4828,11.4513,11.4115,11.3784,11.3708,11.3216,11.239,11.1727,11.111,11.0733,11.0684,11.0626,11.0649,11.0629,11.0489,11.0309,10.9648,10.8986,10.86,10.8174,10.7981,10.7826,10.7708,10.7552,10.7474,10.7435,10.7436,10.7358,10.7149,10.6287,10.6012,10.5468,10.5463,10.5996,10.6413,10.6482,10.6881,10.7204,10.7786,10.8397,10.8789,10.9117,10.9398,10.9837,11.0511,11.083,11.0678,11.114,11.2101,11.2611,11.2971,11.3521,11.383,11.35,10.8711,10.8828,10.9687,11.0742,11.1758,11.1914,11.2383,11.3086,11.3203,11.3203,11.3203,11.332,11.414,11.5547,11.5742,11.6718,11.8047,11.8281,11.8281,11.8281,11.8281,11.8281,11.8281,11.8281,11.8281,11.8281,11.8281,11.8281,11.8281,11.8281,11.8281,11.828,11.827,11.8295,11.8239,11.8246,11.8218,11.8205,11.816,11.8139,11.8094,11.808,11.8056,11.8052,11.8056,11.8056,11.8056,11.8056,11.8052,11.8052,11.8056,11.8021,11.8002,11.7942,11.782,11.7608,11.7424,11.7284,11.6875,11.6413,11.5867,11.5203,11.45,11.4211,11.3469,11.3327,11.3327,11.2621,11.2559,11.2059,11.2039,11.1977,11.1979,11.1989,11.1914,11.1766,11.1188,11.045,10.9984,10.9674,10.9443,10.9448,10.933,10.9292,10.9218,10.9179,10.914,10.8672,10.8672,10.8554,10.7734,10.7141,10.6748,10.6587,10.7041,10.7389,10.7586,10.8062,10.8575,10.8986,10.9466,11.0305,11.089,11.1009,11.1384,11.2122,11.2311,11.2175,11.2616,11.3557,11.3915,11.4143,11.4693,11.5234,11.5032,10.8047,10.8125,10.8828,11.0117,11.1601,11.1718,11.2265,11.3086,11.3203,11.3203,11.3242,11.3359,11.4336,11.5234,11.5937,11.707,11.7851,11.8203,11.8281,11.8281,11.8281,11.8281,11.8281,11.8281,11.8281,11.8281,11.8281,11.8281,11.8281,11.8281,11.8281,11.8276,11.8307,11.8295,11.8279,11.8302,11.828,11.8278,11.8278,11.8282,11.8226,11.8205,11.8142,11.8132,11.8132,11.8093,11.8132,11.8132,11.8132,11.8249,11.8327,11.8603,11.8763,11.8886,11.882,11.8681,11.8453,11.8387,11.8165,11.7545,11.6686,11.5789,11.4969,11.4227,11.3524,11.3175,11.3214,11.3302,11.3235,11.3088,11.3021,11.3026,11.3027,11.2992,11.2875,11.2695,11.1875,11.1172,11.0937,11.0664,11.0547,11.0547,11.0547,11.0586,11.0625,11.0625,11.0468,11.0078,10.9726,10.9531,10.9023,10.8672,10.8434,10.8352,10.8242,10.8281,10.8476,10.9054,10.9523,10.9976,11.0616,11.1632,11.225,11.2361,11.287,11.3569,11.395,11.3942,11.4511,11.4855,11.492,11.5085,11.566,11.6124,11.6434,10.8008,10.8008,10.8203,10.9258,11.0742,11.0859,11.1718,11.3047,11.3203,11.3203,11.3398,11.4023,11.4843,11.5742,11.6484,11.7383,11.8086,11.8281,11.8281,11.8281,11.8281,11.8281,11.8281,11.8281,11.8281,11.8281,11.8281,11.8281,11.8281,11.8281,11.828,11.8276,11.8307,11.8295,11.8279,11.8302,11.8289,11.8289,11.8289,11.8289,11.8289,11.8275,11.8278,11.8273,11.8273,11.8273,11.8273,11.8234,11.8273,11.8429,11.8775,11.928,11.9629,11.9785,11.9829,11.9712,11.9483,11.9293,11.9026,11.8443,11.7545,11.6257,11.5476,11.4815,11.4114,11.3421,11.3622,11.4029,11.3918,11.3488,11.3379,11.3382,11.3346,11.3274,11.316,11.2695,11.207,11.1797,11.1562,11.1211,11.0898,11.0898,11.0937,11.0937,11.0937,11.0976,11.1015,11.0625,11.0508,11.0351,11.0273,11.0039,10.9804,10.957,10.9218,10.9101,10.9297,10.9922,11.0584,11.1242,11.2048,11.3115,11.363,11.3678,11.4191,11.4906,11.5189,11.535,11.552,11.5716,11.5769,11.5996,11.6546,11.685,11.6889]}]]